[[{"header":{"parameterUnit":"m.s-1","parameterCategory":1,"la1":30.6,"la2":29.2853,"lo1":-89.7004,"lo2":-87.6739,"dy":0.0162,"dx":0.0183,"nx":112,"ny":82,"refTime":"2024-04-18T12:00:00:Z","depth":0,"parameterNumber":2,"parameterNumberName":"U-component_of_WINDS"},"data":[0.0,0.0,0.0,0.0,0.0,0.0,0.0,0.0,0.0,0.0,0.0,0.0,0.0,0.0,0.0,0.0,0.0,0.0,0.0,0.0,0.0,0.0,0.0,0.0,0.0,0.0,0.0,0.0,0.0,0.0,0.0,0.0,0.0,0.0,0.0,0.0,0.0,0.0,0.0,0.0,0.0,0.0,0.0,0.0,0.0,0.0,0.0,0.0,0.0,0.0,0.0,0.0,0.0,0.0,0.0,0.0,0.0,0.0,0.0,0.0,0.0,0.0,0.0,0.0,0.0,0.0,0.0,0.0,0.0,0.0,0.0,0.0,0.0,0.0,0.0,0.0,0.0,0.0,0.0,0.0,0.0,0.0,0.0,0.0,0.0,0.0,0.0,0.0,0.0,0.0,-1.6626,-2.6717,-3.0236,-3.1254,-2.9787,-2.9882,-2.6721,-1.9011,0.0,0.0,0.0,0.0,0.0,0.0,0.0,0.0,0.0,0.0,0.0,0.0,0.0,0.0,0.0,0.0,0.0,0.0,0.0,0.0,0.0,0.0,0.0,0.0,0.0,0.0,0.0,0.0,0.0,0.0,0.0,0.0,0.0,0.0,0.0,0.0,0.0,0.0,0.0,0.0,0.0,0.0,0.0,0.0,0.0,0.0,0.0,0.0,0.0,0.0,0.0,0.0,0.0,0.0,0.0,0.0,0.0,0.0,0.0,0.0,0.0,0.0,0.0,0.0,0.0,0.0,0.0,0.0,0.0,0.0,0.0,0.0,0.0,0.0,0.0,0.0,0.0,0.0,0.0,0.0,0.0,0.0,0.0,0.0,0.0,0.0,0.0,0.0,0.0,0.0,0.0,0.0,0.0,0.0,0.0,0.0,0.0,0.0,0.0,0.0,0.0,0.0,0.0,0.0,-2.1691,-2.6766,-2.9654,-3.0392,-2.8307,-2.7625,-2.391,-1.5964,0.0,0.0,0.0,0.0,0.0,0.0,0.0,0.0,0.0,0.0,0.0,0.0,0.0,0.0,0.0,0.0,0.0,0.0,0.0,0.0,0.0,0.0,0.0,0.0,0.0,0.0,0.0,0.0,0.0,0.0,0.0,0.0,0.0,0.0,0.0,0.0,0.0,0.0,0.0,0.0,0.0,0.0,0.0,0.0,0.0,0.0,0.0,0.0,0.0,0.0,0.0,0.0,0.0,0.0,0.0,0.0,0.0,0.0,0.0,0.0,0.0,0.0,0.0,0.0,0.0,0.0,0.0,0.0,0.0,0.0,0.0,0.0,0.0,0.0,0.0,0.0,0.0,0.0,0.0,0.0,0.0,0.0,0.0,0.0,0.0,0.0,0.0,0.0,0.0,0.0,0.0,0.0,0.0,0.0,0.0,0.0,0.0,0.0,0.0,0.0,0.0,0.0,0.0,-1.6969,-2.3166,-2.6314,-2.753,-2.7776,-2.6944,-2.5834,-2.2062,-1.4728,-1.4733,0.0,0.0,0.0,0.0,0.0,0.0,0.0,0.0,0.0,0.0,0.0,0.0,0.0,0.0,0.0,0.0,0.0,0.0,0.0,0.0,0.0,0.0,0.0,0.0,0.0,0.0,0.0,0.0,0.0,0.0,0.0,0.0,0.0,0.0,0.0,0.0,0.0,0.0,0.0,0.0,0.0,0.0,0.0,0.0,0.0,0.0,0.0,0.0,0.0,0.0,0.0,0.0,0.0,0.0,0.0,0.0,0.0,0.0,0.0,0.0,0.0,0.0,0.0,0.0,0.0,0.0,0.0,0.0,0.0,0.0,0.0,0.0,0.0,0.0,0.0,0.0,0.0,0.0,0.0,0.0,0.0,0.0,0.0,0.0,0.0,0.0,0.0,0.0,0.0,0.0,0.0,0.0,0.0,0.0,0.0,0.0,0.0,0.0,0.0,0.0,0.0,0.0,-1.9012,-2.2918,-2.5546,-2.5558,-2.5407,-2.5415,-2.3728,-2.0033,-1.3867,-1.2831,0.0,0.0,0.0,0.0,0.0,0.0,0.0,0.0,0.0,0.0,0.0,0.0,0.0,0.0,0.0,0.0,0.0,0.0,0.0,0.0,0.0,0.0,0.0,0.0,0.0,0.0,0.0,0.0,0.0,0.0,0.0,0.0,0.0,0.0,0.0,0.0,0.0,0.0,0.0,0.0,0.0,0.0,0.0,0.0,0.0,0.0,0.0,0.0,0.0,0.0,0.0,0.0,0.0,0.0,0.0,0.0,0.0,0.0,0.0,0.0,0.0,0.0,0.0,0.0,0.0,0.0,0.0,0.0,0.0,0.0,0.0,0.0,0.0,0.0,0.0,0.0,0.0,0.0,0.0,0.0,0.0,0.0,0.0,0.0,0.0,0.0,0.0,0.0,0.0,0.0,0.0,0.0,0.0,0.0,0.0,0.0,0.0,0.0,0.0,0.0,0.0,0.0,-1.8851,-2.1343,-2.4397,-2.4729,-2.4396,-2.3476,-2.0735,-1.7188,-1.2772,-1.0548,0.0,0.0,0.0,0.0,0.0,0.0,0.0,0.0,0.0,0.0,0.0,0.0,0.0,0.0,0.0,0.0,0.0,0.0,0.0,0.0,0.0,0.0,0.0,0.0,0.0,0.0,0.0,0.0,0.0,0.0,0.0,0.0,0.0,0.0,0.0,0.0,0.0,0.0,0.0,0.0,0.0,0.0,0.0,0.0,0.0,0.0,0.0,0.0,0.0,0.0,0.0,0.0,0.0,0.0,0.0,0.0,0.0,0.0,0.0,0.0,0.0,0.0,0.0,0.0,0.0,0.0,0.0,0.0,0.0,0.0,0.0,0.0,0.0,0.0,0.0,0.0,0.0,0.0,0.0,0.0,0.0,0.0,0.0,0.0,0.0,0.0,0.0,0.0,0.0,0.0,0.0,0.0,0.0,0.0,0.0,0.0,0.0,0.0,0.0,0.0,0.0,0.0,-1.8458,-2.1746,0.0,-2.3644,-2.2858,-2.247,-1.9493,-1.5905,-1.1858,0.0,0.0,0.0,0.0,0.0,0.0,0.0,0.0,0.0,0.0,0.0,0.0,0.0,0.0,0.0,0.0,0.0,0.0,0.0,0.0,0.0,0.0,0.0,0.0,0.0,0.0,0.0,0.0,0.0,0.0,0.0,0.0,0.0,0.0,0.0,0.0,0.0,0.0,0.0,0.0,0.0,0.0,0.0,0.0,0.0,0.0,0.0,0.0,0.0,0.0,0.0,0.0,0.0,0.0,0.0,0.0,0.0,0.0,0.0,0.0,0.0,0.0,0.0,0.0,0.0,0.0,0.0,0.0,0.0,0.0,0.0,0.0,0.0,0.0,0.0,0.0,0.0,0.0,0.0,0.0,0.0,0.0,0.0,0.0,0.0,0.0,0.0,0.0,0.0,0.0,0.0,0.0,0.0,0.0,0.0,0.0,0.0,0.0,0.0,0.0,0.0,0.0,-1.4112,-1.844,-2.2236,0.0,-2.2733,-2.158,-2.1295,-1.7622,-1.4033,-1.0981,0.0,0.0,0.0,0.0,0.0,0.0,0.0,0.0,0.0,0.0,0.0,0.0,0.0,0.0,0.0,0.0,0.0,0.0,0.0,0.0,0.0,0.0,0.0,0.0,0.0,0.0,0.0,0.0,0.0,0.0,0.0,0.0,0.0,0.0,0.0,0.0,0.0,0.0,0.0,0.0,0.0,0.0,0.0,0.0,0.0,0.0,0.0,0.0,0.0,0.0,0.0,0.0,0.0,0.0,0.0,0.0,0.0,0.0,0.0,0.0,0.0,0.0,0.0,0.0,0.0,0.0,0.0,0.0,0.0,0.0,0.0,0.0,0.0,0.0,0.0,0.0,0.0,0.0,0.0,0.0,0.0,0.0,0.0,0.0,0.0,0.0,0.0,0.0,0.0,0.0,0.0,0.0,0.0,0.0,0.0,0.0,0.0,0.0,0.0,0.0,0.0,0.0,-1.4263,-1.8914,-2.2538,-2.3493,-2.2096,-2.0708,-1.9772,-1.4822,-1.1305,0.0,0.0,0.0,0.0,0.0,0.0,0.0,0.0,0.0,0.0,0.0,0.0,0.0,0.0,0.0,0.0,0.0,0.0,0.0,0.0,0.0,0.0,0.0,0.0,0.0,0.0,0.0,0.0,0.0,0.0,0.0,0.0,0.0,0.0,0.0,0.0,0.0,0.0,0.0,0.0,0.0,0.0,0.0,0.0,0.0,0.0,0.0,0.0,0.0,0.0,0.0,0.0,0.0,0.0,0.0,0.0,0.0,0.0,0.0,0.0,0.0,0.0,0.0,0.0,0.0,0.0,0.0,0.0,0.0,0.0,0.0,0.0,0.0,0.0,0.0,0.0,0.0,0.0,0.0,0.0,0.0,0.0,0.0,0.0,0.0,0.0,0.0,0.0,0.0,0.0,0.0,0.0,0.0,0.0,0.0,0.0,0.0,0.0,0.0,0.0,0.0,0.0,0.0,-1.3453,-1.8153,-2.1817,-2.2476,-2.1178,-1.9886,-1.9009,-1.4064,-1.0539,-0.9394,0.0,0.0,0.0,0.0,0.0,0.0,0.0,0.0,0.0,0.0,0.0,0.0,0.0,0.0,0.0,0.0,0.0,0.0,0.0,0.0,0.0,0.0,0.0,0.0,0.0,0.0,0.0,0.0,0.0,0.0,0.0,0.0,0.0,0.0,0.0,0.0,0.0,0.0,0.0,0.0,0.0,0.0,0.0,0.0,0.0,0.0,0.0,0.0,0.0,0.0,0.0,0.0,0.0,0.0,0.0,0.0,0.0,0.0,0.0,0.0,0.0,0.0,0.0,0.0,0.0,0.0,0.0,0.0,0.0,0.0,0.0,0.0,0.0,0.0,0.0,0.0,0.0,0.0,0.0,0.0,0.0,0.0,0.0,0.0,0.0,0.0,0.0,0.0,0.0,0.0,0.0,0.0,0.0,0.0,0.0,0.0,0.0,0.0,0.0,0.0,0.0,0.0,-1.3529,-1.7663,-2.0924,-2.1636,-2.0322,-1.883,-1.7373,-1.3205,-1.0076,-0.8729,0.0,0.0,0.0,0.0,0.0,0.0,0.0,0.0,0.0,0.0,0.0,0.0,0.0,0.0,0.0,0.0,0.0,0.0,0.0,0.0,0.0,0.0,0.0,0.0,0.0,0.0,0.0,0.0,0.0,0.0,0.0,0.0,0.0,0.0,0.0,0.0,0.0,0.0,0.0,0.0,0.0,0.0,0.0,0.0,0.0,0.0,0.0,0.0,0.0,0.0,0.0,0.0,0.0,0.0,0.0,0.0,0.0,0.0,0.0,0.0,0.0,0.0,0.0,0.0,0.0,0.0,0.0,0.0,0.0,0.0,0.0,0.0,0.0,0.0,0.0,0.0,0.0,0.0,0.0,0.0,0.0,0.0,0.0,0.0,0.0,0.0,0.0,0.0,0.0,0.0,0.0,0.0,0.0,0.0,0.0,0.0,0.0,0.0,0.0,0.0,0.0,0.0,-1.4059,-1.7311,-1.9972,-2.0881,-1.9472,-1.7586,-1.5353,-1.2353,-0.9854,-0.818,0.0,0.0,0.0,0.0,0.0,0.0,0.0,0.0,0.0,0.0,0.0,0.0,0.0,0.0,0.0,0.0,0.0,0.0,0.0,0.0,0.0,0.0,0.0,0.0,0.0,0.0,0.0,0.0,0.0,0.0,0.0,0.0,0.0,0.0,0.0,0.0,0.0,0.0,0.0,0.0,0.0,0.0,0.0,0.0,0.0,0.0,0.0,0.0,0.0,0.0,0.0,0.0,0.0,0.0,0.0,0.0,0.0,0.0,0.0,0.0,-1.5747,0.0,0.0,0.0,0.0,0.0,0.0,0.0,0.0,0.0,0.0,0.0,0.0,0.0,0.0,0.0,0.0,0.0,0.0,0.0,0.0,0.0,0.0,0.0,0.0,0.0,0.0,0.0,0.0,0.0,0.0,0.0,0.0,0.0,0.0,0.0,0.0,0.0,0.0,0.0,0.0,0.0,-1.3246,-1.6576,-1.9259,-1.9987,-1.8172,-1.6364,-1.5071,-1.2186,-0.9692,-0.7905,-0.6209,0.0,0.0,0.0,0.0,0.0,0.0,0.0,0.0,0.0,0.0,0.0,0.0,0.0,0.0,0.0,0.0,0.0,0.0,0.0,0.0,0.0,0.0,0.0,0.0,0.0,0.0,0.0,0.0,0.0,0.0,0.0,0.0,0.0,0.0,0.0,0.0,0.0,0.0,0.0,0.0,0.0,0.0,0.0,0.0,0.0,0.0,0.0,0.0,0.0,0.0,0.0,0.0,0.0,0.0,0.0,0.0,0.0,0.0,0.0,0.0,-1.7503,0.0,0.0,0.0,0.0,0.0,0.0,0.0,0.0,0.0,0.0,0.0,0.0,0.0,0.0,0.0,0.0,0.0,0.0,0.0,0.0,0.0,0.0,0.0,0.0,0.0,0.0,0.0,0.0,0.0,0.0,0.0,0.0,0.0,0.0,0.0,0.0,0.0,0.0,0.0,0.0,-1.2955,-1.6541,-1.9178,-1.9269,-1.8152,-1.6606,-1.458,-1.229,-1.0051,-0.7895,-0.6307,0.0,0.0,0.0,0.0,0.0,0.0,0.0,0.0,0.0,0.0,0.0,0.0,0.0,0.0,0.0,0.0,0.0,0.0,0.0,0.0,0.0,0.0,0.0,0.0,0.0,0.0,0.0,0.0,0.0,0.0,0.0,0.0,0.0,0.0,0.0,0.0,0.0,0.0,0.0,0.0,0.0,0.0,0.0,0.0,0.0,0.0,0.0,0.0,0.0,0.0,0.0,0.0,0.0,-2.1964,-2.1876,-2.2032,-2.1682,-2.1292,-2.0896,-2.1872,-2.1814,-2.094,-1.9777,0.0,0.0,0.0,0.0,0.0,0.0,0.0,0.0,0.0,0.0,0.0,0.0,0.0,0.0,0.0,0.0,0.0,0.0,0.0,0.0,0.0,0.0,0.0,0.0,-1.8052,-1.7128,-1.6859,0.0,0.0,0.0,0.0,0.0,0.0,0.0,0.0,0.0,0.0,0.0,-1.2913,-1.6554,-1.9072,-1.8749,-1.8259,-1.6835,-1.4073,-1.2431,-1.0459,-0.7914,-0.6378,-0.5191,0.0,0.0,0.0,0.0,0.0,0.0,0.0,0.0,0.0,0.0,0.0,0.0,0.0,0.0,0.0,0.0,0.0,0.0,0.0,0.0,0.0,0.0,0.0,0.0,0.0,0.0,0.0,0.0,0.0,0.0,0.0,0.0,-1.4994,-1.6663,0.0,0.0,0.0,0.0,0.0,0.0,0.0,0.0,0.0,0.0,0.0,0.0,0.0,-2.2528,-2.2987,-2.5307,-2.6581,-2.6763,-2.7666,-2.8555,-2.9359,-2.8465,-2.8112,-2.8103,-2.6509,0.0,-2.2345,-2.2142,0.0,0.0,0.0,0.0,0.0,0.0,0.0,0.0,0.0,0.0,0.0,0.0,0.0,0.0,0.0,0.0,0.0,0.0,0.0,0.0,0.0,0.0,-2.391,-2.3603,-2.1717,-2.0552,0.0,-1.7424,-1.299,-1.5303,-1.4544,0.0,0.0,0.0,0.0,0.0,0.0,0.0,-1.2992,-1.5922,-1.8231,-1.8726,-1.6998,-1.5218,-1.3758,-1.2238,-1.0246,-0.7692,-0.6746,-0.5643,-0.4272,-0.6174,0.0,0.0,0.0,0.0,0.0,0.0,0.0,0.0,0.0,0.0,0.0,0.0,0.0,0.0,0.0,0.0,0.0,0.0,0.0,0.0,0.0,0.0,0.0,0.0,0.0,0.0,0.0,0.0,0.0,-1.5604,-1.7769,-1.6258,-1.8362,-1.9135,0.0,0.0,0.0,0.0,0.0,0.0,0.0,0.0,0.0,-2.4162,-2.6022,-2.7182,-2.7515,-2.9832,-3.0974,-3.0922,-3.1409,-3.1671,-3.1669,-3.1092,-3.0509,-2.9868,-2.8822,-2.7607,-2.6271,-2.4394,-2.3694,-2.3621,0.0,0.0,0.0,0.0,-1.7884,-1.8059,-1.7695,-1.8908,-2.0359,-1.8634,0.0,0.0,0.0,0.0,0.0,0.0,0.0,0.0,0.0,0.0,-2.3903,-2.5492,-2.458,-2.3801,-2.5367,-2.101,-1.7116,0.0,-1.6574,-1.4533,-1.3007,0.0,0.0,0.0,0.0,-1.6251,-1.5706,-1.7956,-1.9576,-1.9542,-1.8548,-1.7082,-1.5114,-1.3122,-1.0891,-0.833,-0.6666,-0.5319,-0.4294,-0.5959,-0.6498,0.0,0.0,0.0,0.0,0.0,0.0,0.0,0.0,0.0,0.0,0.0,0.0,0.0,0.0,0.0,0.0,0.0,0.0,0.0,0.0,0.0,0.0,0.0,0.0,0.0,0.0,0.0,0.0,-1.8073,-1.986,-1.6701,-2.0095,-2.1639,0.0,0.0,0.0,0.0,0.0,0.0,-2.4427,-2.5295,-2.6379,-2.7727,-3.0198,-3.1593,-3.1776,-3.3545,-3.4298,-3.3981,-3.365,-3.3259,-3.2792,-3.2291,-3.1637,-3.0874,-3.0503,-3.012,-2.955,-2.6563,-2.5373,-2.5349,-2.4039,-2.3225,-2.2641,-2.1391,-2.0942,-2.0954,-2.0725,-2.2252,-2.3883,-2.133,-2.1094,-2.1221,-1.8183,0.0,0.0,0.0,0.0,-1.8474,-2.0852,-2.2282,-2.3766,-2.6369,-2.6424,-2.6073,-2.6668,-2.3541,-2.0711,0.0,-1.9097,-1.6647,-1.4599,0.0,0.0,0.0,0.0,-1.882,-1.79,-1.9559,-2.064,-2.0182,-1.9563,-1.8395,-1.6473,-1.4284,-1.1841,-0.9131,-0.7181,-0.5578,-0.4333,-0.535,-0.559,-0.4844,0.0,0.0,0.0,0.0,0.0,0.0,0.0,0.0,0.0,0.0,0.0,0.0,0.0,0.0,0.0,0.0,0.0,0.0,0.0,0.0,0.0,0.0,0.0,0.0,0.0,0.0,0.0,0.0,0.0,-2.0545,-2.5505,0.0,0.0,0.0,0.0,-2.2978,-2.4358,-2.6331,-2.8651,-2.9538,-3.1372,-3.4417,-3.4692,-3.5193,-3.6071,-3.6162,-3.5887,-3.5288,-3.4082,-3.3648,-3.388,-3.278,-3.2462,-3.2741,-3.2076,-3.1429,-3.0678,-2.865,-2.7941,-2.7876,-2.5592,-2.458,-2.4104,-2.1824,-2.2459,-2.4331,-2.3495,-2.4882,-2.687,-2.6004,-2.3299,-1.9938,-1.7406,-1.6588,0.0,0.0,-1.8402,-2.1399,-2.0737,-2.3595,-2.6693,-2.685,-2.6815,-2.675,-2.6786,-2.3975,-2.1926,0.0,-2.1797,-1.9894,-1.9561,0.0,-1.9631,-1.6077,-1.7672,-1.8965,-1.81,-1.9353,-2.03,-2.021,-1.8592,-1.7426,-1.7165,-1.5466,-1.3034,-0.9848,-0.8891,-0.716,-0.433,-0.4333,-0.5011,-0.6276,-0.5118,0.0,0.0,0.0,0.0,0.0,0.0,0.0,0.0,0.0,0.0,0.0,0.0,0.0,0.0,0.0,0.0,0.0,0.0,0.0,0.0,0.0,0.0,0.0,0.0,0.0,0.0,0.0,0.0,-2.545,-2.8438,0.0,-2.6751,-2.8383,-2.9102,-2.7862,-2.9701,-3.152,-3.2893,-3.3276,-3.441,-3.6541,-3.664,-3.7059,-3.7856,-3.786,-3.7728,-3.7507,-3.6549,-3.5885,-3.5487,-3.3963,-3.2862,-3.2152,-3.1296,-3.063,-3.0076,-2.9326,-2.912,-2.9165,-2.8257,-2.7857,-2.768,-2.6782,-2.6697,-2.6903,-2.607,-2.6386,-2.6933,-2.5766,-2.3777,-2.1694,-2.0903,-2.0655,-2.0713,-2.1041,-2.2226,-2.3475,-2.3766,-2.4976,-2.6135,-2.6135,-2.6031,-2.5977,-2.6012,-2.496,-2.4186,-2.4821,-2.2365,-2.0318,-2.0668,-2.1833,-2.1818,-1.9225,-2.0901,-2.2264,-2.1733,-2.1287,-2.0969,-2.0923,-1.938,-1.8093,-1.7444,-1.5767,-1.3362,-1.0091,-0.8679,-0.6849,-0.4365,-0.429,-0.4531,-0.5036,-0.4618,-0.4815,0.0,0.0,0.0,0.0,0.0,0.0,0.0,0.0,0.0,0.0,0.0,0.0,0.0,0.0,0.0,0.0,0.0,0.0,0.0,0.0,0.0,0.0,0.0,0.0,0.0,0.0,-2.7286,-2.8328,-3.1185,-3.2293,-3.0302,-3.2206,-3.3252,-3.2502,-3.3943,-3.5274,-3.6292,-3.6371,-3.6955,-3.82,-3.83,-3.8542,-3.9027,-3.882,-3.8447,-3.7911,-3.7364,-3.6548,-3.5515,-3.4054,-3.2784,-3.1677,-3.0783,-3.0131,-2.9681,-2.9626,-2.9673,-2.979,-2.9683,-2.9626,-2.9626,-2.9579,-2.9232,-2.868,-2.7941,-2.7318,-2.6748,-2.5861,-2.4697,-2.3619,-2.3398,-2.3541,-2.3855,-2.4208,-2.4505,-2.4883,-2.5525,-2.5699,-2.5708,-2.5708,-2.5603,-2.5511,-2.559,-2.5043,-2.4714,-2.5286,-2.3529,-2.177,-2.1306,-2.2103,-2.202,-1.973,-2.0549,-2.1424,-2.1416,-2.0445,-1.9849,-2.0056,-1.9226,-1.8436,-1.7842,-1.5862,-1.3433,-1.0558,-0.8592,-0.6543,-0.4362,-0.4311,-0.4328,-0.4328,-0.4391,-0.4813,-0.5585,0.0,0.0,0.0,0.0,0.0,0.0,0.0,0.0,0.0,0.0,0.0,0.0,0.0,0.0,0.0,0.0,0.0,0.0,0.0,0.0,0.0,0.0,0.0,-2.2915,-2.6817,-2.9486,-2.9305,-3.395,-3.5939,-3.2839,-3.5749,-3.7503,-3.6662,-3.6724,-3.7414,-3.8795,-3.8762,-3.9013,-3.9644,-3.9662,-3.9644,-3.9644,-3.9009,-3.7963,-3.6472,-3.6397,-3.5515,-3.3963,-3.3038,-3.2231,-3.1547,-3.0724,-3.012,-2.9692,-2.9636,-2.9701,-2.9799,-2.9729,-2.9711,-2.9711,-2.9711,-2.9701,-2.9577,-2.8951,-2.7771,-2.6558,-2.6664,-2.6167,-2.5379,-2.4506,-2.484,-2.5377,-2.4592,-2.4997,-2.5664,-2.5743,-2.5759,-2.5738,-2.5738,-2.5646,-2.5567,-2.5634,-2.4238,-2.3463,-2.5128,-2.5346,-2.4441,-2.186,-2.135,-2.0436,-1.7819,-1.6776,0.0,-1.7043,-1.6904,-1.7026,-1.7732,-1.7971,-1.818,-1.8406,-1.5763,-1.3259,-1.1237,-0.878,-0.6438,-0.4294,-0.4314,-0.4378,-0.4381,-0.4468,-0.5525,-0.7599,0.0,0.0,0.0,0.0,0.0,0.0,0.0,0.0,0.0,0.0,0.0,0.0,0.0,0.0,0.0,0.0,0.0,0.0,0.0,0.0,0.0,-2.4551,-2.7001,-2.6572,-3.0243,-3.3557,-3.5178,-3.7466,-3.8579,-3.7682,-3.821,-3.8711,-3.9024,-3.9073,-3.9503,-4.0428,-3.9436,-3.8944,-3.911,-3.8545,-3.8239,-3.8188,-3.8659,-3.8685,-3.8217,-3.7797,-3.6989,-3.58,-3.3747,-3.2305,-3.1385,-3.0087,-2.9572,-2.9634,-2.9699,-2.9825,-2.9934,-2.9765,-2.9756,-2.9844,-2.9844,-2.9542,-2.8928,-2.7535,-2.7221,-2.7349,-2.6814,-2.6501,-2.6202,-2.5325,-2.5681,-2.6323,-2.6152,-2.6295,-2.6631,-2.7337,-2.7078,-2.6648,-2.6648,-2.6572,-2.6527,-2.6537,-2.5615,-2.5101,-2.6193,-2.5339,-2.4351,-2.4094,-2.391,-2.3531,-2.2697,-2.2338,0.0,-2.2114,-2.0933,-2.0156,-2.0363,-1.7595,-1.6554,-1.8601,-1.4575,-1.1804,-1.1471,-0.9004,-0.6568,-0.4368,-0.4124,-0.4057,-0.4105,-0.4422,-0.4849,0.0,0.0,0.0,0.0,0.0,0.0,0.0,0.0,0.0,0.0,0.0,0.0,0.0,0.0,0.0,0.0,0.0,0.0,0.0,0.0,0.0,0.0,-2.8191,-3.1105,-3.1864,-3.4111,-3.6464,-3.86,-3.9803,-4.0408,-4.0211,-4.0294,-4.0535,-4.0967,-4.0812,-4.1009,-4.173,-4.1033,-4.0284,-3.9546,-3.9402,-3.8984,-3.8234,-3.8827,-3.8762,-3.802,-3.7709,-3.6901,-3.5615,-3.3848,-3.256,-3.1667,-3.0381,-2.9793,-2.9731,-2.9777,-2.9883,0.0,0.0,0.0,0.0,0.0,-2.9516,-2.8804,-2.7828,-2.7637,-2.7766,-2.73,-2.7162,-2.7107,-2.6635,-2.6107,-2.5665,-2.5732,-2.4975,-2.4545,-2.6184,-2.6263,-2.619,-2.7287,-2.7461,-2.7313,-2.6962,-2.5879,-2.5111,-2.5648,-2.4314,0.0,-2.4024,-2.3362,-2.2456,-2.1634,-2.1182,-2.089,-2.0731,-2.0012,-1.9489,-1.9483,-1.7351,-1.6578,-1.8172,-1.4137,0.0,0.0,0.0,-0.6077,-0.4259,-0.4027,0.0,0.0,0.0,-0.5445,-0.4471,0.0,0.0,0.0,-0.726,-0.6896,0.0,0.0,0.0,0.0,0.0,0.0,0.0,0.0,0.0,0.0,0.0,0.0,0.0,0.0,0.0,0.0,-3.151,-3.4632,-3.7702,-3.813,-3.8669,-4.0182,-4.1124,-4.156,-4.12,-4.1934,-4.2439,-4.2515,-4.2153,-4.2181,-4.2798,0.0,0.0,0.0,0.0,-4.0654,-3.9173,-3.936,-3.8633,-3.6957,-3.7075,-3.6245,-3.4532,-3.3739,-3.2981,-3.2266,-3.1284,-3.0603,-3.0164,-3.0101,-3.0189,-3.0296,-3.0095,-2.9992,-2.9924,-2.9809,-2.9511,-2.9123,-2.8937,0.0,0.0,-2.8092,-2.8053,-2.8049,-2.801,-2.649,-2.4794,-2.487,-2.3177,-2.1914,-2.4341,-2.4837,-2.5285,-2.7593,-2.8051,-2.7773,-2.705,-2.5568,-2.4405,-2.4552,-2.3081,-2.2077,-2.279,-2.1474,-1.9743,-1.8029,-1.7229,-1.6802,-1.6802,-1.7088,-1.7302,-1.734,0.0,0.0,-1.7524,-1.4066,-1.2439,-1.371,-0.9032,-0.5712,-0.4559,-0.4529,-0.4606,-0.4757,-0.6916,-0.7039,-0.5033,-0.9334,-1.0427,-0.8531,-0.9763,-1.0199,0.0,0.0,0.0,0.0,0.0,0.0,0.0,0.0,0.0,0.0,0.0,0.0,0.0,0.0,0.0,-3.2097,-3.5526,-3.854,-4.104,-4.1397,-4.1212,-4.0753,-4.126,-4.1794,-4.2261,-4.2406,-4.2709,-4.3238,-4.3246,-4.3361,-4.3656,-4.253,-4.1838,-4.1768,-4.0565,-3.9739,-3.9421,-4.0146,-3.9652,-3.7933,0.0,0.0,-3.5577,-3.4779,-3.3907,-3.2946,-3.2166,-3.1826,-3.1843,-3.1889,-3.2001,-3.2039,-3.0696,-3.0148,-2.9995,-2.876,-2.9083,-2.9931,-2.8576,-2.8904,-2.9806,-2.9159,-2.8958,-2.8839,-2.8186,-2.815,0.0,-2.8396,-2.755,-2.6919,-2.8197,-2.7519,-2.6615,-2.7138,-2.7235,-2.7169,-2.6957,-2.6076,-2.5524,-2.6194,-2.4345,-2.2889,-2.3571,-2.3234,-2.2533,-2.1463,-2.1603,-2.1821,-2.1821,-2.0596,-1.9988,-2.0684,-1.77,-1.6251,-1.7694,-1.3418,-1.1346,-1.299,-1.0094,-0.8116,-0.7644,-0.7737,-0.7737,-0.7616,-0.8857,-0.9279,-0.885,-1.1983,-1.3308,-1.2837,-1.1262,-1.0455,0.0,0.0,0.0,0.0,0.0,0.0,0.0,0.0,0.0,0.0,0.0,-2.2724,-2.5587,0.0,-3.1738,-3.5705,-3.8039,-4.0182,-4.2573,-4.2198,-4.1497,-4.1004,-4.1728,-4.2229,-4.2171,-4.263,-4.3108,-4.3478,-4.3565,-4.373,-4.4033,-4.3378,-4.2766,-4.2277,-4.1831,-4.0988,-3.9712,-4.0561,-4.0146,-3.8448,-3.8556,-3.7707,-3.6048,-3.5601,-3.49,-3.4038,-3.3633,-3.325,-3.2921,-3.2551,-3.252,-3.2626,-3.1773,-3.1228,-3.0809,-3.0047,-3.0008,-3.0232,-2.9382,-2.939,-2.9752,-2.9781,-2.9217,-2.8593,-2.9143,-2.8384,-2.7466,-2.7994,-2.6922,-2.5912,-2.7259,-2.6972,-2.6562,-2.7438,-2.7611,-2.7465,-2.6995,-2.6569,-2.6104,-2.5646,-2.4493,-2.3573,-2.3469,-2.327,-2.293,-2.2308,-2.2462,-2.2492,-2.2009,-2.1129,-2.0583,-2.0646,-1.8276,-1.6882,-1.7315,-1.4522,-1.2484,-1.1882,-1.1021,-0.9942,-0.8567,-0.8569,-0.878,-0.9138,-1.0798,-1.1275,-1.0511,-1.42,-1.5452,-1.4398,-1.4231,-1.3923,0.0,0.0,0.0,0.0,0.0,0.0,0.0,0.0,-2.0718,-2.3218,-2.4665,-2.6487,-2.9859,-3.24,-3.5169,-3.8683,-3.9773,-4.0951,-4.32,-4.1984,-4.0877,-4.0877,-4.1767,-4.2247,-4.1922,-4.2831,-4.348,-4.3583,-4.3812,-4.4056,-4.4269,-4.4379,-4.3892,-4.2685,-4.317,-4.2382,-4.0154,-4.0825,-4.0238,-3.8431,-3.786,-3.7019,-3.5959,-3.5881,-3.5512,-3.4908,-3.4978,-3.4646,-3.4007,-3.3356,-3.3104,-3.3118,-3.3145,-3.2695,-3.2008,-3.1882,-3.1283,-3.0541,-3.0541,-3.0023,-2.9453,-3.0155,-2.9438,-2.8552,-2.9934,-2.8516,-2.6579,-2.7229,-2.593,-2.4672,-2.6071,-2.6209,-2.6308,-2.7715,-2.7886,-2.7524,-2.6824,-2.666,-2.6235,-2.4829,-2.4554,-2.428,-2.3398,-2.3239,-2.2944,-2.2058,-2.1896,-2.16,-2.0812,-2.0574,-2.0311,-1.9908,-1.9017,-1.8015,-1.6904,-1.5972,-1.4357,-1.1804,-1.2442,-1.202,-1.0062,-0.9912,-1.0231,-1.0968,-1.2991,-1.3405,-1.2133,-1.5997,-1.6986,-1.5351,-1.698,-1.738,-1.7609,-1.67,0.0,-1.7152,-1.8659,-2.0456,0.0,0.0,-2.6554,-2.8117,-3.0404,-3.2702,-3.4612,-3.6807,-3.885,-4.0579,-4.1012,-4.1733,-4.3358,-4.1524,-4.0019,-4.0019,-4.0358,-4.1121,-4.2478,-4.3194,-4.3646,-4.3849,-4.4687,-4.5025,-4.4589,-4.4578,-4.4252,-4.3576,-4.2905,-4.2048,-4.0969,-4.1005,-3.9818,-3.747,-3.8007,-3.7155,-3.5058,-3.5048,-3.4992,-3.4935,-3.553,-3.5738,-3.563,-3.5614,-3.5186,-3.4585,-3.4754,-3.431,-3.3478,-3.2881,-3.2145,-3.1455,-3.1455,-3.0887,-3.019,-3.0279,-3.021,-3.0036,-2.9582,-2.9757,-2.9975,-2.9379,-2.9009,-2.8831,-2.9021,-2.7969,-2.6899,-2.7108,-2.6542,-2.5957,-2.5856,-2.5785,-2.5684,-2.5492,-2.545,-2.5152,-2.4232,-2.4681,-2.4307,-2.1696,-2.1192,-2.104,-2.0823,-2.0177,-1.9983,-2.0674,-1.9968,-1.876,-1.7024,-1.6512,-1.5796,-1.47,-1.5107,-1.5356,-1.5254,-1.4956,-1.4832,-1.4869,-1.5765,-1.6095,-1.5811,-1.7104,-1.7659,-1.7548,-1.7764,-1.7681,-1.9702,0.0,0.0,0.0,-2.2888,-2.4895,-2.6443,-2.7705,-2.9094,-3.1013,-3.3401,-3.5601,-3.7222,-3.9,-4.0869,0.0,-4.2417,-4.2241,-4.3265,-4.1393,-3.9517,-3.8496,-3.7041,-3.719,-3.9943,-4.1191,-4.2064,-4.2571,-4.3616,-4.4349,-4.4597,-4.4527,-4.4244,-4.3708,-4.336,-4.2515,-4.1166,-4.1089,-4.028,-3.8738,-3.855,-3.7947,-3.699,-3.6958,-3.6914,-3.6844,-3.6193,-3.6167,-3.6566,-3.6111,-3.6045,-3.6157,-3.5767,-3.5477,-3.5111,-3.3929,-3.2996,-3.2302,-3.2302,-3.1734,-3.0994,-3.1047,-3.0424,-2.9682,-2.9926,-2.9974,-2.9985,-3.0158,-3.0192,-3.0085,-2.9628,-2.8608,-2.7587,-2.7117,-2.6323,-2.5702,-2.5702,-2.568,-2.5652,-2.5662,-2.603,-2.6072,-2.5214,-2.5349,-2.4946,-2.3163,-2.271,-2.2338,-2.17,-2.0879,-2.0318,-2.0217,-1.9425,-1.8564,-1.7734,-1.7038,-1.6409,-1.5879,-1.5966,-1.6045,-1.6107,-1.5937,-1.5955,-1.618,-1.6584,-1.6898,-1.716,-1.7597,-1.7861,-1.7955,-1.7999,-1.7949,-2.084,0.0,0.0,-2.4459,-2.6197,-2.8077,-3.0053,-3.0493,-3.1187,-3.3567,-3.5586,-3.7306,-3.8475,-3.9859,-4.1381,-4.3078,-4.2239,-4.1683,-4.2617,-4.0356,-3.8164,-3.695,-3.4035,-3.3204,-3.5941,-3.8201,-4.0236,-4.196,-4.2939,-4.3826,-4.464,-4.4589,-4.4165,-4.3367,-4.3341,-4.2533,-4.0825,-4.0772,-4.0284,-3.9418,-3.8769,-3.835,-3.8143,-3.8086,-3.8153,-3.8268,-3.7088,-3.6889,-3.738,-3.6798,-3.6788,-3.7111,-3.6537,-3.6419,-3.6435,-3.5081,-3.3963,-3.3127,-3.3127,-3.2553,-3.1795,-3.1606,-3.0759,-2.9869,-3.0071,-2.9958,-2.9791,-2.9952,-3.035,-3.0514,-2.9701,-2.9033,-2.8408,-2.7829,-2.6842,-2.6067,-2.6054,-2.5878,-2.5698,-2.5702,-2.6344,-2.6638,-2.5835,-2.6048,-2.5915,-2.4694,-2.4514,-2.3979,-2.2451,-2.1477,-2.0697,-2.0119,-1.9289,-1.8659,-1.8301,-1.7776,-1.7286,-1.6874,-1.6876,-1.6862,-1.6817,-1.6727,-1.6818,-1.7105,-1.7147,-1.735,-1.7738,-1.7772,-1.7845,-1.795,-1.7999,-1.8091,0.0,0.0,-2.2922,-2.5798,-2.7162,-2.8642,-3.1942,-3.2757,-3.3541,-3.6154,-3.7414,-3.8116,-3.8371,-3.9357,-4.0139,-4.0229,-3.953,-3.9548,-4.1144,-3.79,-3.5398,-3.553,-3.2095,-2.9947,0.0,-3.4383,-3.8549,-4.2735,-4.3454,-4.4037,-4.4845,-4.4883,-4.4125,-4.2477,-4.2439,-4.1601,-3.986,-3.9841,-3.9369,-3.8437,-3.8406,-3.7992,-3.7239,-3.7228,-3.7661,-3.839,-3.8286,-3.8244,-3.8263,-3.8244,-3.7774,-3.7103,-3.7081,-3.7195,-3.7268,-3.6376,-3.5161,-3.3956,-3.3956,-3.3394,-3.2527,-3.1675,-3.1495,-3.1316,-2.9727,-2.99,-3.0327,-2.8721,-2.9446,-3.0514,-2.9708,-2.9489,-2.9452,-2.9428,-2.8157,-2.696,-2.6961,-2.6309,-2.5694,-2.5694,-2.6346,-2.6641,-2.5833,-2.7051,-2.7542,-2.5814,-2.6164,-2.5588,-2.2759,-2.1576,-2.0996,-2.0962,-2.0245,-1.9406,-1.8552,-1.8883,-1.879,-1.8002,-1.8366,-1.8626,-1.8626,-1.8502,-1.8336,-1.8153,-1.7904,-1.7783,-1.78,-1.7617,-1.7617,-1.7811,-1.7861,-1.7977,0.0,0.0,-2.6979,-2.9489,-3.109,-3.2585,-3.4651,-3.4727,-3.4514,-3.5018,-3.4985,-3.4769,-3.4481,-3.4923,-3.6166,-3.8754,-3.7793,-3.7738,-4.0681,-3.7953,-3.5325,-3.4424,-3.2234,0.0,0.0,0.0,0.0,-3.8117,-4.0315,-4.2239,-4.387,-4.4014,-4.3484,-4.2301,-4.1782,-4.0957,-3.9754,-3.9738,-3.959,-3.926,-3.9224,-3.9038,-3.8733,-3.8733,-3.884,-3.9027,-3.8471,-3.8558,-3.9064,-3.8465,-3.8408,-3.8621,-3.8016,-3.7863,-3.7834,-3.6516,-3.5769,-3.5352,-3.4944,-3.4596,-3.411,-3.2668,-3.2276,-3.2077,-3.0483,-3.026,-3.0467,-2.9994,-3.0257,-3.0636,-3.0377,-2.9902,-2.9488,-2.9435,-2.8186,-2.6993,-2.7001,-2.6323,-2.5703,-2.5699,-2.6342,-2.6646,-2.5845,-2.6601,-2.6901,-2.5656,-2.564,-2.5163,-2.3486,-2.2987,-2.2343,-2.1198,-2.0853,-2.0351,-1.9376,-1.9357,-1.9261,-1.8886,-1.8836,-1.8834,-1.8843,-1.8657,-1.8426,-1.8139,-1.8093,-1.8014,-1.7939,-1.7822,-1.7856,-1.8005,-1.7839,-1.785,0.0,-2.7443,-3.0452,-3.2779,-3.3968,-3.4747,-3.5465,-3.484,-3.3951,-3.3287,-3.2788,-3.2249,-3.1462,-3.1538,-3.2731,-3.5809,-3.492,-3.5223,-3.9158,-3.6843,-3.4663,-3.4405,-3.2513,-3.1714,0.0,0.0,0.0,-3.6111,-3.8677,-4.0847,-4.2554,-4.2968,-4.2982,-4.2674,-4.1899,-4.1069,-4.0172,-3.9854,-3.9837,-4.0089,-4.004,-3.9964,-3.9887,-3.9588,-3.9145,-3.8621,-3.8621,-3.8658,-3.8707,-3.8646,-3.8977,-3.9426,-3.882,-3.8471,-3.8174,-3.6878,-3.6291,-3.6074,-3.5406,-3.4965,-3.4478,-3.3096,-3.2498,-3.2071,-3.0813,-3.0492,-3.0517,-3.0291,-3.0454,-3.0625,-3.0321,-3.0082,-2.992,-2.9861,-2.8837,-2.787,-2.7881,-2.7208,-2.658,-2.6581,-2.7018,-2.7116,-2.6305,-2.6596,-2.6819,-2.6447,-2.6353,-2.5824,-2.4417,-2.396,-2.3316,-2.2149,-2.1543,-2.0963,-2.0295,-1.9831,-1.9518,-1.9376,-1.9162,-1.899,-1.8896,-1.8788,-1.8715,-1.8742,-1.8388,-1.8311,-1.8547,-1.8135,-1.7955,-1.8005,-1.815,-1.8246,-2.8049,-3.0836,-3.3155,-3.5489,-3.5638,-3.5059,-3.4486,-3.3306,-3.2049,-3.1097,-3.0899,-3.0536,0.0,0.0,-2.9858,-3.1708,-3.1189,-3.2181,-3.6826,-3.4833,-3.3611,0.0,0.0,0.0,0.0,0.0,0.0,-3.6785,0.0,-4.0061,-4.115,-4.1929,-4.2693,-4.3473,-4.2605,-4.1794,-4.1059,-4.0236,-4.0157,-4.0797,-4.077,-4.0723,-4.0624,-3.9858,-3.874,-3.7442,-3.8846,-3.8677,-3.7505,-3.8846,-3.9431,-3.9482,-3.9418,-3.9015,-3.8345,-3.7474,-3.6823,-3.6274,-3.5437,-3.4589,-3.3739,-3.3001,-3.2287,-3.158,-3.0854,-3.072,-3.0657,-2.9825,-3.0167,-3.0568,-2.9732,-3.0113,-3.0695,-3.0707,-3.0036,-2.9427,-2.9485,-2.8816,-2.8194,-2.8203,-2.8198,-2.7952,-2.7194,-2.7067,-2.7323,-2.8099,-2.8191,-2.7493,-2.5524,-2.4549,-2.3938,-2.3687,-2.2277,-2.1304,-2.1158,-2.0258,-1.965,-1.9513,-1.9383,-1.9196,-1.893,-1.8949,-1.9273,-1.9888,-1.887,-1.8718,-1.9506,-1.8547,-1.8012,-1.7912,-1.8716,-1.9045,-3.0641,-3.3149,-3.561,-3.6823,-3.6152,-3.5008,-3.4209,-3.2443,-3.0448,-2.8572,-2.7497,-2.647,0.0,0.0,0.0,-3.1121,-3.0111,0.0,-3.779,-3.6939,0.0,-3.7374,0.0,-3.682,-3.6879,-3.7451,0.0,0.0,-3.8566,-4.0132,-4.2393,-4.2747,-4.3045,-4.3348,-4.1958,-4.1393,-4.1737,-4.1531,-4.1191,-4.0725,-4.1325,-4.1525,-4.1404,-4.1199,-4.0561,-3.9624,-4.0039,-3.965,-3.8745,-3.9199,-3.936,-3.9269,-3.9256,-3.9152,-3.8906,-3.8128,-3.7784,-3.7521,-3.6224,-3.5296,-3.4571,-3.3821,-3.3467,-3.3195,-3.2567,-3.2389,-3.2386,-3.2268,-3.193,-3.155,-3.1321,-3.0983,-3.0703,-3.0703,-3.0021,-2.9404,-2.943,-2.8772,-2.82,-2.8194,-2.8242,-2.8213,-2.7994,-2.7963,-2.8048,-2.8237,-2.8223,-2.7739,-2.6404,-2.6084,-2.5206,-2.3169,-2.2538,-2.1762,-2.0483,-1.9953,-1.9695,-1.9656,-1.9525,-1.9361,-1.92,-1.969,-1.9939,-1.9969,-2.0131,-2.0037,-1.9719,-1.9271,-1.9109,-1.9209,-1.9081,-1.9377,-3.43,-3.6207,-3.7661,-3.746,-3.6233,-3.4504,-3.237,-3.014,-2.7924,-2.5796,-2.4883,0.0,-2.3293,0.0,0.0,0.0,0.0,0.0,-3.6272,-3.6334,-3.6611,0.0,-3.8903,0.0,-3.9959,-4.0294,-4.0404,0.0,-3.9823,-4.021,-4.1782,-4.231,-4.2941,-4.3704,-4.2581,-4.1969,-4.2004,-4.238,-4.2316,-4.1785,-4.1846,-4.2002,-4.2209,-4.1458,-4.0691,-4.0001,0.0,-4.0137,-3.8857,-3.957,-3.9624,-3.916,-3.8827,-3.8697,-3.8577,-3.784,-3.7623,-3.7566,-3.6735,-3.6209,-3.5702,-3.4344,-3.3693,-3.3391,-3.3086,-3.3042,-3.3098,-3.3184,-3.2824,-3.2432,-3.246,-3.2119,-3.1654,-3.1312,-3.0847,-3.0388,-3.001,-2.9599,-2.9303,-2.9334,-2.9062,-2.8959,-2.9339,-2.908,-2.8962,-2.9334,-2.9365,-2.8987,-2.7997,-2.7203,-2.6161,-2.4619,-2.3419,-2.2335,-2.1331,-2.0378,-1.9792,-1.9713,-1.9624,-1.9683,-1.9918,-2.0213,-2.0643,-2.1222,-2.0753,-2.0451,-2.0324,-1.9823,-1.9591,-1.9626,-1.9947,-2.0372,-3.7826,-3.9009,-3.9123,-3.7636,-3.5994,-3.3792,-3.0099,-2.7517,-2.5348,-2.3412,0.0,-2.3171,-2.2978,-2.2526,-2.3179,-2.6252,0.0,-2.8594,-3.3789,-3.4805,-3.6398,-4.0166,-3.9619,-3.9851,-4.2233,-4.1735,-4.1882,-4.3404,-4.1823,-4.0807,-4.0863,-4.1651,-4.2777,-4.4214,-4.3737,-4.3037,-4.216,-4.3018,-4.3366,-4.3184,-4.2361,-4.231,-4.2843,-4.1277,-4.0179,-3.9612,-4.0896,-4.0295,-3.8514,-3.98,-3.9886,-3.9122,-3.8494,-3.8201,-3.8074,-3.7436,-3.7237,-3.7286,-3.7186,-3.7171,-3.6908,-3.4876,-3.3834,-3.3378,-3.3343,-3.3427,-3.3537,-3.3531,-3.3412,-3.3292,-3.3349,-3.3243,-3.2938,-3.2222,-3.2066,-3.1846,-3.1106,-3.0897,-3.0876,-3.0942,-3.025,-2.9901,-3.066,-3.0164,-2.9938,-3.0696,-3.0798,-3.0539,-2.9764,-2.8204,-2.6993,-2.6591,-2.4559,-2.3099,-2.2729,-2.1144,-2.0134,-2.0057,-1.9957,-2.0196,-2.0867,-2.0855,-2.1466,-2.2784,-2.1183,-2.0618,-2.1203,-2.0352,-1.992,-1.988,-2.0984,-2.152,-3.8145,-3.8824,-3.9063,-3.7518,-3.5497,-3.3069,-2.9873,-2.712,0.0,0.0,-2.302,-2.295,-2.3117,-2.3671,-2.4881,-2.7214,0.0,0.0,0.0,0.0,-3.7927,0.0,0.0,0.0,0.0,0.0,0.0,0.0,-4.3752,-4.3708,-4.3243,-4.3266,-4.3532,-4.4036,-4.4209,-4.3854,-4.2917,-4.3835,-4.3929,-4.3203,-4.302,-4.295,-4.2876,-4.1915,-4.1012,-4.0235,-4.0504,0.0,-3.8997,-3.9309,-3.93,-3.911,-3.9048,-3.9005,-3.8973,-3.8803,-3.8774,-3.8715,-3.8127,-3.791,-3.7679,-3.6261,-3.5836,-3.5767,-3.5226,-3.5165,-3.5272,-3.5271,-3.4778,-3.4255,-3.4202,-3.3689,-3.3136,-3.2938,-3.29,-3.2842,-3.2706,-3.2143,-3.1712,-3.1785,-3.1125,-3.0626,-3.076,-3.0662,-3.0622,-3.0783,-3.08,-3.0756,-3.0581,-2.9663,-2.8192,-2.6021,-2.5298,-2.4347,-2.2827,-2.1708,-2.1317,-2.1903,-2.1262,-2.1166,-2.1827,-2.237,-2.2718,-2.2877,-2.2343,-2.2119,-2.2244,-2.1277,-2.1128,-2.1731,-2.1512,-2.1794,-3.8367,-3.9037,-3.9313,-3.6996,-3.4998,-3.2511,-2.8374,0.0,0.0,0.0,-2.2184,-2.2355,-2.311,0.0,0.0,0.0,0.0,0.0,0.0,0.0,0.0,0.0,0.0,0.0,0.0,0.0,0.0,0.0,-4.3864,-4.4138,-4.4261,-4.4241,-4.441,-4.4764,-4.4431,-4.4296,-4.4401,-4.443,-4.421,-4.3764,-4.2927,-4.2455,-4.2304,-4.146,-4.1082,-4.1072,-4.1043,-4.0356,-3.929,-3.969,-3.9386,-3.8618,-3.859,-3.8811,-3.9087,-3.8632,-3.8757,-3.91,-3.8737,-3.8646,-3.8532,-3.7626,-3.7234,-3.7091,-3.6914,-3.6913,-3.6996,-3.7008,-3.6718,-3.6317,-3.5836,-3.5421,-3.4903,-3.3984,-3.3427,-3.3093,-3.3103,-3.2815,-3.2594,-3.2616,-3.2007,-3.1489,-3.1482,-3.1484,-3.1324,-3.0878,-3.1189,-3.1305,-3.0866,-3.0448,-2.9511,-2.7804,-2.677,-2.5785,-2.4811,-2.3439,-2.2756,-2.3006,-2.2243,-2.209,-2.2804,-2.3097,-2.3361,-2.3612,-2.3012,-2.2644,-2.2494,-2.202,-2.1968,-2.2303,-2.2282,-2.2461,-3.8542,-3.9255,-3.937,-3.652,-3.4423,-3.1808,-2.7005,-2.4188,0.0,0.0,-2.1616,-2.1987,-2.3328,0.0,-2.345,0.0,0.0,0.0,0.0,0.0,0.0,0.0,0.0,0.0,0.0,0.0,0.0,0.0,-4.4158,-4.447,-4.4912,-4.4687,-4.493,-4.5783,-4.4649,-4.4578,-4.5738,-4.4672,-4.4204,-4.4281,-4.2482,-4.1776,-4.1997,-4.0985,-4.0943,-4.1663,-4.1434,-4.0705,-3.9702,-4.0066,-3.9528,-3.8458,-3.8294,-3.8584,-3.9027,-3.8395,-3.8562,-3.9101,-3.9101,-3.9129,-3.9125,-3.8754,-3.8324,-3.795,-3.8043,-3.8143,-3.8225,-3.8189,-3.8197,-3.805,-3.7367,-3.7174,-3.6845,-3.553,-3.469,-3.4127,-3.3924,-3.3955,-3.3887,-3.3525,-3.3155,-3.2775,-3.2419,-3.2361,-3.2145,-3.1469,-3.1622,-3.164,-3.1146,-3.0912,-3.0547,-2.9852,-2.8388,-2.7291,-2.6887,-2.5385,-2.4361,-2.4142,-2.3369,-2.3165,-2.3752,-2.3701,-2.3867,-2.4292,-2.3373,-2.2947,-2.3029,-2.2674,-2.2653,-2.2934,-2.3059,-2.3065,-3.8734,-3.92,-3.8741,-3.6383,-3.3741,-3.0678,-2.6784,0.0,0.0,-2.2429,-2.21,-2.2325,-2.4155,-2.4379,-2.4608,0.0,0.0,-2.5134,0.0,0.0,0.0,0.0,0.0,0.0,0.0,0.0,0.0,0.0,-4.6361,-4.6452,-4.5736,-4.4431,-4.4686,-4.68,-4.5064,-4.4795,-4.621,-4.4296,-4.3643,-4.4281,-4.1921,-4.1506,-4.2746,-4.1269,-4.0952,-4.1568,-4.0843,-4.0532,0.0,-3.9596,-3.9296,-3.9364,-3.9093,-3.904,-3.9082,-3.9027,-3.9045,-3.9101,-3.9101,-3.9101,-3.9132,-3.9339,-3.9077,-3.8609,-3.8151,-3.8131,-3.8271,-3.8216,-3.8197,-3.8189,-3.8102,-3.8077,-3.8038,-3.7883,-3.7745,-3.7411,-3.6626,-3.651,-3.6101,-3.4594,-3.4926,-3.497,-3.346,-3.3239,-3.3257,-3.3163,-3.1885,-3.1172,-3.1895,-3.1288,-3.0774,-3.0698,-2.9829,-2.8819,-2.7778,-2.6819,-2.6159,-2.5882,-2.5065,-2.4614,-2.4685,-2.4559,-2.4431,-2.4303,-2.3382,-2.3516,-2.4762,-2.3235,-2.325,-2.4644,-2.3655,-2.314,-3.5686,-3.7126,-3.7846,-3.5206,-3.312,-3.0523,-2.5873,0.0,-2.2714,-2.217,-2.2309,-2.2781,-2.3607,-2.2941,-2.2683,0.0,0.0,0.0,0.0,0.0,0.0,0.0,0.0,0.0,0.0,0.0,0.0,0.0,-4.5755,-4.6122,-4.724,-4.625,-4.5883,-4.6379,-4.562,-4.5246,-4.5395,-4.4748,-4.4008,-4.3197,-4.1969,-4.1395,-4.1427,-4.0822,-4.0943,-4.1611,-4.0764,-4.0016,0.0,-3.9184,-3.8739,-3.8245,-3.8854,-3.9101,-3.9101,-3.9101,-3.9435,-3.9881,-3.9881,-4.0197,-4.057,-4.0302,-4.0174,-4.004,-3.958,-3.955,-3.9708,-3.9746,-3.9752,-3.9642,-3.9114,-3.8593,-3.8194,-3.8193,-3.8112,-3.7829,-3.7025,-3.725,-3.7287,-3.6135,-3.5843,-3.5741,-3.5613,-3.521,-3.4744,-3.4258,-3.4032,-3.3683,-3.2967,-3.2129,-3.1581,-3.1576,-3.081,-3.0041,-2.947,-2.8599,-2.7758,-2.7039,-2.6109,-2.5355,-2.4817,-2.4783,-2.47,-2.4476,-2.4031,-2.4257,-2.5173,-2.4385,-2.435,-2.5001,-2.4475,-2.3839,-3.3248,-3.4891,-3.5939,-3.3946,-3.183,-2.9155,0.0,0.0,-2.2285,-2.1744,-2.1961,-2.2453,-2.307,-2.1874,-2.1328,0.0,0.0,-2.211,0.0,0.0,0.0,0.0,0.0,0.0,0.0,0.0,0.0,0.0,-4.6085,-4.6526,-4.8214,-4.7717,-4.7057,-4.6324,-4.5607,-4.5092,-4.4759,-4.4276,-4.3675,-4.2913,-4.1828,-4.119,-4.0919,-4.1124,-4.1418,-4.1768,-4.131,-4.0665,0.0,-3.985,-3.9375,-3.8727,-3.9538,-3.9844,-3.9807,-3.9565,-3.9863,-4.0416,-4.0416,-4.0587,-4.0834,-4.067,-4.0572,-4.0488,-4.0311,-4.0419,-4.0628,-4.0759,-4.0797,-4.0661,-4.0042,-3.9424,-3.8967,-3.8966,-3.8891,-3.8587,-3.781,-3.8286,-3.8543,-3.7491,-3.7284,-3.7234,-3.7115,-3.6635,-3.6069,-3.5527,-3.5325,-3.4979,-3.4252,-3.3182,-3.2479,-3.2478,-3.1703,-3.1016,-3.056,-2.9916,-2.9069,-2.8057,-2.7063,-2.6121,-2.5216,-2.5222,-2.5171,-2.499,-2.5081,-2.5421,-2.6041,-2.559,-2.5404,-2.547,-2.5128,-2.4361,-3.2377,-3.2882,-3.276,-3.2801,-2.9558,-2.5959,0.0,0.0,-2.0237,-2.1279,-2.0975,-2.1056,-2.2781,-2.1848,-2.1328,-2.2943,0.0,0.0,0.0,0.0,0.0,0.0,0.0,0.0,0.0,0.0,0.0,0.0,-4.8269,0.0,-4.8306,-4.8306,-4.7882,-4.7016,-4.4799,-4.3968,-4.469,-4.247,-4.2189,-4.386,-4.1393,-4.0807,-4.1919,-4.2565,-4.2562,-4.2031,-4.2555,-4.2963,0.0,-4.2048,-4.167,-4.1815,-4.1651,-4.1571,-4.1479,-4.0694,-4.0383,-4.0416,-4.0416,-3.9844,-3.9268,-4.0118,-3.9959,-3.9477,-3.9813,-4.0229,-4.0628,-4.0759,-4.0797,-4.0797,-4.0797,-4.0777,-4.0777,-4.0777,-4.0726,-4.0423,-3.9561,-4.0063,-4.0185,-3.8516,-3.9567,-3.9961,-3.7529,-3.7089,-3.7117,-3.7165,-3.5039,-3.4038,-3.575,-3.4466,-3.3394,-3.3386,-3.2613,-3.168,-3.0689,-3.054,-3.0041,-2.8951,-2.8004,-2.7065,-2.6137,-2.6084,-2.6019,-2.5887,-2.6478,-2.7105,-2.778,-2.6711,-2.6261,-2.6362,-2.5499,-2.4523,-2.8231,-2.8853,-2.8911,-2.7981,-2.6426,-2.4595,-2.2523,0.0,-2.0959,-2.078,-2.1014,-2.1284,-2.1434,-2.0603,-2.0456,-2.21,-2.1657,0.0,0.0,0.0,0.0,0.0,0.0,0.0,0.0,0.0,0.0,0.0,-4.6783,-4.6305,-4.7406,-4.6966,-4.6525,-4.6175,-4.6049,-4.5224,-4.3616,-4.361,-4.3293,-4.2585,-4.2044,-4.1456,-4.0914,-4.2236,-4.2538,-4.2044,-4.2574,-4.265,-4.2363,-4.181,-4.1395,-4.1113,-4.145,-4.159,-4.1571,-4.1311,-4.1219,-4.1293,-4.185,-4.185,-4.1664,-4.1943,-4.1996,-4.1777,-4.0965,-4.053,-4.0389,-4.0666,-4.1583,-4.2241,-4.1106,-4.1203,-4.1474,-4.0926,-4.0713,-4.0429,-3.965,-4.0121,-4.0378,-3.9295,-3.9528,-3.9843,-3.9655,-3.8714,-3.8198,-3.8817,-3.7246,-3.62,-3.6754,-3.5341,-3.429,-3.4294,-3.2975,-3.1952,-3.1595,-3.0951,-3.0141,-2.9163,-2.8707,-2.8043,-2.7096,-2.7006,-2.6971,-2.6932,-2.6974,-2.7317,-2.7945,-2.7493,-2.6995,-2.6362,-2.4935,-2.4392,0.0,-2.5829,-2.5729,-2.513,-2.4132,0.0,0.0,0.0,-2.0617,-2.0771,-2.0988,-2.1123,-2.1041,-2.0191,-1.9734,-2.0459,-2.1105,0.0,0.0,0.0,0.0,0.0,0.0,0.0,0.0,0.0,0.0,-4.7791,-4.6746,-4.636,-4.7058,-4.6911,-4.6526,-4.5847,-4.6067,-4.5389,-4.3688,-4.3688,-4.3267,-4.2484,-4.2381,-4.176,-4.0783,-4.2341,-4.2623,-4.1932,-4.2787,-4.304,0.0,-4.2604,-4.2273,-4.1974,-4.2355,-4.25,-4.2463,-4.2166,-4.2054,-4.211,-4.263,-4.2593,-4.2389,-4.2705,-4.2719,-4.246,-4.1415,-4.0949,-4.0861,-4.1128,-4.2188,-4.3032,-4.2002,-4.188,-4.1867,-4.1371,-4.0958,-4.0552,-4.0088,-4.0372,-4.0591,-4.0094,-3.9995,-4.0062,-4.0278,-3.9509,-3.906,-3.9616,-3.8551,-3.7809,-3.8139,-3.7007,-3.6048,-3.5678,-3.4396,-3.3415,-3.3054,-3.156,-3.0639,-3.0635,-2.9613,-2.8861,-2.8536,-2.8104,-2.79,-2.79,-2.798,-2.8035,-2.8117,-2.7588,-2.7193,-2.6829,-2.5499,-2.5163,0.0,-2.3667,-2.3064,-2.3763,-2.2439,-2.096,-2.0957,0.0,0.0,-2.1078,-2.0916,-2.0706,-2.1452,-2.0529,-1.9405,-1.8665,-2.1086,0.0,0.0,0.0,0.0,0.0,0.0,0.0,0.0,0.0,0.0,-4.7241,-4.781,-4.7846,-4.7058,-4.7718,-4.7425,-4.5865,-4.5094,-4.4637,-4.4528,-4.2903,-4.2465,-4.312,-4.2446,-4.1756,-4.1208,-4.2787,-4.2841,0.0,-4.319,-4.395,0.0,-4.4055,-4.4005,-4.4005,-4.4005,-4.4005,-4.3912,-4.315,-4.2853,-4.2816,-4.2872,-4.2352,-4.1828,-4.2642,-4.2496,-4.1893,-4.1411,-4.16,-4.1971,-4.2049,-4.2705,-4.3373,-4.3374,-4.2776,-4.2144,-4.2028,-4.1429,-4.0874,-4.0816,-4.0797,-4.0797,-4.0797,-4.0797,-4.0538,-3.9719,-3.9583,-3.9645,-3.975,-3.9039,-3.8806,-3.9683,-3.9088,-3.8234,-3.7297,-3.6483,-3.5678,-3.4854,-3.2399,-3.1508,-3.2927,-3.0724,-2.9655,-3.0271,-2.9329,-2.8799,-2.8791,-2.9201,-2.9055,-2.8287,-2.7152,-2.6921,-2.7497,-2.6834,-2.6559,-2.1924,0.0,-2.0109,-2.028,-1.9948,-1.9569,0.0,0.0,0.0,0.0,0.0,-2.1307,-2.1553,-2.1333,-2.1275,-2.1793,0.0,0.0,0.0,0.0,0.0,0.0,0.0,0.0,0.0,0.0,0.0,-4.8031,-4.7608,-4.7021,-4.6214,-4.6361,-4.6012,-4.5021,-4.48,-4.4362,-4.3687,-4.3267,-4.2587,-4.1625,-4.2552,-4.1818,-3.9705,-4.2304,-4.2793,-4.163,-4.3143,-4.3851,-4.3979,-4.3989,-4.4005,-4.4005,-4.4005,-4.4005,-4.3986,-4.3782,-4.3336,-4.289,-4.3503,-4.3188,-4.2675,-4.3708,-4.3507,-4.2908,-4.293,-4.3153,-4.3321,-4.2896,-4.3898,-4.4955,-4.4307,-4.4068,-4.3653,-4.2318,-4.1854,-4.1545,-4.0932,-4.0797,-4.0797,-4.0797,-4.0797,-4.0719,-4.0525,-3.9951,-3.9757,-4.0443,-3.9338,-3.8741,-3.9608,-3.9071,-3.8234,-3.7297,-3.6479,-3.5908,-3.5636,-3.3855,-3.2895,-3.3206,-3.1939,-3.122,-3.1263,-3.0301,-2.9745,-2.9703,-2.901,-2.8521,-2.8222,-2.7122,-2.6628,-2.6683,-2.6549,-2.6838,-2.0825,-2.0318,-1.9739,-2.0101,-2.0192,-2.03,-2.0662,0.0,0.0,0.0,0.0,-2.107,-2.147,-2.0961,0.0,0.0,-2.3274,0.0,0.0,0.0,0.0,0.0,0.0,0.0,0.0,0.0,0.0,0.0,-4.7131,-4.6581,-4.5406,-4.57,-4.5535,-4.4728,-4.4691,-4.4454,-4.3961,-4.3577,-4.264,-4.1123,-4.2536,-4.2055,-4.0,-4.222,-4.288,-4.2286,-4.2546,-4.3111,-4.3812,-4.3263,-4.3424,-4.4005,-4.4005,-4.4005,-4.4005,-4.4005,-4.3726,-4.341,-4.3856,-4.3708,-4.3441,-4.4031,-4.4008,-4.3702,-4.344,-4.3755,-4.411,-4.358,-4.4746,-4.5977,-4.5194,-4.5345,-4.5286,-4.3581,-4.3189,-4.286,-4.1622,-4.1351,-4.1235,-4.0874,-4.0797,-4.0797,-4.0797,-4.0419,-4.0266,-4.0728,-4.0454,-4.0213,-4.0289,-4.0328,-3.9684,-3.7985,-3.742,-3.6829,-3.6016,-3.5093,-3.4525,-3.4451,-3.3215,-3.2584,-3.2827,-3.152,-3.0536,-3.0014,-2.8674,-2.826,-2.8839,-2.7397,-2.7009,-2.7592,-2.7543,-2.7787,-2.0264,-2.0391,-2.0626,-2.1188,-2.1423,-2.1667,-2.2355,0.0,0.0,0.0,0.0,0.0,0.0,-2.0943,0.0,0.0,0.0,0.0,0.0,0.0,0.0,0.0,0.0,0.0,0.0,0.0,0.0,0.0,0.0,-4.6269,-4.4764,-4.5351,-4.5351,-4.4544,-4.4525,-4.449,-4.4437,-4.376,-4.2656,-4.1156,-4.252,-4.2357,-4.0991,-4.2323,-4.3013,-4.3142,0.0,0.0,-4.3625,-4.2619,-4.2872,-4.3939,-4.3971,-4.3989,-4.3989,-4.4005,-4.4005,-4.4005,-4.4005,-4.4005,-4.402,-4.4048,-4.4206,-4.4284,-4.3654,-4.4018,-4.4575,-4.4154,-4.5203,-4.634,-4.5962,-4.6328,-4.6429,-4.4947,-4.4594,-4.4149,-4.255,-4.2202,-4.199,-4.1313,-4.1184,-4.1184,-4.1184,-4.1071,-4.099,-4.099,-4.1602,-4.1814,-4.1085,-4.1699,-4.1253,-3.8773,-3.8497,-3.7829,-3.6144,-3.5936,-3.5872,-3.582,-3.4358,-3.3678,-3.4086,-3.249,-3.1168,-3.0251,-2.8567,-2.8282,-2.9438,-2.783,-2.7662,-2.8832,-2.8772,-2.8815,-2.0101,-2.0807,-2.1188,-2.0626,-2.1006,-2.1522,-2.1649,0.0,0.0,0.0,0.0,0.0,0.0,-2.4353,0.0,0.0,0.0,0.0,0.0,0.0,0.0,0.0,0.0,0.0,0.0,0.0,0.0,0.0,0.0,-4.5681,-4.4746,-4.4837,-4.4525,-4.3699,-4.3681,-4.3681,-4.3664,-4.3553,-4.2774,-4.1366,-4.2711,-4.2567,-4.1204,-4.2485,-4.3086,-4.3105,0.0,-4.3048,-4.3286,-4.3459,-4.356,-4.3679,-4.3908,-4.3976,-4.3929,-4.3974,-4.4005,-4.4005,-4.4005,-4.4005,-4.4033,-4.426,-4.4374,-4.4419,-4.4512,-4.4766,-4.4958,-4.4661,-4.4908,-4.5464,-4.6397,-4.6279,-4.5685,-4.4812,-4.4594,-4.4323,-4.3324,-4.3092,-4.3053,-4.2937,-4.2918,-4.2918,-4.2918,-4.2306,-4.1809,-4.1809,-4.1412,-4.1064,-4.0935,-4.1131,-4.0578,-3.8697,-3.8491,-3.7825,-3.6134,-3.594,-3.5909,-3.5973,-3.4928,-3.398,-3.3235,-3.2172,-3.1526,-3.1351,-2.9532,-2.8658,-2.8753,-2.8357,-2.8109,-2.8078,-2.8747,-2.8989,-1.954,-2.0554,-2.1532,-2.1576,-2.2165,-2.3089,-2.4382,0.0,0.0,0.0,0.0,0.0,0.0,0.0,0.0,0.0,0.0,0.0,0.0,0.0,0.0,0.0,0.0,0.0,0.0,0.0,0.0,0.0,0.0,0.0,-4.3424,-4.3406,-4.3424,-4.3515,-4.3515,-4.3515,-4.3515,-4.3515,-4.2789,-4.1431,-4.2762,-4.2636,-4.1233,-4.2555,-4.3142,-4.3124,0.0,-4.2548,-4.3212,-4.2754,-4.2984,-4.3631,-4.3816,-4.3899,-4.3897,-4.3974,-4.4005,-4.4005,-4.4005,-4.4005,-4.4036,-4.4151,-4.4275,-4.4402,-4.4374,-4.4599,-4.4825,-4.4559,-4.5495,-4.6566,-4.6585,-4.7136,-4.7386,-4.6175,-4.5919,-4.5587,-4.4291,-4.4001,-4.3866,-4.3401,-4.3305,-4.3305,-4.3305,-4.2976,-4.2531,-4.2067,-4.2135,-4.1914,-4.1027,-4.1397,-4.1092,-3.938,-3.9201,-3.852,-3.684,-3.6631,-3.6408,-3.5977,-3.5431,-3.4736,-3.3805,-3.2817,-3.2295,-3.2242,-3.0514,-2.999,-3.0758,-2.9645,-2.926,-2.9499,-2.9203,-2.9023,-1.9385,-2.0273,-2.1414,-2.222,-2.2998,-2.4212,-2.6808,0.0,0.0,0.0,0.0,0.0,0.0,0.0,0.0,0.0,0.0,0.0,0.0,0.0,0.0,0.0,0.0,0.0,0.0,0.0,0.0,0.0,0.0,0.0,-4.1893,-4.1927,-4.2327,-4.3115,-4.3187,-4.3296,-4.3515,-4.3515,-4.2958,-4.1889,-4.2927,-4.282,-4.1756,-4.279,-4.3251,-4.3195,-4.2119,-4.2284,-4.3211,-4.2329,-4.2583,-4.3582,-4.3736,-4.3835,-4.3915,-4.3961,-4.3989,-4.4005,-4.4005,-4.4005,-4.4005,-4.4005,-4.4177,-4.4374,-4.4166,-4.443,-4.4763,-4.4479,-4.5924,-4.7382,-4.6606,-4.7388,-4.8155,-4.7221,-4.6885,-4.6416,-4.5155,-4.4891,-4.4678,-4.402,-4.3885,-4.3885,-4.3885,-4.373,-4.3382,-4.2705,-4.2887,-4.2635,-4.1351,-4.1654,-4.1425,-3.9942,-3.9798,-3.911,-3.7423,-3.7068,-3.6631,-3.5973,-3.581,-3.5415,-3.4724,-3.3749,-3.3205,-3.3133,-3.1641,-3.1444,-3.2621,-3.089,-3.0346,-3.0903,-2.9704,-2.9166,-2.021,-2.03,-2.0589,-2.1396,-2.2192,0.0,-2.6681,-2.6065,0.0,-2.9916,0.0,0.0,0.0,0.0,0.0,0.0,0.0,0.0,0.0,0.0,0.0,0.0,0.0,0.0,0.0,0.0,0.0,0.0,0.0,0.0,-4.0726,-4.0829,-4.128,-4.2083,-4.2293,-4.2745,-4.3496,-4.3515,-4.3441,-4.3348,-4.346,-4.3441,-4.3331,-4.3374,-4.3394,-4.3376,-4.3159,-4.3105,-4.3214,-4.3316,-4.337,-4.3429,-4.3704,-4.3835,-4.3897,-4.3915,-4.3961,-4.4005,-4.4005,-4.4005,-4.4005,-4.4005,-4.4177,-4.4402,-4.4388,-4.4751,-4.5107,-4.4837,-4.5603,-4.65,-4.6412,-4.5908,-4.5682,-4.6744,-4.6394,-4.5777,-4.5735,-4.571,-4.571,-4.5633,-4.5613,-4.5613,-4.5613,-4.5007,-4.4478,-4.442,-4.3149,-4.2149,-4.2038,-4.1479,-4.073,-3.9805,-3.9752,-3.9101,-3.7355,-3.6529,-3.6063,-3.6005,-3.5859,-3.5745,-3.5611,-3.4698,-3.4164,-3.4103,-3.307,-3.2588,-3.2688,-3.1618,-3.1059,-3.097,-3.0067,-2.9589,-1.9616,-2.0316,-2.1361,-2.2676,-2.2465,0.0,0.0,-2.7278,-2.7634,-3.1655,-3.0803,0.0,0.0,0.0,0.0,0.0,0.0,0.0,0.0,0.0,0.0,0.0,0.0,0.0,0.0,0.0,0.0,0.0,0.0,0.0,-4.051,-4.1176,-4.1919,-4.2722,-4.2952,-4.2947,-4.2763,-4.324,-4.3002,-4.2029,-4.302,-4.3515,-4.3515,-4.3463,-4.3463,-4.3464,-4.3358,-4.3323,-4.3323,-4.3411,-4.3411,-4.3429,-4.36,-4.3684,-4.3734,-4.3849,-4.3913,-4.3926,-4.3989,-4.4005,-4.4005,-4.4005,-4.4064,-4.4151,-4.4091,-4.4346,-4.4612,-4.4471,-4.4751,-4.5255,-4.5981,-4.6031,-4.6026,-4.6499,-4.6154,-4.5715,-4.5727,-4.5771,-4.5807,-4.5807,-4.5807,-4.5807,-4.5807,-4.5548,-4.5181,-4.4671,-4.3595,-4.2662,-4.2157,-4.1419,-4.0822,-4.0546,-4.0085,-3.9533,-3.8865,-3.7539,-3.6756,-3.6748,-3.6156,-3.5779,-3.5693,-3.4811,-3.4517,-3.5007,-3.4094,-3.3844,-3.4254,-3.3377,-3.2577,-3.1853,-3.0884,-3.017,-1.9567,-2.0178,-2.1125,0.0,0.0,0.0,-2.7906,-2.8147,-2.8763,-3.3556,0.0,0.0,0.0,0.0,0.0,0.0,0.0,0.0,0.0,0.0,0.0,0.0,0.0,0.0,0.0,0.0,0.0,0.0,0.0,0.0,0.0,-4.1017,-4.1723,-4.2341,-4.2537,-4.2419,-4.1937,-4.247,-4.2194,-4.1113,-4.2213,-4.2745,-4.2745,-4.3002,-4.3112,-4.313,-4.3354,-4.3429,-4.3429,-4.3429,-4.3429,-4.3446,-4.3532,-4.3582,-4.3615,-4.3749,-4.3832,-4.3883,-4.3913,-4.3961,-4.3958,-4.3958,-4.3974,-4.3989,-4.3945,-4.4121,-4.4318,-4.4279,-4.436,-4.4643,-4.542,-4.5752,-4.5947,-4.6313,-4.6004,-4.5632,-4.5657,-4.5719,-4.5771,-4.5805,-4.58,-4.5807,-4.5807,-4.5807,-4.5613,-4.5065,-4.4253,-4.3408,-4.2597,-4.2015,-4.1621,-4.1424,-4.046,-3.9815,-3.9808,-3.8477,-3.7517,-3.7217,-3.6611,-3.6119,-3.5741,-3.5083,-3.4982,-3.5515,-3.4641,-3.4386,-3.4848,-3.3719,-3.28,-3.206,-3.1094,-3.0387,-2.0369,-1.9882,0.0,0.0,0.0,0.0,-2.8741,-2.8576,-2.9264,0.0,0.0,0.0,0.0,0.0,0.0,0.0,0.0,0.0,0.0,0.0,0.0,0.0,0.0,0.0,0.0,0.0,0.0,0.0,0.0,0.0,0.0,-4.0105,-4.0292,-4.0492,-4.0704,-4.0894,-4.1077,-4.1095,-4.1095,-4.1077,-4.1077,-4.1095,-4.1132,-4.1937,-4.2304,-4.2341,-4.3149,-4.3515,-4.3515,-4.3515,-4.3515,-4.3515,-4.3515,-4.3531,-4.3599,-4.3599,-4.3684,-4.3804,-4.3804,-4.3835,-4.3897,-4.3897,-4.3926,-4.4005,-4.4005,-4.4177,-4.4402,-4.4402,-4.4585,-4.4788,-4.4788,-4.4758,-4.4991,-4.6127,-4.5934,-4.5503,-4.558,-4.5657,-4.5715,-4.58,-4.5798,-4.5807,-4.5807,-4.5807,-4.5807,-4.5807,-4.5123,-4.4284,-4.3401,-4.3341,-4.3116,-4.2375,-4.0857,-3.9885,-3.9829,-3.9075,-3.8214,-3.7277,-3.7265,-3.6857,-3.5846,-3.572,-3.5649,-3.5606,-3.4596,-3.4096,-3.4096,-3.2286,-3.1417,-3.1379,-3.051,-3.0122,-2.0136,-2.0171,0.0,0.0,0.0,0.0,0.0,-3.0735,0.0,0.0,0.0,0.0,0.0,0.0,0.0,0.0,0.0,0.0,0.0,0.0,0.0,0.0,0.0,0.0,0.0,0.0,0.0,0.0,0.0,0.0,0.0,-3.9855,-4.031,-4.0365,-4.0546,-4.0379,-3.9831,-4.055,-4.0308,-3.9211,-3.9926,-4.0561,-4.1132,-4.1937,-4.2304,-4.2341,-4.3149,-4.3515,-4.3515,-4.3515,-4.3515,-4.3515,-4.3515,-4.3496,-4.3549,-4.3582,-4.3634,-4.3667,-4.3771,-4.382,-4.3853,-4.3881,-4.3913,-4.3929,-4.3929,-4.3989,-4.4064,-4.4166,-4.4181,-4.4236,-4.4559,-4.4572,-4.4661,-4.5342,-4.5347,-4.5263,-4.5419,-4.5545,-4.5657,-4.5715,-4.5781,-4.5791,-4.58,-4.5807,-4.5807,-4.5807,-4.5123,-4.4079,-4.2643,-4.2507,-4.2262,-4.1465,-4.0996,-4.0746,-4.0723,-3.9938,-3.933,-3.9052,-3.7892,-3.6809,-3.5846,-3.5142,-3.504,-3.5587,-3.4064,-3.353,-3.4096,-3.2941,-3.2053,-3.1398,-3.1134,-3.0688,-1.9974,0.0,0.0,0.0,0.0,0.0,0.0,0.0,0.0,0.0,0.0,0.0,0.0,0.0,0.0,0.0,0.0,0.0,0.0,0.0,0.0,0.0,0.0,0.0,0.0,0.0,0.0,0.0,0.0,0.0,0.0,-3.9816,-4.0036,-3.9787,-3.9896,-3.9606,-3.8825,-3.9417,-3.9281,-3.8417,-3.9006,-3.9598,-4.0159,-4.0983,-4.135,-4.1405,-4.2543,-4.3185,-4.3515,-4.3515,-4.3515,-4.3515,-4.3515,-4.3515,-4.3496,-4.3566,-4.3548,-4.3565,-4.3651,-4.3703,-4.3736,-4.3767,-4.3832,-4.3897,-4.3897,-4.3913,-4.3961,-4.4005,-4.4033,-4.4106,-4.4374,-4.4374,-4.443,-4.4845,-4.5023,-4.5135,-4.5243,-4.5428,-4.559,-4.5687,-4.5735,-4.5773,-4.5798,-4.5805,-4.5805,-4.58,-4.4813,-4.3847,-4.3174,-4.2283,-4.166,-4.1495,-4.1249,-4.1103,-4.1099,-4.0627,-4.0016,-3.9327,-3.8326,-3.7037,-3.5427,-3.4738,-3.4637,-3.5115,-3.3324,-3.2647,-3.3133,-3.2237,-3.1525,-3.0958,-3.0965,-3.0665,-1.9959,0.0,0.0,0.0,0.0,0.0,0.0,0.0,0.0,0.0,0.0,0.0,0.0,0.0,0.0,0.0,0.0,0.0,0.0,0.0,0.0,0.0,0.0,0.0,0.0,0.0,0.0,0.0,0.0,0.0,-3.945,-3.9486,-3.9258,-3.878,-3.869,-3.8437,-3.7942,-3.7959,-3.8077,-3.8257,-3.8364,-3.8481,-3.871,-3.9533,-3.9937,-4.0084,-4.1552,-4.2653,-4.3404,-4.3404,-4.3441,-4.3515,-4.3515,-4.3515,-4.3515,-4.3515,-4.3515,-4.3515,-4.3515,-4.3531,-4.3582,-4.3599,-4.3716,-4.3865,-4.3899,-4.391,-4.3958,-4.3897,-4.4064,-4.425,-4.4221,-4.4177,-4.4265,-4.4591,-4.485,-4.5053,-4.5082,-4.5302,-4.555,-4.5676,-4.5629,-4.56,-4.5676,-4.5691,-4.5706,-4.58,-4.4504,-4.3769,-4.44,-4.2568,-4.1435,-4.2039,-4.1493,-4.1091,-4.1101,-4.1021,-4.0313,-3.8736,-3.8548,-3.7372,-3.4922,-3.4474,-3.4293,-3.4274,-3.2441,-3.1565,-3.1698,-3.0764,-3.031,-3.031,-3.0318,-3.0279,0.0,-2.107,0.0,0.0,0.0,0.0,0.0,0.0,0.0,0.0,0.0,0.0,0.0,0.0,0.0,0.0,0.0,0.0,0.0,0.0,0.0,0.0,0.0,0.0,0.0,0.0,0.0,0.0,0.0,0.0,-3.6397,-3.6379,-3.654,-3.6952,-3.6345,-3.6255,-3.6754,-3.6911,-3.7047,0.0,-3.7947,-3.8403,-3.8578,-3.9483,-4.023,-4.0857,-4.1205,-4.1809,-4.2561,-4.2561,-4.2928,-4.3515,-4.3515,-4.3515,-4.3515,-4.3515,-4.3515,-4.3515,-4.3515,-4.3515,-4.3513,-4.3582,-4.3632,-4.3666,-4.3786,-4.3767,-4.3697,-4.3802,-4.3867,-4.3958,-4.4206,-4.4121,-4.4051,-4.4318,-4.4552,-4.4745,-4.4915,-4.5232,-4.5522,-4.5614,-4.5106,-4.4704,-4.477,-4.4781,-4.501,-4.5703,-4.5497,-4.4852,-4.373,-4.3181,-4.2473,-4.1377,-4.1121,-4.1033,-4.1091,-4.0521,-4.001,-3.9613,-3.8339,-3.7024,-3.5761,-3.4305,-3.349,-3.3382,-3.1637,-3.105,-3.1698,-3.0802,-3.0373,-3.0373,-3.0386,-3.0336,0.0,0.0,0.0,0.0,0.0,0.0,0.0,0.0,0.0,0.0,0.0,0.0,0.0,0.0,0.0,0.0,0.0,0.0,0.0,0.0,0.0,0.0,0.0,0.0,0.0,0.0,0.0,0.0,0.0,-3.556,-3.546,-3.5409,-3.5573,-3.5915,-3.5453,-3.54,-3.5828,-3.5932,-3.6051,-3.6182,-3.6716,-3.7275,-3.7896,-3.8881,-3.9753,-4.0524,-4.0524,-4.0983,-4.1735,-4.1735,-4.2194,-4.2892,-4.2506,-4.2598,-4.2928,-4.2928,-4.2928,-4.2928,-4.2928,-4.2928,-4.2927,-4.2979,-4.2995,-4.31,-4.3574,-4.3649,-4.3614,-4.3651,-4.3667,-4.3732,-4.3889,-4.3876,-4.3865,-4.3952,-4.4177,-4.4443,-4.4739,-4.4717,-4.471,-4.4925,-4.4342,-4.3789,-4.3817,-4.3858,-4.4037,-4.4483,-4.4226,-4.3672,-4.2783,-4.2408,-4.1892,-4.1081,-4.1029,-4.1066,-4.1092,-4.0368,-3.9721,-3.9307,-3.8033,-3.6717,-3.5422,-3.4464,-3.3512,-3.2546,-3.1154,-3.0656,-3.1077,-3.0615,-3.0404,-3.0404,-3.0374,-3.0324,0.0,0.0,0.0,0.0,0.0,0.0,0.0,0.0,0.0,0.0,0.0,0.0,0.0,0.0,0.0,0.0,0.0,0.0,0.0,0.0,0.0,0.0,0.0,0.0,0.0,0.0,0.0,0.0,0.0,-3.4051,-3.486,-3.4849,-3.4926,-3.5178,-3.4951,-3.4882,-3.5025,-3.5007,-3.5109,-3.529,-3.5483,-3.613,-3.7197,-3.8068,-3.8896,-3.968,-3.9664,-4.0107,-4.0875,-4.0875,-4.1368,-4.2029,-4.1352,-4.1589,-4.2304,-4.2304,-4.2396,-4.2488,-4.2359,-4.2304,-4.2304,-4.2288,-4.232,-4.2516,-4.3292,-4.3529,-4.3529,-4.3479,-4.3495,-4.3546,-4.3548,-4.3652,-4.3719,-4.3651,-4.3812,-4.4117,-4.4585,-4.4185,-4.384,-4.4226,-4.3528,-4.289,-4.2892,-4.2949,-4.3038,-4.318,-4.2647,-4.2164,-4.2028,-4.146,-4.1062,-4.1003,-4.1057,-4.1098,-4.1113,-4.0369,-3.9529,-3.8667,-3.7785,-3.6511,-3.4766,-3.4563,-3.3745,-3.217,-3.1167,-3.0586,-3.0419,-3.0416,-3.0404,-3.039,-3.0343,-3.0305,0.0,0.0,0.0,0.0,0.0,0.0,0.0,0.0,0.0,0.0,0.0,0.0,0.0,0.0,0.0,0.0,0.0,0.0,0.0,0.0,0.0,0.0,0.0,0.0,0.0,0.0,0.0,0.0,-3.133,-3.1636,-3.2412,-3.2466,-3.305,-3.4318,-3.3659,-3.3609,-3.424,-3.4306,-3.437,-3.4483,-3.5406,-3.6292,-3.7121,-3.7309,-3.7927,-3.8839,-3.8677,-3.915,-4.0065,-4.0065,-4.0524,-4.1242,-4.1132,-4.1589,-4.2304,-4.2304,-4.2745,-4.3239,-4.2543,-4.2304,-4.2288,-4.2221,-4.2222,-4.2369,-4.3031,-4.325,-4.3268,-4.3321,-4.332,-4.339,-4.3686,-4.3652,-4.3583,-4.3754,-4.3667,-4.3777,-4.446,-4.4212,-4.3961,-4.4243,-4.3047,-4.1997,-4.2044,-4.2078,-4.2333,-4.3095,-4.3169,-4.286,-4.2106,-4.1906,-4.1637,-4.1055,-4.1019,-4.1066,-4.1172,-4.0391,-3.9531,-3.8651,-3.7772,-3.6519,-3.4773,-3.3961,-3.3432,-3.3117,-3.2181,-3.1299,-3.0496,-3.0436,-3.0396,-3.0406,-3.0381,-3.0354,-1.9711,0.0,0.0,0.0,0.0,0.0,0.0,0.0,0.0,0.0,0.0,0.0,0.0,0.0,0.0,0.0,0.0,0.0,0.0,0.0,0.0,0.0,0.0,0.0,0.0,0.0,0.0,0.0,-3.0581,-3.0804,-3.1297,-3.1333,-3.1628,-3.2283,-3.2391,-3.2609,-3.2921,-3.3347,-3.3609,-3.364,-3.4684,-3.5354,-3.5735,-3.6674,-3.7637,-3.8575,-3.8494,-3.8745,-3.9239,-3.9239,-3.9698,-4.0377,-3.9937,-4.0249,-4.0965,-4.0965,-4.1167,-4.144,-4.1075,-4.0965,-4.1003,-4.1361,-4.1473,-4.1694,-4.2849,-4.3178,-4.316,-4.3178,-4.3214,-4.3286,-4.3428,-4.3496,-4.3582,-4.3617,-4.3795,-4.3877,-4.3638,-4.319,-4.2702,-4.2249,-4.1585,-4.1073,-4.1116,-4.1147,-4.1306,-4.1696,-4.1801,-4.1719,-4.1371,-4.1332,-4.123,-4.0971,-4.0535,-4.0518,-4.1084,-3.9471,-3.8496,-3.8593,-3.7323,-3.6228,-3.5465,-3.5066,-3.4606,-3.409,-3.2208,-3.1235,-3.1231,-3.0708,-3.0439,-3.0408,-3.0354,-3.0592,0.0,0.0,0.0,0.0,0.0,0.0,0.0,0.0,0.0,0.0,0.0,0.0,0.0,0.0,0.0,0.0,0.0,0.0,0.0,0.0,0.0,0.0,0.0,0.0,0.0,0.0,0.0,0.0,-2.9722,-2.9961,-3.0367,-3.046,-3.0614,-3.0826,-3.1391,-3.1699,-3.167,-3.2436,-3.2952,-3.318,-3.3946,-3.4386,-3.464,-3.5835,-3.6926,-3.7862,-3.8264,-3.8515,-3.8596,-3.8676,-3.9022,-3.9483,-3.8912,-3.9184,-3.99,-3.99,-4.0029,-4.0175,-3.9955,-3.99,-3.9976,-4.0429,-4.0741,-4.1164,-4.2467,-4.2996,-4.3068,-4.2813,-4.2796,-4.2868,-4.2904,-4.3063,-4.3235,-4.3203,-4.3511,-4.3631,-4.2921,-4.2272,-4.1559,-4.0666,-4.0496,-4.0496,-4.0496,-4.0565,-4.0595,-4.0579,-4.0647,-4.0707,-4.0746,-4.0784,-4.0748,-4.0587,-4.0046,-3.9903,-4.0403,-3.8707,-3.7812,-3.8242,-3.705,-3.623,-3.6014,-3.5794,-3.5477,-3.5047,-3.2623,-3.165,-3.2182,-3.1273,-3.0796,-3.0744,-3.0451,-3.0785,0.0,0.0,0.0,0.0,0.0,0.0,0.0,0.0,0.0,0.0,0.0,0.0,0.0,0.0,0.0,0.0,0.0,0.0,0.0,0.0,0.0,0.0,0.0,0.0,0.0,0.0,0.0,0.0,-2.788,-2.8415,-2.9233,-2.9574,-3.0116,-3.086,-3.0862,-3.0826,-3.0775,-3.1631,-3.2487,-3.3396,-3.3447,-3.3864,-3.4606,-3.4697,-3.5196,-3.6121,-3.7651,-3.8323,-3.834,-3.8614,-3.8661,-3.858,-3.8676,-3.9184,-3.99,-3.99,-4.0377,-4.093,-4.0157,-3.99,-3.9884,-3.9788,-4.0268,-4.1037,-4.1758,-4.2541,-4.2996,-4.205,-4.1869,-4.1996,-4.2048,-4.2171,-4.2293,-4.2343,-4.2441,-4.2541,-4.2685,-4.1988,-4.118,-4.0603,-4.0496,-4.0496,-4.0496,-4.0565,-4.0573,-4.0504,-4.0612,-4.0687,-4.0621,-4.0713,-4.0516,-3.9757,-3.97,-3.9416,-3.8705,-3.8571,-3.8203,-3.7422,-3.7285,-3.6855,-3.6034,-3.5208,-3.5126,-3.5926,-3.4176,-3.3255,-3.322,-3.2217,-3.1739,-3.171,-3.0813,-3.0829,0.0,0.0,0.0,0.0,0.0,0.0,0.0,0.0,0.0,0.0,0.0,0.0,0.0,0.0,0.0,0.0,0.0,0.0,0.0,0.0,0.0,0.0,0.0,0.0,0.0,0.0,0.0,0.0,0.0,-2.6244,-2.8002,-2.7661,-2.7898,-2.8997,-2.9778,-3.0383,-3.0878,-3.1675,-3.2242,-3.2632,-3.3099,-3.3497,-3.3828,-3.3786,-3.3912,-3.4232,-3.546,-3.6594,-3.7606,-3.77,-3.7729,-3.7796,-3.8358,-3.8478,-3.8429,-3.8927,-3.9313,-3.9517,-3.9239,-3.9129,-3.9187,-3.9587,-3.9869,-4.0203,-4.0904,-4.1288,-4.1379,-4.1017,-4.0963,-4.1017,-4.1034,-4.1141,-4.133,-4.1761,-4.1373,-4.1059,-4.151,-4.0873,-4.0214,-4.0243,-4.0381,-4.0496,-4.0496,-4.0523,-4.0539,-4.0565,-4.0561,-4.0598,-4.0654,-4.0668,-4.0378,-3.9616,-3.9092,-3.8711,-3.8468,-3.7476,-3.6987,-3.7285,-3.6777,-3.6328,-3.6015,-3.5701,-3.5678,-3.5985,-3.539,-3.4766,-3.4123,-3.2616,-3.184,-3.1796,-3.1403,-3.1391,0.0,0.0,0.0,0.0,0.0,0.0,0.0,0.0,0.0,0.0,0.0,0.0,0.0,0.0,0.0,0.0,0.0,0.0,0.0,0.0,0.0,0.0,0.0,0.0,0.0,0.0,0.0,0.0,0.0,0.0,-2.6584,-2.641,-2.6774,-2.7819,-2.8637,-2.9484,-3.0344,-3.0873,-3.1268,-3.1567,-3.2361,-3.2532,-3.2202,-3.2565,-3.2562,-3.231,-3.3393,-3.4767,-3.6308,-3.6932,-3.7051,-3.6906,-3.8026,-3.8034,-3.7491,-3.8331,-3.8658,-3.8692,-3.8658,-3.8624,-3.87,-3.915,-3.9467,-3.9747,-4.0209,-4.0469,-4.0526,-4.0237,-4.0147,-4.013,-4.013,-4.0218,-4.0423,-4.088,-4.024,-3.9679,-4.0196,-3.9895,-3.9606,-4.0012,-4.0241,-4.0389,-4.0481,-4.0496,-4.0516,-4.0562,-4.0523,-4.0519,-4.0598,-4.0369,-4.001,-3.9515,-3.85,-3.8008,-3.8377,-3.6868,-3.6297,-3.7246,-3.6484,-3.5996,-3.5996,-3.5995,-3.5993,-3.6009,-3.5999,-3.569,-3.5063,-3.3543,-3.2771,-3.2722,-3.2348,-3.2166,0.0,0.0,0.0,0.0,0.0,0.0,-1.6625,0.0,0.0,0.0,0.0,0.0,0.0,0.0,0.0,0.0,0.0,0.0,0.0,0.0,0.0,0.0,0.0,0.0,0.0,0.0,0.0,0.0,-2.4756,-2.4913,-2.4982,-2.5981,-2.6862,-2.7507,-2.756,-2.8032,-2.9009,-2.9121,-2.9529,-3.0262,-3.1133,-3.094,-2.9837,-3.0991,-3.109,-3.0431,-3.1589,-3.2936,-3.4431,-3.6342,-3.6594,-3.5942,-3.766,-3.7851,-3.7265,-3.8112,-3.8538,-3.8658,-3.8507,-3.8491,-3.8476,-3.8476,-3.9061,-3.9737,-3.9666,-4.0165,-4.0555,-3.9705,-3.942,-3.9351,-3.9351,-3.942,-3.9521,-3.9719,-3.9065,-3.8507,-3.8896,-3.9154,-3.9439,-4.0001,-4.0101,-4.0186,-4.0457,-4.0496,-4.05,-4.0491,-4.0503,-4.0481,-4.0414,-3.9815,-3.9397,-3.9366,-3.7945,-3.7343,-3.8237,-3.6826,-3.6296,-3.7207,-3.6465,-3.5996,-3.5996,-3.5995,-3.5995,-3.5995,-3.6003,-3.5992,-3.5992,-3.5069,-3.4598,-3.453,-3.3518,-3.3006,-1.7972,0.0,0.0,0.0,0.0,0.0,-1.6686,-1.7861,-1.8851,0.0,0.0,0.0,0.0,0.0,0.0,0.0,0.0,0.0,0.0,0.0,0.0,0.0,0.0,0.0,0.0,0.0,0.0,0.0,-2.3243,-2.309,-2.4558,-2.516,-2.5624,-2.5995,-2.6535,-2.6921,-2.7136,-2.8215,-2.8866,-2.9076,-2.9865,-3.0079,-2.9786,-2.9486,-2.9409,-2.9561,-2.9876,-3.0555,-3.1648,-3.4259,-3.5178,-3.5041,-3.61,-3.6386,-3.622,-3.6577,-3.7348,-3.8212,-3.7726,-3.7911,-3.8354,-3.8354,-3.8518,-3.87,-3.8682,-3.8796,-3.8874,-3.8623,-3.8552,-3.8535,-3.8535,-3.8617,-3.8713,-3.8777,-3.8658,-3.8569,-3.8628,-3.8915,-3.9333,-3.9982,-4.0269,-4.0406,-4.0489,-4.0496,-4.0489,-4.05,-4.0495,-4.0487,-4.0473,-3.9769,-3.9049,-3.8523,-3.7488,-3.6739,-3.6464,-3.6072,-3.597,-3.6275,-3.6111,-3.5996,-3.5996,-3.5996,-3.5995,-3.5992,-3.6009,-3.6001,-3.6002,-3.5064,-3.4283,-3.3612,-3.2027,-3.1588,0.0,0.0,0.0,0.0,0.0,0.0,-1.6254,-1.7415,-1.8358,0.0,0.0,0.0,0.0,0.0,0.0,0.0,0.0,0.0,0.0,0.0,0.0,0.0,0.0,0.0,0.0,-2.3388,-2.3122,-2.3545,-2.2504,-2.2466,-2.3949,-2.423,-2.4554,-2.5013,-2.5752,-2.615,-2.6236,-2.7388,-2.793,-2.7866,-2.8609,-2.8749,-2.8305,-2.8302,-2.8272,-2.8227,-2.8725,-2.9382,-3.0247,-3.2266,-3.3353,-3.3896,-3.5237,-3.5553,-3.5315,-3.5717,-3.6409,-3.7122,-3.706,-3.7316,-3.7736,-3.8096,-3.8223,-3.8221,-3.8322,-3.8289,-3.8241,-3.8241,-3.8225,-3.8209,-3.8209,-3.8257,-3.8322,-3.8322,-3.8368,-3.8462,-3.8597,-3.8814,-3.9147,-3.9742,-4.012,-4.0364,-4.0481,-4.0496,-4.0496,-4.0496,-4.0495,-4.0482,-4.0452,-3.9722,-3.9162,-3.9073,-3.802,-3.7454,-3.7754,-3.691,-3.6533,-3.6965,-3.6363,-3.5996,-3.5996,-3.5996,-3.5996,-3.5994,-3.5992,-3.6004,-3.6004,-3.5088,-3.4177,-3.3273,-3.1863,-3.146,0.0,0.0,0.0,0.0,0.0,0.0,-1.5676,-1.6839,-1.7805,-1.786,0.0,0.0,0.0,0.0,0.0,0.0,0.0,0.0,0.0,0.0,0.0,0.0,0.0,0.0,-2.3359,-2.2711,-2.2296,-2.2296,-2.2296,-2.2584,-2.3241,-2.3274,-2.3579,-2.4237,-2.4966,-2.5483,-2.5701,-2.6437,-2.6735,-2.6623,-2.7352,-2.7163,-2.6236,-2.7298,-2.742,-2.6858,-2.7932,-2.8836,-2.9652,-3.043,-3.1489,-3.2779,-3.465,-3.499,-3.4553,-3.52,-3.5575,-3.5842,-3.6447,-3.6648,-3.6809,-3.778,-3.7976,-3.7899,-3.8154,-3.8192,-3.8163,-3.8163,-3.8114,-3.8064,-3.7973,-3.8009,-3.8046,-3.7938,-3.7937,-3.8053,-3.8504,-3.8637,-3.8823,-3.9358,-3.9808,-4.0177,-4.0457,-4.0496,-4.0496,-4.0496,-4.0495,-4.0474,-4.0424,-3.9701,-3.946,-4.0183,-3.888,-3.8614,-4.0275,-3.8272,-3.7339,-3.8287,-3.6869,-3.5996,-3.5996,-3.5996,-3.5996,-3.5996,-3.5994,-3.5948,-3.5857,-3.5076,-3.4267,-3.3427,-3.2512,-3.2087,0.0,0.0,0.0,0.0,0.0,0.0,-1.6017,-1.6766,-1.7642,0.0,0.0,0.0,0.0,0.0,0.0,0.0,0.0,0.0,0.0,0.0,0.0,0.0,0.0,0.0,-2.2527,-2.2395,-2.2296,-2.2296,-2.2296,-2.2347,-2.2513,-2.2499,-2.2581,-2.2733,-2.3444,-2.3833,-2.3818,-2.4561,-2.5125,-2.5514,-2.5664,-2.5913,-2.6202,-2.6443,-2.6638,-2.6808,-2.706,-2.7588,-2.8305,-2.8858,-3.0504,-3.2721,-3.3139,-3.3729,-3.4299,-3.3969,-3.454,-3.5511,-3.5752,-3.5806,-3.6008,-3.7465,-3.7172,-3.6381,-3.7064,-3.7263,-3.7247,-3.7247,-3.7247,-3.7085,-3.6435,-3.6743,-3.7067,-3.6417,-3.6256,-3.6467,-3.7196,-3.7609,-3.8118,-3.9074,-3.963,-4.0063,-4.043,-4.0496,-4.0496,-4.0496,-4.0508,-4.0503,-4.0474,-3.9673,-3.9194,-3.941,-3.7913,-3.7365,-3.8511,-3.6938,-3.6324,-3.7317,-3.6451,-3.5949,-3.5996,-3.5996,-3.5996,-3.5996,-3.5994,-3.5656,-3.4947,-3.4781,-3.4571,-3.432,-3.2803,-3.2435,0.0,0.0,0.0,-1.8899,0.0,0.0,0.0,-1.7074,-1.7415,0.0,0.0,0.0,0.0,0.0,0.0,0.0,0.0,0.0,0.0,0.0,0.0,0.0,0.0,0.0,-2.2391,-2.2338,-2.2251,-2.2147,-2.2237,-2.2251,-2.2147,-2.2251,-2.2296,-2.2296,-2.3021,-2.3378,-2.3365,-2.4047,-2.4708,-2.5363,-2.5246,-2.5578,-2.6258,-2.6221,-2.6311,-2.6503,-2.6503,-2.6941,-2.7667,-2.7896,-2.9179,-3.1025,-3.1794,-3.2791,-3.3772,-3.3388,-3.3402,-3.3671,-3.4177,-3.4051,-3.3862,-3.5128,-3.5351,-3.5196,-3.5659,-3.6073,-3.6399,-3.6399,-3.6399,-3.6309,-3.5894,-3.6109,-3.6309,-3.5894,-3.5804,-3.5912,-3.6309,-3.6877,-3.7529,-3.8252,-3.9015,-3.974,-4.0347,-4.0484,-4.0362,-3.9958,-4.0246,-4.0346,-3.9914,-3.9832,-3.9635,-3.9197,-3.8407,-3.8109,-3.8606,-3.7531,-3.708,-3.7615,-3.6921,-3.6325,-3.597,-3.5976,-3.5996,-3.5996,-3.5995,-3.5776,-3.536,-3.5349,-3.4871,-3.3966,-3.2682,-3.2558,0.0,0.0,0.0,0.0,0.0,-1.8433,0.0,0.0,0.0,0.0,0.0,0.0,0.0,0.0,0.0,0.0,0.0,0.0,0.0,0.0,0.0,0.0,0.0,0.0,-2.2,-2.2017,-2.204,-2.207,-2.2163,-2.2149,-2.2013,-2.2147,-2.2237,-2.2237,-2.2871,-2.319,-2.319,-2.3723,-2.4434,-2.5293,-2.5096,-2.5463,-2.6295,-2.6222,-2.6202,-2.6202,-2.6202,-2.6571,-2.7158,-2.7158,-2.7885,-2.9128,-3.0599,-3.1818,-3.2748,-3.2697,-3.2239,-3.1733,-3.2583,-3.2322,-3.1757,-3.2808,-3.3625,-3.4197,-3.4341,-3.4808,-3.5354,-3.5517,-3.5569,-3.5532,-3.5369,-3.5442,-3.5532,-3.5369,-3.5333,-3.5369,-3.5532,-3.62,-3.6939,-3.7466,-3.841,-3.9364,-4.0177,-4.04,-4.0261,-3.9623,-4.0073,-4.025,-3.9538,-3.9906,-3.995,-3.9184,-3.8851,-3.8757,-3.8927,-3.8112,-3.7699,-3.7928,-3.7267,-3.6557,-3.5932,-3.5954,-3.5996,-3.5996,-3.5996,-3.5993,-3.6006,-3.5822,-3.5112,-3.388,-3.3005,-3.306,0.0,0.0,0.0,0.0,-1.9531,0.0,0.0,0.0,-1.7446,-1.6914,0.0,0.0,0.0,0.0,0.0,0.0,0.0,0.0,0.0,0.0,0.0,0.0,0.0,0.0,0.0,-2.074,-2.1412,-2.2298,-2.2063,-2.1899,-2.1982,-2.2027,-2.2027,-2.2027,-2.229,-2.2415,-2.2415,-2.2485,-2.3216,-2.452,-2.4392,-2.5013,-2.6295,-2.6222,-2.6202,-2.6202,-2.6202,-2.6253,-2.6336,-2.6336,-2.704,-2.8271,-2.9498,-3.0284,-3.0773,-3.1113,-3.1109,-3.1035,-3.1843,-3.1562,-3.1073,-3.254,-3.3158,-3.3358,-3.3493,-3.3551,-3.374,-3.4462,-3.469,-3.4555,-3.3864,-3.4208,-3.457,-3.3846,-3.3665,-3.3864,-3.4588,-3.5385,-3.6222,-3.7228,-3.8188,-3.9075,-3.9836,-4.0203,-4.0408,-4.0365,-4.0439,-4.0458,-4.0373,-3.9706,-3.9216,-3.9103,-3.7723,-3.7141,-3.7977,-3.661,-3.6081,-3.6992,-3.6366,-3.5924,-3.5893,-3.5954,-3.5996,-3.5996,-3.5996,-3.5995,-3.5991,-3.5219,-3.5147,-3.5676,-3.4805,-3.4867,0.0,0.0,0.0,0.0,0.0,0.0,-1.9751,0.0,-1.7622,0.0,0.0,0.0,0.0,0.0,0.0,0.0,-1.672,0.0,0.0,0.0,0.0,0.0,0.0,0.0,0.0,0.0,0.0,0.0,-2.1161,-2.1128,-2.0622,-2.1487,-2.1969,-2.1899,-2.1959,-2.2005,-2.2005,-2.2089,-2.2874,-2.4354,-2.4258,-2.4979,-2.6416,-2.6274,-2.6202,-2.6202,-2.6202,-2.6202,-2.6202,-2.6202,-2.6494,-2.7026,-2.7775,-2.9017,-3.0383,-3.0338,-3.0101,-2.9825,-2.9981,-2.9591,-2.9251,-3.0589,-3.1405,-3.1964,-3.2429,-3.2943,-3.3424,-3.3722,-3.3843,-3.3828,-3.3502,-3.3647,-3.3828,-3.3484,-3.3393,-3.3502,-3.3828,-3.4552,-3.5362,-3.6297,-3.7289,-3.8312,-3.9313,-3.9834,-4.004,-3.9831,-4.0208,-4.0323,-3.9861,-3.9869,-3.953,-3.85,-3.7753,-3.7277,-3.7156,-3.65,-3.632,-3.6805,-3.62,-3.5827,-3.5907,-3.5953,-3.5996,-3.5996,-3.5996,-3.5995,-3.5991,-3.5636,-3.5647,-3.5981,-3.511,-3.5168,-2.1983,0.0,0.0,0.0,0.0,0.0,0.0,0.0,0.0,0.0,0.0,0.0,0.0,0.0,0.0,0.0,0.0,-1.6624,0.0,0.0,0.0,0.0,0.0,0.0,0.0,0.0,0.0,0.0,0.0,-2.0273,-1.9688,-2.1071,-2.1869,-2.1812,-2.1812,-2.1811,-2.1855,-2.1955,-2.2796,-2.4352,-2.4241,-2.5012,-2.6485,-2.6274,-2.6202,-2.6202,-2.6202,-2.6202,-2.6202,-2.6202,-2.6319,-2.6521,-2.6605,-2.789,-2.9677,-2.9276,-2.8903,-2.8566,-2.832,-2.8049,-2.7921,-2.883,-2.9749,-3.0596,-3.1171,-3.1964,-3.2708,-3.2898,-3.2997,-3.3092,-3.3339,-3.3393,-3.3393,-3.3393,-3.323,-3.3067,-3.3067,-3.3882,-3.4769,-3.5351,-3.664,-3.793,-3.8924,-3.9526,-3.9805,-3.9629,-4.0115,-4.0285,-3.9708,-3.9931,-3.9562,-3.8051,-3.7686,-3.7183,-3.6312,-3.6236,-3.6296,-3.6434,-3.6032,-3.5827,-3.59,-3.5952,-3.5996,-3.5996,-3.5996,-3.5996,-3.5993,-3.5992,-3.6007,-3.5978,-3.5328,-3.5377,0.0,0.0,0.0,-2.1646,0.0,0.0,0.0,0.0,-1.9243,0.0,0.0,0.0,0.0,0.0,0.0,0.0,0.0,0.0,0.0,0.0,0.0,0.0,0.0,0.0,0.0,0.0,0.0,0.0,0.0,0.0,-1.9773,-2.0947,-2.1664,-2.1797,-2.1812,-2.1855,-2.1998,-2.2013,-2.2841,-2.4491,-2.4288,-2.5012,-2.6485,-2.6274,-2.6202,-2.6202,-2.6202,-2.6202,-2.6202,-2.6202,-2.6617,-2.7199,-2.6486,-2.6939,-2.793,-2.7601,-2.7432,-2.7369,-2.7353,-2.7489,-2.773,-2.7904,-2.8632,-2.9469,-2.9627,-3.0198,-3.0959,-3.1801,-3.2093,-3.2332,-3.3164,-3.3393,-3.3393,-3.3393,-3.2814,-3.2234,-3.2234,-3.3484,-3.4624,-3.4643,-3.656,-3.8318,-3.8737,-3.9364,-3.9924,-4.0313,-4.0441,-4.0496,-4.0458,-3.9754,-3.8896,-3.7993,-3.7149,-3.6293,-3.5423,-3.5346,-3.5409,-3.5532,-3.5694,-3.5836,-3.59,-3.5952,-3.5996,-3.5996,-3.5996,-3.5996,-3.5996,-3.5994,-3.5991,-3.5991,-3.5907,-3.5886,0.0,0.0,-2.2911,-2.2716,0.0,0.0,0.0,0.0,0.0,0.0,0.0,0.0,0.0,0.0,0.0,0.0,0.0,0.0,0.0,0.0,0.0,0.0,0.0,0.0,0.0,0.0,0.0,0.0,0.0,0.0,0.0,-1.889,-2.0117,-2.0088,-2.111,-2.1634,-2.154,-2.1766,-2.2571,-2.3967,-2.4033,-2.488,-2.6365,-2.6294,-2.6259,-2.6259,-2.6363,-2.631,-2.6253,-2.6755,-2.7103,-2.7265,-2.7033,-2.7158,-2.7421,-2.6824,-2.6758,-2.6954,-2.6923,-2.71,-2.7398,-2.7683,-2.8539,-2.9458,-2.9476,-3.0084,-3.0819,-3.1121,-3.125,-3.1375,-3.1713,-3.1799,-3.1799,-3.1799,-3.1999,-3.2198,-3.2198,-3.3465,-3.4754,-3.5279,-3.6472,-3.7669,-3.8521,-3.8938,-3.9346,-3.9975,-3.9789,-3.9799,-4.0412,-3.9769,-3.8935,-3.807,-3.7667,-3.6888,-3.5479,-3.5412,-3.5449,-3.5495,-3.5616,-3.5717,-3.5836,-3.5905,-3.595,-3.5996,-3.5996,-3.5996,-3.5996,-3.5996,-3.5995,-3.5995,-3.5987,-3.5932,-2.328,-2.362,0.0,-2.3436,-2.3107,0.0,-2.2242,0.0,0.0,0.0,0.0,0.0,0.0,0.0,0.0,0.0,0.0,0.0,0.0,-1.7002,0.0,0.0,0.0,0.0,0.0,0.0,0.0,0.0,0.0,0.0,0.0,0.0,-1.9311,-1.927,-2.0715,-2.1465,-2.1403,-2.1617,-2.2435,-2.3819,-2.3885,-2.4729,-2.6189,-2.6171,-2.6206,-2.6259,-2.6363,-2.646,-2.6599,-2.7156,-2.7487,-2.7607,-2.7379,-2.7448,-2.7564,-2.6568,-2.6364,-2.6572,-2.6555,-2.6741,-2.7053,-2.7274,-2.8017,-2.8856,-2.8816,-2.9298,-3.0004,-3.0593,-3.0614,-3.059,-3.1219,-3.1206,-3.1071,-3.1361,-3.16,-3.1926,-3.2506,-3.3447,-3.4516,-3.5587,-3.6218,-3.6878,-3.7849,-3.7933,-3.8209,-3.9223,-3.9356,-3.9409,-3.9549,-3.9373,-3.8785,-3.7654,-3.7505,-3.6906,-3.552,-3.546,-3.5494,-3.5502,-3.5267,-3.5329,-3.5717,-3.5516,-3.5589,-3.5952,-3.5952,-3.5974,-3.5996,-3.5996,-3.5996,-3.5996,-3.5993,-3.5983]},{"header":{"parameterUnit":"m.s-1","parameterCategory":1,"la1":30.6,"la2":29.2853,"lo1":-89.7004,"lo2":-87.6739,"dy":0.0162,"dx":0.0183,"nx":112,"ny":82,"refTime":"2024-04-18T12:00:00:Z","depth":0,"parameterNumber":3,"parameterNumberName":"V-component_of_WINDS"},"data":[0.0,0.0,0.0,0.0,0.0,0.0,0.0,0.0,0.0,0.0,0.0,0.0,0.0,0.0,0.0,0.0,0.0,0.0,0.0,0.0,0.0,0.0,0.0,0.0,0.0,0.0,0.0,0.0,0.0,0.0,0.0,0.0,0.0,0.0,0.0,0.0,0.0,0.0,0.0,0.0,0.0,0.0,0.0,0.0,0.0,0.0,0.0,0.0,0.0,0.0,0.0,0.0,0.0,0.0,0.0,0.0,0.0,0.0,0.0,0.0,0.0,0.0,0.0,0.0,0.0,0.0,0.0,0.0,0.0,0.0,0.0,0.0,0.0,0.0,0.0,0.0,0.0,0.0,0.0,0.0,0.0,0.0,0.0,0.0,0.0,0.0,0.0,0.0,0.0,0.0,-0.5826,-0.8073,-0.8706,-0.9332,-1.0257,-0.9601,-0.8393,-0.6639,0.0,0.0,0.0,0.0,0.0,0.0,0.0,0.0,0.0,0.0,0.0,0.0,0.0,0.0,0.0,0.0,0.0,0.0,0.0,0.0,0.0,0.0,0.0,0.0,0.0,0.0,0.0,0.0,0.0,0.0,0.0,0.0,0.0,0.0,0.0,0.0,0.0,0.0,0.0,0.0,0.0,0.0,0.0,0.0,0.0,0.0,0.0,0.0,0.0,0.0,0.0,0.0,0.0,0.0,0.0,0.0,0.0,0.0,0.0,0.0,0.0,0.0,0.0,0.0,0.0,0.0,0.0,0.0,0.0,0.0,0.0,0.0,0.0,0.0,0.0,0.0,0.0,0.0,0.0,0.0,0.0,0.0,0.0,0.0,0.0,0.0,0.0,0.0,0.0,0.0,0.0,0.0,0.0,0.0,0.0,0.0,0.0,0.0,0.0,0.0,0.0,0.0,0.0,0.0,-0.8929,-1.0442,-1.0866,-1.1514,-1.2677,-1.2335,-1.0739,-0.7679,0.0,0.0,0.0,0.0,0.0,0.0,0.0,0.0,0.0,0.0,0.0,0.0,0.0,0.0,0.0,0.0,0.0,0.0,0.0,0.0,0.0,0.0,0.0,0.0,0.0,0.0,0.0,0.0,0.0,0.0,0.0,0.0,0.0,0.0,0.0,0.0,0.0,0.0,0.0,0.0,0.0,0.0,0.0,0.0,0.0,0.0,0.0,0.0,0.0,0.0,0.0,0.0,0.0,0.0,0.0,0.0,0.0,0.0,0.0,0.0,0.0,0.0,0.0,0.0,0.0,0.0,0.0,0.0,0.0,0.0,0.0,0.0,0.0,0.0,0.0,0.0,0.0,0.0,0.0,0.0,0.0,0.0,0.0,0.0,0.0,0.0,0.0,0.0,0.0,0.0,0.0,0.0,0.0,0.0,0.0,0.0,0.0,0.0,0.0,0.0,0.0,0.0,0.0,-0.7007,-0.9655,-1.0732,-1.1368,-1.2186,-1.3324,-1.288,-1.1423,-0.8784,-0.7306,0.0,0.0,0.0,0.0,0.0,0.0,0.0,0.0,0.0,0.0,0.0,0.0,0.0,0.0,0.0,0.0,0.0,0.0,0.0,0.0,0.0,0.0,0.0,0.0,0.0,0.0,0.0,0.0,0.0,0.0,0.0,0.0,0.0,0.0,0.0,0.0,0.0,0.0,0.0,0.0,0.0,0.0,0.0,0.0,0.0,0.0,0.0,0.0,0.0,0.0,0.0,0.0,0.0,0.0,0.0,0.0,0.0,0.0,0.0,0.0,0.0,0.0,0.0,0.0,0.0,0.0,0.0,0.0,0.0,0.0,0.0,0.0,0.0,0.0,0.0,0.0,0.0,0.0,0.0,0.0,0.0,0.0,0.0,0.0,0.0,0.0,0.0,0.0,0.0,0.0,0.0,0.0,0.0,0.0,0.0,0.0,0.0,0.0,0.0,0.0,0.0,0.0,-0.8046,-0.964,-1.0647,-1.1312,-1.2017,-1.2845,-1.2025,-1.0708,-0.8877,-0.7502,0.0,0.0,0.0,0.0,0.0,0.0,0.0,0.0,0.0,0.0,0.0,0.0,0.0,0.0,0.0,0.0,0.0,0.0,0.0,0.0,0.0,0.0,0.0,0.0,0.0,0.0,0.0,0.0,0.0,0.0,0.0,0.0,0.0,0.0,0.0,0.0,0.0,0.0,0.0,0.0,0.0,0.0,0.0,0.0,0.0,0.0,0.0,0.0,0.0,0.0,0.0,0.0,0.0,0.0,0.0,0.0,0.0,0.0,0.0,0.0,0.0,0.0,0.0,0.0,0.0,0.0,0.0,0.0,0.0,0.0,0.0,0.0,0.0,0.0,0.0,0.0,0.0,0.0,0.0,0.0,0.0,0.0,0.0,0.0,0.0,0.0,0.0,0.0,0.0,0.0,0.0,0.0,0.0,0.0,0.0,0.0,0.0,0.0,0.0,0.0,0.0,0.0,-0.8319,-0.9447,-1.099,-1.1107,-1.1086,-1.1166,-0.9697,-0.8244,-0.6971,-0.5623,0.0,0.0,0.0,0.0,0.0,0.0,0.0,0.0,0.0,0.0,0.0,0.0,0.0,0.0,0.0,0.0,0.0,0.0,0.0,0.0,0.0,0.0,0.0,0.0,0.0,0.0,0.0,0.0,0.0,0.0,0.0,0.0,0.0,0.0,0.0,0.0,0.0,0.0,0.0,0.0,0.0,0.0,0.0,0.0,0.0,0.0,0.0,0.0,0.0,0.0,0.0,0.0,0.0,0.0,0.0,0.0,0.0,0.0,0.0,0.0,0.0,0.0,0.0,0.0,0.0,0.0,0.0,0.0,0.0,0.0,0.0,0.0,0.0,0.0,0.0,0.0,0.0,0.0,0.0,0.0,0.0,0.0,0.0,0.0,0.0,0.0,0.0,0.0,0.0,0.0,0.0,0.0,0.0,0.0,0.0,0.0,0.0,0.0,0.0,0.0,0.0,0.0,-0.8146,-0.9597,0.0,-1.09,-1.0689,-1.0688,-0.9534,-0.8148,-0.6607,0.0,0.0,0.0,0.0,0.0,0.0,0.0,0.0,0.0,0.0,0.0,0.0,0.0,0.0,0.0,0.0,0.0,0.0,0.0,0.0,0.0,0.0,0.0,0.0,0.0,0.0,0.0,0.0,0.0,0.0,0.0,0.0,0.0,0.0,0.0,0.0,0.0,0.0,0.0,0.0,0.0,0.0,0.0,0.0,0.0,0.0,0.0,0.0,0.0,0.0,0.0,0.0,0.0,0.0,0.0,0.0,0.0,0.0,0.0,0.0,0.0,0.0,0.0,0.0,0.0,0.0,0.0,0.0,0.0,0.0,0.0,0.0,0.0,0.0,0.0,0.0,0.0,0.0,0.0,0.0,0.0,0.0,0.0,0.0,0.0,0.0,0.0,0.0,0.0,0.0,0.0,0.0,0.0,0.0,0.0,0.0,0.0,0.0,0.0,0.0,0.0,0.0,-0.6191,-0.8138,-0.9842,0.0,-1.045,-1.0149,-1.0157,-0.869,-0.7305,-0.6213,0.0,0.0,0.0,0.0,0.0,0.0,0.0,0.0,0.0,0.0,0.0,0.0,0.0,0.0,0.0,0.0,0.0,0.0,0.0,0.0,0.0,0.0,0.0,0.0,0.0,0.0,0.0,0.0,0.0,0.0,0.0,0.0,0.0,0.0,0.0,0.0,0.0,0.0,0.0,0.0,0.0,0.0,0.0,0.0,0.0,0.0,0.0,0.0,0.0,0.0,0.0,0.0,0.0,0.0,0.0,0.0,0.0,0.0,0.0,0.0,0.0,0.0,0.0,0.0,0.0,0.0,0.0,0.0,0.0,0.0,0.0,0.0,0.0,0.0,0.0,0.0,0.0,0.0,0.0,0.0,0.0,0.0,0.0,0.0,0.0,0.0,0.0,0.0,0.0,0.0,0.0,0.0,0.0,0.0,0.0,0.0,0.0,0.0,0.0,0.0,0.0,0.0,-0.5835,-0.8322,-1.0123,-1.0185,-0.9723,-0.9383,-0.9404,-0.6755,-0.5242,0.0,0.0,0.0,0.0,0.0,0.0,0.0,0.0,0.0,0.0,0.0,0.0,0.0,0.0,0.0,0.0,0.0,0.0,0.0,0.0,0.0,0.0,0.0,0.0,0.0,0.0,0.0,0.0,0.0,0.0,0.0,0.0,0.0,0.0,0.0,0.0,0.0,0.0,0.0,0.0,0.0,0.0,0.0,0.0,0.0,0.0,0.0,0.0,0.0,0.0,0.0,0.0,0.0,0.0,0.0,0.0,0.0,0.0,0.0,0.0,0.0,0.0,0.0,0.0,0.0,0.0,0.0,0.0,0.0,0.0,0.0,0.0,0.0,0.0,0.0,0.0,0.0,0.0,0.0,0.0,0.0,0.0,0.0,0.0,0.0,0.0,0.0,0.0,0.0,0.0,0.0,0.0,0.0,0.0,0.0,0.0,0.0,0.0,0.0,0.0,0.0,0.0,0.0,-0.5797,-0.7869,-0.9628,-1.0213,-0.9623,-0.9115,-0.8915,-0.6299,-0.4803,-0.5088,0.0,0.0,0.0,0.0,0.0,0.0,0.0,0.0,0.0,0.0,0.0,0.0,0.0,0.0,0.0,0.0,0.0,0.0,0.0,0.0,0.0,0.0,0.0,0.0,0.0,0.0,0.0,0.0,0.0,0.0,0.0,0.0,0.0,0.0,0.0,0.0,0.0,0.0,0.0,0.0,0.0,0.0,0.0,0.0,0.0,0.0,0.0,0.0,0.0,0.0,0.0,0.0,0.0,0.0,0.0,0.0,0.0,0.0,0.0,0.0,0.0,0.0,0.0,0.0,0.0,0.0,0.0,0.0,0.0,0.0,0.0,0.0,0.0,0.0,0.0,0.0,0.0,0.0,0.0,0.0,0.0,0.0,0.0,0.0,0.0,0.0,0.0,0.0,0.0,0.0,0.0,0.0,0.0,0.0,0.0,0.0,0.0,0.0,0.0,0.0,0.0,0.0,-0.5865,-0.7818,-0.9426,-0.9889,-0.9288,-0.8606,-0.7986,-0.5827,-0.4499,-0.4508,0.0,0.0,0.0,0.0,0.0,0.0,0.0,0.0,0.0,0.0,0.0,0.0,0.0,0.0,0.0,0.0,0.0,0.0,0.0,0.0,0.0,0.0,0.0,0.0,0.0,0.0,0.0,0.0,0.0,0.0,0.0,0.0,0.0,0.0,0.0,0.0,0.0,0.0,0.0,0.0,0.0,0.0,0.0,0.0,0.0,0.0,0.0,0.0,0.0,0.0,0.0,0.0,0.0,0.0,0.0,0.0,0.0,0.0,0.0,0.0,0.0,0.0,0.0,0.0,0.0,0.0,0.0,0.0,0.0,0.0,0.0,0.0,0.0,0.0,0.0,0.0,0.0,0.0,0.0,0.0,0.0,0.0,0.0,0.0,0.0,0.0,0.0,0.0,0.0,0.0,0.0,0.0,0.0,0.0,0.0,0.0,0.0,0.0,0.0,0.0,0.0,0.0,-0.5968,-0.7935,-0.9393,-0.9379,-0.8797,-0.7991,-0.6956,-0.5435,-0.4374,-0.399,0.0,0.0,0.0,0.0,0.0,0.0,0.0,0.0,0.0,0.0,0.0,0.0,0.0,0.0,0.0,0.0,0.0,0.0,0.0,0.0,0.0,0.0,0.0,0.0,0.0,0.0,0.0,0.0,0.0,0.0,0.0,0.0,0.0,0.0,0.0,0.0,0.0,0.0,0.0,0.0,0.0,0.0,0.0,0.0,0.0,0.0,0.0,0.0,0.0,0.0,0.0,0.0,0.0,0.0,0.0,0.0,0.0,0.0,0.0,0.0,0.7723,0.0,0.0,0.0,0.0,0.0,0.0,0.0,0.0,0.0,0.0,0.0,0.0,0.0,0.0,0.0,0.0,0.0,0.0,0.0,0.0,0.0,0.0,0.0,0.0,0.0,0.0,0.0,0.0,0.0,0.0,0.0,0.0,0.0,0.0,0.0,0.0,0.0,0.0,0.0,0.0,0.0,-0.588,-0.738,-0.8701,-0.9267,-0.8353,-0.7609,-0.7371,-0.5845,-0.4766,-0.4472,-0.3621,0.0,0.0,0.0,0.0,0.0,0.0,0.0,0.0,0.0,0.0,0.0,0.0,0.0,0.0,0.0,0.0,0.0,0.0,0.0,0.0,0.0,0.0,0.0,0.0,0.0,0.0,0.0,0.0,0.0,0.0,0.0,0.0,0.0,0.0,0.0,0.0,0.0,0.0,0.0,0.0,0.0,0.0,0.0,0.0,0.0,0.0,0.0,0.0,0.0,0.0,0.0,0.0,0.0,0.0,0.0,0.0,0.0,0.0,0.0,0.0,0.849,0.0,0.0,0.0,0.0,0.0,0.0,0.0,0.0,0.0,0.0,0.0,0.0,0.0,0.0,0.0,0.0,0.0,0.0,0.0,0.0,0.0,0.0,0.0,0.0,0.0,0.0,0.0,0.0,0.0,0.0,0.0,0.0,0.0,0.0,0.0,0.0,0.0,0.0,0.0,0.0,-0.5955,-0.7691,-0.8969,-0.896,-0.8489,-0.7876,-0.7131,-0.5945,-0.5011,-0.4489,-0.3762,0.0,0.0,0.0,0.0,0.0,0.0,0.0,0.0,0.0,0.0,0.0,0.0,0.0,0.0,0.0,0.0,0.0,0.0,0.0,0.0,0.0,0.0,0.0,0.0,0.0,0.0,0.0,0.0,0.0,0.0,0.0,0.0,0.0,0.0,0.0,0.0,0.0,0.0,0.0,0.0,0.0,0.0,0.0,0.0,0.0,0.0,0.0,0.0,0.0,0.0,0.0,0.0,0.0,0.9239,0.9145,0.9126,0.9597,0.9369,0.8655,1.0491,1.0787,0.9904,0.9117,0.0,0.0,0.0,0.0,0.0,0.0,0.0,0.0,0.0,0.0,0.0,0.0,0.0,0.0,0.0,0.0,0.0,0.0,0.0,0.0,0.0,0.0,0.0,0.0,-0.1619,-0.2179,-0.1958,0.0,0.0,0.0,0.0,0.0,0.0,0.0,0.0,0.0,0.0,0.0,-0.5953,-0.794,-0.9148,-0.8594,-0.849,-0.7985,-0.6788,-0.6013,-0.5243,-0.4455,-0.3871,-0.3339,0.0,0.0,0.0,0.0,0.0,0.0,0.0,0.0,0.0,0.0,0.0,0.0,0.0,0.0,0.0,0.0,0.0,0.0,0.0,0.0,0.0,0.0,0.0,0.0,0.0,0.0,0.0,0.0,0.0,0.0,0.0,0.0,0.8036,0.9693,0.0,0.0,0.0,0.0,0.0,0.0,0.0,0.0,0.0,0.0,0.0,0.0,0.0,0.8676,0.8566,0.9937,1.0538,1.034,1.1851,1.2453,1.2311,1.2562,1.2296,1.1569,1.0509,0.0,0.9085,0.9115,0.0,0.0,0.0,0.0,0.0,0.0,0.0,0.0,0.0,0.0,0.0,0.0,0.0,0.0,0.0,0.0,0.0,0.0,0.0,0.0,0.0,0.0,-0.0861,-0.1185,-0.1614,-0.1956,0.0,-0.2604,-0.3284,-0.3692,-0.4051,0.0,0.0,0.0,0.0,0.0,0.0,0.0,-0.5582,-0.6779,-0.7786,-0.8215,-0.7391,-0.6875,-0.7029,-0.6354,-0.5607,-0.4865,-0.4423,-0.3788,-0.2922,-0.4293,0.0,0.0,0.0,0.0,0.0,0.0,0.0,0.0,0.0,0.0,0.0,0.0,0.0,0.0,0.0,0.0,0.0,0.0,0.0,0.0,0.0,0.0,0.0,0.0,0.0,0.0,0.0,0.0,0.0,0.8672,1.0002,0.8942,0.9815,0.9855,0.0,0.0,0.0,0.0,0.0,0.0,0.0,0.0,0.0,0.9214,0.9762,1.0062,1.0117,1.1228,1.1851,1.1986,1.277,1.2957,1.2595,1.3078,1.2598,1.1353,1.1028,1.0151,0.895,0.8698,0.8274,0.776,0.0,0.0,0.0,0.0,0.5298,0.5328,0.5179,0.5691,0.6224,0.5015,0.0,0.0,0.0,0.0,0.0,0.0,0.0,0.0,0.0,0.0,-0.1044,-0.089,-0.1557,-0.2239,-0.2275,-0.2766,-0.325,0.0,-0.3655,-0.3792,-0.3745,0.0,0.0,0.0,0.0,-0.6752,-0.6687,-0.7831,-0.8563,-0.8396,-0.8185,-0.7965,-0.768,-0.6813,-0.5975,-0.5281,-0.4402,-0.3605,-0.2924,-0.4019,-0.4373,0.0,0.0,0.0,0.0,0.0,0.0,0.0,0.0,0.0,0.0,0.0,0.0,0.0,0.0,0.0,0.0,0.0,0.0,0.0,0.0,0.0,0.0,0.0,0.0,0.0,0.0,0.0,0.0,1.0018,1.1065,0.9068,1.0294,1.0613,0.0,0.0,0.0,0.0,0.0,0.0,0.8951,0.902,0.9471,1.0332,1.1028,1.1421,1.1487,1.2168,1.2611,1.279,1.3001,1.2767,1.2179,1.2883,1.2303,1.0819,1.1102,1.0371,0.8894,0.8503,0.8183,0.7871,0.7608,0.7267,0.6841,0.6387,0.6253,0.6281,0.609,0.6644,0.7188,0.5965,0.5333,0.4802,0.3493,0.0,0.0,0.0,0.0,-0.0908,-0.0546,-0.0997,-0.1428,-0.0978,-0.179,-0.2683,-0.2627,-0.2995,-0.3327,0.0,-0.3496,-0.3595,-0.3691,0.0,0.0,0.0,0.0,-0.7485,-0.7414,-0.8505,-0.9055,-0.8489,-0.8787,-0.8798,-0.8281,-0.7456,-0.6597,-0.5733,-0.4686,-0.3745,-0.2936,-0.3524,-0.3656,-0.3191,0.0,0.0,0.0,0.0,0.0,0.0,0.0,0.0,0.0,0.0,0.0,0.0,0.0,0.0,0.0,0.0,0.0,0.0,0.0,0.0,0.0,0.0,0.0,0.0,0.0,0.0,0.0,0.0,0.0,1.2223,1.2578,0.0,0.0,0.0,0.0,0.8307,0.8566,0.9195,1.0251,1.0496,1.1225,1.2569,1.267,1.2722,1.2818,1.3028,1.2752,1.1979,1.2743,1.2622,1.1749,1.2378,1.2056,1.1035,1.0306,0.9496,0.8724,0.8965,0.881,0.8357,0.7399,0.731,0.76,0.6439,0.6493,0.7121,0.6987,0.7253,0.7547,0.6786,0.5085,0.3091,0.181,0.1051,0.0,0.0,-0.0763,-0.1075,-0.1359,-0.165,-0.1867,-0.1848,-0.2523,-0.3137,-0.2993,-0.3289,-0.3645,0.0,-0.3819,-0.4002,-0.4696,0.0,-0.5513,-0.5379,-0.6323,-0.6997,-0.6857,-0.7623,-0.8202,-0.8217,-0.8229,-0.8335,-0.8558,-0.8354,-0.762,-0.6244,-0.5746,-0.4717,-0.2976,-0.2936,-0.3364,-0.4213,-0.3198,0.0,0.0,0.0,0.0,0.0,0.0,0.0,0.0,0.0,0.0,0.0,0.0,0.0,0.0,0.0,0.0,0.0,0.0,0.0,0.0,0.0,0.0,0.0,0.0,0.0,0.0,0.0,0.0,1.2378,1.2476,0.0,1.0639,1.0753,1.0556,0.973,1.0445,1.1162,1.1729,1.1702,1.2185,1.33,1.32,1.3305,1.3685,1.3733,1.3639,1.3328,1.3393,1.3105,1.2479,1.2446,1.1758,1.0641,1.0244,0.9438,0.8412,0.8756,0.8626,0.8191,0.8169,0.8285,0.8397,0.806,0.8003,0.8065,0.7784,0.7816,0.7755,0.6454,0.5,0.3606,0.2682,0.2285,0.1903,0.0758,0.017,-0.0282,-0.1038,-0.1473,-0.1713,-0.1713,-0.2306,-0.2845,-0.2705,-0.3286,-0.3858,-0.3848,-0.3743,-0.3972,-0.4938,-0.5596,-0.6179,-0.6737,-0.7504,-0.8214,-0.867,-0.8627,-0.8579,-0.864,-0.8377,-0.8198,-0.8204,-0.7947,-0.7236,-0.5959,-0.5423,-0.448,-0.2958,-0.286,-0.2992,-0.3326,-0.2893,-0.2794,0.0,0.0,0.0,0.0,0.0,0.0,0.0,0.0,0.0,0.0,0.0,0.0,0.0,0.0,0.0,0.0,0.0,0.0,0.0,0.0,0.0,0.0,0.0,0.0,0.0,0.0,1.2327,1.2724,1.2957,1.2558,1.1254,1.1563,1.1653,1.1191,1.1687,1.2318,1.2896,1.279,1.3132,1.3998,1.3893,1.4028,1.435,1.4177,1.3946,1.3705,1.3553,1.3167,1.2576,1.2311,1.1569,1.0522,1.03,0.9464,0.8301,0.8635,0.8474,0.8052,0.8511,0.8705,0.8705,0.8797,0.8728,0.8461,0.7781,0.732,0.6793,0.5526,0.4577,0.382,0.3184,0.2995,0.2665,0.1216,0.0561,0.0081,-0.1059,-0.1487,-0.1657,-0.1657,-0.2268,-0.2794,-0.2605,-0.3103,-0.3638,-0.3779,-0.3885,-0.4182,-0.487,-0.5485,-0.6107,-0.677,-0.7151,-0.7666,-0.8409,-0.8312,-0.8222,-0.8385,-0.8535,-0.8573,-0.8415,-0.8104,-0.735,-0.6049,-0.5343,-0.4341,-0.2963,-0.2793,-0.2731,-0.2731,-0.2665,-0.2758,-0.3017,0.0,0.0,0.0,0.0,0.0,0.0,0.0,0.0,0.0,0.0,0.0,0.0,0.0,0.0,0.0,0.0,0.0,0.0,0.0,0.0,0.0,0.0,0.0,1.1425,1.2505,1.3244,1.3548,1.4193,1.4066,1.2606,1.2616,1.2685,1.2668,1.2243,1.2519,1.3786,1.3822,1.4103,1.4822,1.4829,1.4822,1.4822,1.4343,1.3677,1.2915,1.3068,1.2751,1.1985,1.1903,1.1493,1.0786,1.0355,0.9497,0.8409,0.8673,0.8447,0.8019,0.8349,0.8484,0.8484,0.8484,0.8447,0.8237,0.6917,0.5745,0.4713,0.4193,0.3823,0.3539,0.3145,0.2995,0.2583,0.0913,0.0355,-0.0084,-0.1405,-0.1773,-0.18,-0.18,-0.2441,-0.2998,-0.2751,-0.2762,-0.2985,-0.3643,-0.427,-0.4668,-0.4622,-0.5027,-0.538,-0.5448,-0.5249,0.0,-0.5994,-0.6595,-0.7074,-0.7413,-0.8644,-0.9363,-0.9177,-0.8828,-0.8006,-0.6553,-0.5593,-0.4425,-0.2958,-0.2715,-0.2611,-0.2606,-0.2534,-0.3166,-0.4532,0.0,0.0,0.0,0.0,0.0,0.0,0.0,0.0,0.0,0.0,0.0,0.0,0.0,0.0,0.0,0.0,0.0,0.0,0.0,0.0,0.0,1.1027,1.2199,1.2568,1.3465,1.4417,1.5296,1.509,1.4713,1.4323,1.3625,1.3377,1.3724,1.3645,1.3892,1.4615,1.3965,1.36,1.3658,1.3555,1.3541,1.357,1.3406,1.3273,1.3252,1.2418,1.2063,1.2109,1.1414,1.1163,1.1191,1.0286,0.9288,0.8253,0.8236,0.7922,0.7498,0.822,0.8252,0.7927,0.7927,0.7537,0.6845,0.601,0.5415,0.4946,0.4607,0.4227,0.3857,0.3644,0.3638,0.3407,0.2029,0.1321,0.0697,-0.0596,-0.1301,-0.1659,-0.1659,-0.1916,-0.2233,-0.2555,-0.2749,-0.2943,-0.3187,-0.3815,-0.4513,-0.5011,-0.574,-0.636,-0.6723,-0.6963,0.0,-0.794,-0.8088,-0.8195,-0.8409,-0.8158,-0.8074,-0.8306,-0.7446,-0.6543,-0.5751,-0.5185,-0.4266,-0.2884,-0.2962,-0.2988,-0.2888,-0.2496,-0.2571,0.0,0.0,0.0,0.0,0.0,0.0,0.0,0.0,0.0,0.0,0.0,0.0,0.0,0.0,0.0,0.0,0.0,0.0,0.0,0.0,0.0,0.0,1.2552,1.393,1.4479,1.5054,1.5666,1.6335,1.6031,1.5562,1.5034,1.4467,1.4255,1.4557,1.4053,1.4021,1.4624,1.3829,1.3235,1.304,1.304,1.2997,1.2839,1.2663,1.2548,1.2491,1.1799,1.1502,1.1486,1.0794,1.0462,1.0366,0.9835,0.8967,0.7897,0.7874,0.7624,0.0,0.0,0.0,0.0,0.0,0.6814,0.6057,0.5662,0.5216,0.4833,0.466,0.4424,0.4142,0.3862,0.3698,0.3322,0.1884,0.1118,0.0509,-0.06,-0.1175,-0.1459,-0.143,-0.18,-0.221,-0.2418,-0.2663,-0.2861,-0.2979,-0.3255,0.0,-0.4453,-0.534,-0.607,-0.646,-0.6603,-0.6813,-0.7163,-0.7432,-0.7652,-0.7773,-0.7703,-0.7752,-0.802,-0.7145,0.0,0.0,0.0,-0.4226,-0.2941,-0.3062,0.0,0.0,0.0,-0.2987,-0.2647,0.0,0.0,0.0,-0.492,-0.5161,0.0,0.0,0.0,0.0,0.0,0.0,0.0,0.0,0.0,0.0,0.0,0.0,0.0,0.0,0.0,0.0,1.4029,1.5374,1.6737,1.6927,1.6964,1.7056,1.6929,1.6423,1.5455,1.5159,1.5081,1.516,1.4053,1.3655,1.4216,0.0,0.0,0.0,0.0,1.2721,1.2351,1.208,1.1719,1.1255,1.1202,1.0909,1.0434,1.0154,0.9691,0.9138,0.923,0.8631,0.7626,0.7715,0.7527,0.7169,0.6913,0.7097,0.7461,0.6848,0.6205,0.5661,0.5592,0.0,0.0,0.4544,0.4537,0.4442,0.3905,0.3487,0.288,0.1276,0.0531,0.0024,-0.085,-0.1139,-0.1187,-0.1144,-0.1746,-0.2338,-0.2307,-0.2434,-0.2673,-0.2933,-0.2732,-0.2735,-0.3559,-0.4467,-0.5175,-0.5426,-0.537,-0.5298,-0.5298,-0.5925,-0.6426,-0.6548,0.0,0.0,-0.7986,-0.7283,-0.6807,-0.6687,-0.5521,-0.4363,-0.3328,-0.3336,-0.3263,-0.3038,-0.4114,-0.4136,-0.3076,-0.5512,-0.6081,-0.495,-0.6726,-0.7755,0.0,0.0,0.0,0.0,0.0,0.0,0.0,0.0,0.0,0.0,0.0,0.0,0.0,0.0,0.0,1.4628,1.5957,1.7159,1.8219,1.8377,1.8457,1.8572,1.7567,1.7045,1.7451,1.5855,1.5019,1.5631,1.5261,1.493,1.4607,1.3716,1.2791,1.1927,1.1728,1.163,1.1537,1.1701,1.1511,1.1056,0.0,0.0,0.9992,0.9727,0.9723,0.9876,0.9414,0.8826,0.8235,0.8136,0.7683,0.6993,0.6455,0.6305,0.6273,0.5266,0.5128,0.5379,0.4846,0.4902,0.5189,0.4912,0.4813,0.4697,0.4055,0.3894,0.0,0.2609,0.1926,0.1352,0.0584,-0.006,-0.0552,-0.074,-0.0773,-0.1008,-0.2003,-0.1995,-0.2037,-0.284,-0.3016,-0.3293,-0.4103,-0.5018,-0.5697,-0.5851,-0.663,-0.7169,-0.7169,-0.7369,-0.7498,-0.7528,-0.7129,-0.7003,-0.7352,-0.6115,-0.5519,-0.5971,-0.5395,-0.5035,-0.5012,-0.4977,-0.5012,-0.5125,-0.5508,-0.5603,-0.537,-0.747,-0.8336,-0.8021,-0.7507,-0.7372,0.0,0.0,0.0,0.0,0.0,0.0,0.0,0.0,0.0,0.0,0.0,1.2178,1.241,0.0,1.438,1.6131,1.7036,1.789,1.8955,1.8788,1.8584,1.8633,1.7713,1.7169,1.7414,1.6258,1.553,1.5771,1.5588,1.5057,1.4148,1.3366,1.2414,1.118,1.1111,1.0935,1.0641,1.0868,1.0757,1.0302,0.9971,0.9664,0.9449,0.9456,0.9433,0.94,0.9327,0.9026,0.8514,0.8305,0.7695,0.6861,0.6645,0.6389,0.6093,0.5501,0.5392,0.5467,0.5115,0.5182,0.538,0.5218,0.5152,0.4977,0.4128,0.3768,0.3403,0.2265,0.1647,0.116,0.0595,0.0177,-0.0174,-0.0449,-0.0602,-0.0929,-0.174,-0.1945,-0.214,-0.2639,-0.2764,-0.2894,-0.3377,-0.4234,-0.5215,-0.6239,-0.6894,-0.7254,-0.7284,-0.7327,-0.7289,-0.7109,-0.672,-0.6544,-0.6777,-0.6277,-0.6038,-0.6235,-0.6062,-0.5827,-0.5563,-0.5525,-0.5593,-0.5794,-0.6488,-0.6642,-0.6207,-0.8448,-0.917,-0.846,-0.87,-0.915,0.0,0.0,0.0,0.0,0.0,0.0,0.0,0.0,1.2915,1.3103,1.3392,1.3751,1.4162,1.4765,1.5704,1.7223,1.7656,1.8179,1.9178,1.8692,1.82,1.82,1.7622,1.7176,1.6991,1.6388,1.5879,1.5594,1.53,1.4581,1.3323,1.2883,1.2018,1.0692,1.0764,1.0616,1.0105,1.0321,1.0172,0.9671,0.9615,0.9359,0.9007,0.9238,0.9101,0.8784,0.9291,0.9324,0.8993,0.8626,0.8024,0.7266,0.7234,0.6912,0.6476,0.6306,0.601,0.5729,0.5729,0.5632,0.5492,0.5453,0.5357,0.5099,0.4107,0.3501,0.2911,0.1755,0.1189,0.0862,0.0398,0.0315,0.023,-0.0121,-0.0517,-0.0901,-0.1288,-0.1777,-0.2209,-0.2363,-0.2364,-0.2365,-0.2537,-0.3189,-0.4278,-0.6117,-0.6538,-0.6707,-0.6863,-0.6834,-0.6698,-0.6421,-0.6317,-0.6291,-0.632,-0.6759,-0.6964,-0.6781,-0.7003,-0.6836,-0.6121,-0.6178,-0.6331,-0.6509,-0.7576,-0.7798,-0.7147,-0.9166,-0.9561,-0.8443,-0.973,-1.0886,1.0321,0.9862,0.0,1.0954,1.2292,1.354,0.0,0.0,1.6512,1.5908,1.6039,1.6483,1.7116,1.6774,1.6792,1.7908,1.7992,1.8146,1.8965,1.8379,1.787,1.787,1.7391,1.7191,1.7541,1.6257,1.5242,1.4831,1.4412,1.3658,1.2575,1.2467,1.1961,1.0915,1.0697,1.0581,1.0548,1.0796,1.0623,0.9953,1.0362,0.9999,0.8985,0.9023,0.9009,0.8994,0.9645,0.9995,1.0091,0.971,0.9346,0.8944,0.8263,0.7842,0.7537,0.669,0.6285,0.615,0.615,0.6004,0.58,0.5646,0.5259,0.4757,0.4092,0.3489,0.2919,0.2344,0.206,0.1795,0.114,0.1038,0.091,0.0296,0.0203,0.0085,-0.0423,-0.09,-0.1402,-0.195,-0.2227,-0.2477,-0.2814,-0.2839,-0.3308,-0.4735,-0.5654,-0.6332,-0.6766,-0.6605,-0.6445,-0.6395,-0.6296,-0.6163,-0.6049,-0.6734,-0.7115,-0.6972,-0.7864,-0.8229,-0.7835,-0.8269,-0.8607,-0.8737,-0.9333,-0.9695,-0.9784,-1.0176,-1.0195,-0.9878,-1.005,-1.0389,1.1577,0.0,0.0,0.0,1.4198,1.5481,1.6284,1.7103,1.7525,1.6927,1.7388,1.7847,1.7505,1.7517,1.793,0.0,1.8775,1.8642,1.9319,1.8483,1.7749,1.7543,1.6154,1.5404,1.5784,1.5863,1.5258,1.3781,1.4541,1.425,1.2473,1.2506,1.2062,1.0948,1.0811,1.0649,1.0407,1.0626,1.0558,1.0199,1.0375,1.0212,0.9782,0.9903,1.0064,1.0174,1.0037,1.02,1.0442,1.0184,0.9911,0.9646,0.9208,0.8681,0.8106,0.7212,0.6713,0.6499,0.6499,0.6348,0.6165,0.6,0.5502,0.4867,0.4306,0.3647,0.3019,0.2638,0.2476,0.2335,0.1877,0.1593,0.1295,0.0799,0.0517,0.028,-0.0196,-0.0448,-0.0784,-0.1457,-0.182,-0.2052,-0.2234,-0.2469,-0.2925,-0.3824,-0.4853,-0.5751,-0.6376,-0.6458,-0.6357,-0.6085,-0.5939,-0.5942,-0.6149,-0.6519,-0.6881,-0.7215,-0.7809,-0.8132,-0.8096,-0.8385,-0.8844,-0.9436,-0.9478,-0.9756,-1.0311,-1.0262,-1.0157,-1.003,-0.9951,-1.0,1.2184,0.0,0.0,1.466,1.5975,1.7206,1.7747,1.8231,1.8325,1.7661,1.8181,1.8499,1.7636,1.7798,1.8316,1.9067,1.8696,1.8504,1.9142,1.8073,1.7092,1.6742,1.4887,1.3542,1.3348,1.433,1.4397,1.2928,1.3848,1.3766,1.217,1.2209,1.1834,1.0863,1.0806,1.0654,1.0321,1.045,1.0465,1.0378,1.0388,1.0366,1.031,1.0517,1.0715,1.0883,1.046,1.0447,1.0719,1.0552,1.0375,1.0161,0.9961,0.9419,0.8621,0.7978,0.7335,0.6853,0.6853,0.6734,0.6541,0.6394,0.5736,0.4931,0.4528,0.3778,0.3,0.2752,0.2689,0.2603,0.224,0.1998,0.1675,0.1124,0.0849,0.0597,0.0142,-0.0141,-0.0505,-0.1038,-0.1496,-0.1804,-0.1807,-0.2107,-0.2495,-0.2895,-0.391,-0.4988,-0.5937,-0.6234,-0.6254,-0.5936,-0.5714,-0.5705,-0.6057,-0.6382,-0.6744,-0.7184,-0.7713,-0.8065,-0.8202,-0.8385,-0.8848,-0.9628,-0.9554,-0.9791,-1.037,-1.0312,-1.0225,-1.0078,-0.9951,-0.9823,0.0,0.0,1.3267,1.512,1.7014,1.8291,1.7751,1.877,1.9561,1.8571,1.8501,1.8488,1.8046,1.7677,1.7453,1.7492,1.7188,1.7196,1.7836,1.6676,1.5621,1.5219,1.3665,1.2062,0.0,1.1172,1.1924,1.2659,1.1694,1.1082,1.1233,1.1243,1.1053,1.064,1.063,1.0517,1.0309,1.0304,1.0411,1.0569,1.0606,1.0491,1.0284,1.0324,1.0444,1.0737,1.0888,1.0966,1.0972,1.0966,1.0832,1.0552,1.0414,0.9923,0.9249,0.9112,0.8239,0.7179,0.7179,0.7098,0.6951,0.6733,0.5837,0.4785,0.4708,0.3771,0.272,0.2702,0.2706,0.2603,0.2143,0.2191,0.2156,0.1221,0.1229,0.1324,0.0794,-0.0029,-0.0701,-0.0701,-0.1467,-0.2038,-0.1835,-0.1773,-0.1745,-0.1833,-0.275,-0.3996,-0.5516,-0.5882,-0.607,-0.6184,-0.5781,-0.5519,-0.5517,-0.641,-0.6909,-0.6731,-0.7819,-0.8488,-0.8488,-0.88,-0.9142,-0.95,-1.0001,-1.0293,-1.0303,-1.0612,-1.0612,-1.0283,-1.0157,-0.999,0.0,0.0,1.4534,1.5969,1.7233,1.8202,1.8618,1.9052,1.9033,1.8132,1.7682,1.724,1.6539,1.5915,1.5961,1.7254,1.6335,1.6116,1.8112,1.6208,1.4904,1.5597,1.3434,0.0,0.0,0.0,0.0,1.084,1.1608,1.1913,1.1499,1.1332,1.1195,1.1088,1.0757,1.0592,1.0559,1.0694,1.0794,1.0888,1.1016,1.1102,1.1244,1.1244,1.1367,1.156,1.1304,1.1284,1.1433,1.1257,1.1241,1.1348,1.1261,1.0947,1.0403,0.9742,0.9043,0.8365,0.7787,0.7551,0.7484,0.713,0.653,0.5801,0.5169,0.432,0.3471,0.3119,0.3047,0.2984,0.2825,0.2649,0.245,0.2123,0.1786,0.1444,0.1267,0.0517,-0.0168,-0.0449,-0.115,-0.1688,-0.1666,-0.1773,-0.197,-0.2329,-0.3205,-0.4296,-0.5666,-0.5891,-0.5961,-0.6003,-0.571,-0.5548,-0.5694,-0.622,-0.6632,-0.6874,-0.7706,-0.8214,-0.8291,-0.87,-0.9136,-0.9569,-0.9696,-0.9883,-1.0098,-1.0264,-1.0205,-0.998,-1.0196,-1.0176,0.0,1.4784,1.6405,1.7521,1.8443,1.9014,1.8709,1.872,1.8434,1.7098,1.6572,1.5991,1.4838,1.4207,1.4359,1.585,1.4958,1.5042,1.7691,1.5972,1.4713,1.5498,1.3426,1.2213,0.0,0.0,0.0,1.0184,1.1365,1.1809,1.1203,1.1162,1.1266,1.1435,1.108,1.086,1.0811,1.0865,1.1001,1.1259,1.1434,1.1696,1.1957,1.1867,1.1642,1.1348,1.1486,1.1359,1.1053,1.1402,1.1592,1.1725,1.1776,1.1441,1.0856,1.027,0.9597,0.8869,0.8133,0.7872,0.7722,0.7186,0.6612,0.5944,0.5087,0.4353,0.3713,0.3284,0.3234,0.3286,0.3187,0.3029,0.2881,0.2678,0.2269,0.1827,0.1644,0.101,0.029,-0.0232,-0.0855,-0.1332,-0.1494,-0.1539,-0.1728,-0.2256,-0.2828,-0.3744,-0.5274,-0.5531,-0.5624,-0.578,-0.5471,-0.5373,-0.5676,-0.5945,-0.6295,-0.6719,-0.7308,-0.7793,-0.8118,-0.8414,-0.8852,-0.9421,-0.947,-0.966,-0.9966,-1.0027,-1.003,-0.998,-1.0321,-1.0428,1.5749,1.7446,1.8663,1.9571,2.0421,2.0446,1.8096,1.7943,1.7719,1.5674,1.5196,1.4647,0.0,0.0,1.2636,1.3377,1.3199,1.3909,1.6686,1.5783,1.4833,0.0,0.0,0.0,0.0,0.0,0.0,1.0809,0.0,1.0922,1.0546,1.0892,1.129,1.1699,1.1466,1.1248,1.105,1.0875,1.1089,1.1698,1.1932,1.2159,1.242,1.2186,1.1429,1.0428,1.1553,1.1227,1.0049,1.1415,1.1914,1.1742,1.1957,1.1464,1.0679,1.0746,0.9953,0.8792,0.8344,0.8025,0.7712,0.6977,0.6166,0.5356,0.4577,0.3976,0.3527,0.3233,0.3337,0.3449,0.3191,0.3298,0.3362,0.2855,0.2694,0.2478,0.1965,0.1353,0.0708,0.0,-0.0554,-0.0976,-0.1336,-0.1123,-0.1074,-0.1596,-0.1693,-0.2405,-0.4386,-0.4828,-0.5088,-0.5496,-0.5092,-0.4967,-0.5398,-0.5666,-0.5937,-0.6246,-0.6698,-0.7273,-0.7938,-0.7995,-0.833,-0.9063,-0.9383,-0.964,-0.9858,-0.9966,-1.0087,-1.0264,-1.0509,-1.0721,1.6507,1.7905,1.9184,1.9734,1.9578,1.9107,1.8285,1.7569,1.6618,1.5032,1.3747,1.2555,0.0,0.0,0.0,1.321,1.1861,0.0,1.5944,1.4458,0.0,1.5005,0.0,1.3675,1.4018,1.377,0.0,0.0,1.2391,1.2557,1.2507,1.2409,1.2292,1.2225,1.1685,1.1528,1.182,1.1762,1.1811,1.2015,1.2192,1.2547,1.3005,1.2941,1.2692,1.2351,1.2528,1.2264,1.1753,1.1938,1.208,1.224,1.2283,1.2157,1.1895,1.1566,1.1147,1.0582,0.9622,0.8841,0.8101,0.7343,0.7037,0.6716,0.5377,0.4877,0.4624,0.4034,0.3744,0.3629,0.3569,0.3427,0.3295,0.3295,0.3056,0.2734,0.2445,0.1791,0.1139,0.0708,0.0,-0.0739,-0.1375,-0.119,-0.101,-0.1171,-0.1479,-0.2274,-0.3828,-0.3986,-0.4161,-0.4661,-0.4816,-0.48,-0.4611,-0.53,-0.5787,-0.5916,-0.6273,-0.6761,-0.737,-0.7781,-0.8259,-0.8786,-0.9468,-0.9665,-0.9379,-0.9846,-0.9947,-0.9709,-1.0414,-1.0768,1.8238,1.9353,2.0236,2.0075,1.9469,1.8685,1.7621,1.6407,1.5044,1.3429,1.2204,0.0,0.9857,0.0,0.0,0.0,0.0,0.0,1.4655,1.3856,1.3507,0.0,1.4739,0.0,1.5039,1.4865,1.4507,0.0,1.3566,1.3211,1.2974,1.2784,1.272,1.2894,1.221,1.1935,1.2094,1.2202,1.2284,1.2427,1.2495,1.2791,1.3309,1.3221,1.2928,1.2517,0.0,1.2607,1.1787,1.2192,1.2351,1.2394,1.2149,1.2108,1.2163,1.1705,1.1413,1.1128,1.049,0.9829,0.9067,0.7693,0.7008,0.6528,0.5351,0.4865,0.4615,0.4111,0.3994,0.3982,0.3914,0.3802,0.3746,0.381,0.3583,0.3295,0.3154,0.2525,0.176,0.112,0.0222,-0.0569,-0.0992,-0.1111,-0.1138,-0.112,-0.1314,-0.1805,-0.2881,-0.3129,-0.3444,-0.412,-0.4182,-0.424,-0.4388,-0.4892,-0.5373,-0.5723,-0.6023,-0.6419,-0.7004,-0.7507,-0.808,-0.8682,-0.9186,-0.9428,-0.9423,-0.9615,-0.9688,-0.9705,-1.0662,-1.1148,2.0218,2.107,2.1352,2.0488,1.9747,1.8683,1.6684,1.5057,1.3442,1.1609,0.0,0.9895,0.8534,0.8005,0.8151,0.9361,0.0,1.0408,1.3182,1.3535,1.4017,1.5318,1.5109,1.5048,1.5424,1.519,1.5244,1.5744,1.4656,1.3703,1.3031,1.2933,1.3129,1.357,1.2852,1.2391,1.2189,1.2386,1.2589,1.2792,1.2749,1.2986,1.3508,1.3213,1.2668,1.1922,1.2993,1.256,1.1226,1.2311,1.2624,1.2382,1.1907,1.1862,1.2005,1.1624,1.134,1.1178,1.1103,1.0878,1.0235,0.8172,0.6807,0.5848,0.5095,0.4512,0.4118,0.4006,0.4176,0.4346,0.4206,0.4266,0.4336,0.4242,0.4079,0.3946,0.3888,0.3316,0.2498,0.1452,0.0462,-0.0261,-0.0468,-0.0856,-0.1176,-0.1273,-0.1176,-0.13,-0.1886,-0.2344,-0.2897,-0.3619,-0.3479,-0.3607,-0.4367,-0.4518,-0.4904,-0.5657,-0.5864,-0.6223,-0.6755,-0.7283,-0.7893,-0.8661,-0.8829,-0.9153,-0.9663,-0.9409,-0.9501,-0.9939,-1.104,-1.1654,2.0981,2.141,2.1542,2.0743,1.9676,1.8377,1.673,1.4725,0.0,0.0,0.9801,0.8609,0.7791,0.7606,0.8054,0.957,0.0,0.0,0.0,0.0,1.343,0.0,0.0,0.0,0.0,0.0,0.0,0.0,1.5817,1.5478,1.4732,1.4845,1.4671,1.4202,1.3253,1.273,1.2662,1.2725,1.2752,1.2797,1.2794,1.3029,1.3467,1.3266,1.3079,1.2879,1.3063,0.0,1.2389,1.2441,1.2533,1.2613,1.2359,1.2298,1.2335,1.2421,1.2318,1.2114,1.1702,1.1545,1.1161,0.9167,0.7822,0.6791,0.5934,0.506,0.4409,0.4722,0.4579,0.4358,0.4465,0.4323,0.4179,0.4336,0.4331,0.4324,0.4306,0.3769,0.3019,0.2118,0.1699,0.1069,-0.0268,-0.0334,-0.0434,-0.1041,-0.1109,-0.1242,-0.1636,-0.1944,-0.225,-0.262,-0.3106,-0.3584,-0.4051,-0.4293,-0.4823,-0.5716,-0.5772,-0.6044,-0.6699,-0.7376,-0.7989,-0.8525,-0.9141,-0.9474,-0.9528,-0.9641,-0.9824,-1.0104,-1.1169,-1.1803,2.1267,2.175,2.2017,2.0719,1.965,1.8254,1.5768,0.0,0.0,0.0,0.8963,0.8192,0.7565,0.0,0.0,0.0,0.0,0.0,0.0,0.0,0.0,0.0,0.0,0.0,0.0,0.0,0.0,0.0,1.5965,1.5956,1.5728,1.5667,1.5183,1.4168,1.3796,1.3437,1.3152,1.3055,1.3043,1.3171,1.2766,1.2777,1.3136,1.3023,1.3052,1.3147,1.3237,1.2821,1.2106,1.2467,1.2324,1.1899,1.2121,1.233,1.2559,1.2506,1.2499,1.2516,1.2307,1.2139,1.178,1.0126,0.8639,0.7252,0.626,0.5393,0.4789,0.4995,0.4956,0.4862,0.4917,0.4781,0.4673,0.4625,0.4661,0.4651,0.4432,0.4066,0.3606,0.2997,0.2308,0.1478,0.0412,-0.0069,-0.0513,-0.1112,-0.1157,-0.1196,-0.1415,-0.1562,-0.187,-0.2433,-0.2784,-0.3309,-0.4152,-0.4397,-0.4915,-0.5896,-0.5882,-0.6074,-0.6566,-0.7089,-0.7675,-0.8274,-0.8776,-0.9178,-0.949,-0.9603,-0.9723,-0.993,-1.0988,-1.163,2.1474,2.204,2.2274,2.0609,1.9476,1.795,1.4854,1.2794,0.0,0.0,0.8379,0.8003,0.7524,0.0,0.7591,0.0,0.0,0.0,0.0,0.0,0.0,0.0,0.0,0.0,0.0,0.0,0.0,0.0,1.6072,1.6186,1.6458,1.6044,1.5471,1.4766,1.44,1.4109,1.3929,1.3339,1.3199,1.3485,1.2685,1.2524,1.294,1.2775,1.2909,1.3286,1.3363,1.2688,1.1619,1.2441,1.2132,1.121,1.1891,1.2397,1.2681,1.2475,1.253,1.2705,1.2705,1.2619,1.2242,1.0884,0.9289,0.7635,0.6494,0.5616,0.5032,0.5155,0.5241,0.5305,0.5252,0.5224,0.5178,0.4993,0.5068,0.5138,0.4768,0.4546,0.4311,0.3894,0.2901,0.1933,0.1203,0.0353,-0.0456,-0.0996,-0.107,-0.1139,-0.1258,-0.1248,-0.1534,-0.2317,-0.2484,-0.3049,-0.4288,-0.4505,-0.5067,-0.6187,-0.6207,-0.6288,-0.6587,-0.6908,-0.744,-0.8157,-0.8363,-0.8837,-0.9628,-0.9566,-0.9616,-0.9853,-1.0814,-1.1343,2.197,2.2178,2.1919,2.0532,1.8896,1.7049,1.4809,0.0,0.0,0.9291,0.8318,0.7633,0.75,0.757,0.7818,0.0,0.0,0.8349,0.0,0.0,0.0,0.0,0.0,0.0,0.0,0.0,0.0,0.0,1.6874,1.7079,1.7043,1.6007,1.5989,1.715,1.5078,1.4393,1.5406,1.3701,1.3031,1.3485,1.2517,1.2541,1.3426,1.2716,1.2814,1.3456,1.3221,1.2586,0.0,1.2437,1.2155,1.1381,1.2279,1.2638,1.2699,1.2681,1.2687,1.2705,1.2705,1.2705,1.2479,1.1327,0.9743,0.8119,0.6899,0.5699,0.4826,0.5243,0.5241,0.5155,0.5355,0.5394,0.5388,0.5366,0.5641,0.5884,0.5719,0.5579,0.5275,0.4631,0.4018,0.3213,0.1937,0.1233,0.058,-0.0181,-0.0765,-0.1089,-0.1114,-0.1127,-0.1276,-0.1642,-0.2086,-0.2902,-0.4275,-0.4458,-0.5144,-0.6633,-0.6746,-0.6768,-0.6875,-0.7246,-0.7732,-0.8368,-0.8338,-0.888,-1.0036,-0.9743,-0.9809,-1.0271,-1.078,-1.1099,2.0139,2.1005,2.1358,1.9717,1.8123,1.6272,1.3576,0.0,1.0113,0.8733,0.8203,0.7928,0.7614,0.7261,0.7234,0.0,0.0,0.0,0.0,0.0,0.0,0.0,0.0,0.0,0.0,0.0,0.0,0.0,1.6653,1.6901,1.7369,1.6948,1.67,1.6766,1.5987,1.5635,1.5742,1.4539,1.4034,1.4192,1.3032,1.2705,1.3062,1.2773,1.2909,1.332,1.3147,1.2139,0.0,1.212,1.1705,1.0382,1.2064,1.2705,1.2705,1.2705,1.2813,1.2958,1.2958,1.3061,1.2986,1.1795,1.0577,0.9244,0.7649,0.6485,0.5713,0.5586,0.5543,0.5483,0.5454,0.551,0.5538,0.541,0.5823,0.6118,0.5699,0.565,0.5531,0.5038,0.4242,0.3363,0.2529,0.1306,0.0341,-0.0075,-0.0854,-0.136,-0.1187,-0.1122,-0.1137,-0.1275,-0.1749,-0.2628,-0.4043,-0.4466,-0.5207,-0.6429,-0.6692,-0.6794,-0.6766,-0.6815,-0.7112,-0.7717,-0.7953,-0.856,-0.9632,-0.9821,-0.9962,-1.007,-1.0421,-1.0707,1.8335,1.944,2.0127,1.8768,1.7058,1.5097,0.0,0.0,0.9632,0.8374,0.8075,0.7978,0.7747,0.7134,0.6853,0.0,0.0,0.7291,0.0,0.0,0.0,0.0,0.0,0.0,0.0,0.0,0.0,0.0,1.6774,1.6934,1.7549,1.7544,1.7244,1.6689,1.6431,1.619,1.596,1.503,1.4613,1.4671,1.354,1.2839,1.2657,1.2917,1.296,1.282,1.3174,1.2287,0.0,1.2279,1.1897,1.0468,1.223,1.2946,1.2934,1.2856,1.2952,1.3083,1.3083,1.3188,1.312,1.2337,1.149,1.0377,0.866,0.7309,0.6299,0.5819,0.5688,0.5669,0.5583,0.5628,0.565,0.552,0.5899,0.6198,0.5735,0.5722,0.5717,0.5352,0.4537,0.3749,0.3125,0.18,0.063,0.0078,-0.0694,-0.1221,-0.1308,-0.1195,-0.117,-0.1205,-0.1488,-0.2203,-0.3516,-0.4238,-0.5093,-0.6092,-0.6497,-0.6725,-0.6786,-0.6611,-0.6803,-0.7373,-0.7878,-0.8598,-0.9543,-1.0016,-1.0167,-1.0001,-1.0121,-1.0341,1.6944,1.7576,1.7926,1.781,1.5716,1.337,0.0,0.0,0.8904,0.849,0.7868,0.7534,0.7928,0.7337,0.6981,0.751,0.0,0.0,0.0,0.0,0.0,0.0,0.0,0.0,0.0,0.0,0.0,0.0,1.7569,0.0,1.7582,1.7582,1.7605,1.7579,1.6195,1.5678,1.6266,1.4935,1.4373,1.4675,1.38,1.3013,1.2318,1.3217,1.2962,1.2002,1.3316,1.3186,0.0,1.3106,1.2939,1.2188,1.3132,1.3507,1.3477,1.3173,1.3121,1.3083,1.3083,1.2946,1.2759,1.2987,1.2455,1.1413,1.0019,0.8093,0.6299,0.5819,0.5688,0.5688,0.5688,0.5686,0.5686,0.5686,0.5905,0.6086,0.5912,0.5987,0.5961,0.5499,0.5165,0.4685,0.3738,0.296,0.1945,0.0446,-0.0038,-0.0557,-0.1483,-0.1354,-0.1276,-0.1458,-0.1246,-0.1556,-0.2618,-0.3682,-0.4724,-0.5726,-0.624,-0.6654,-0.6973,-0.6867,-0.7033,-0.7576,-0.8317,-0.9168,-1.0077,-1.0421,-1.0444,-1.0186,-0.998,-1.0002,1.4114,1.4701,1.493,1.4219,1.296,1.1632,1.0623,0.0,0.8655,0.8159,0.804,0.7878,0.7459,0.6994,0.682,0.7261,0.7168,0.0,0.0,0.0,0.0,0.0,0.0,0.0,0.0,0.0,0.0,0.0,1.7027,1.6911,1.7313,1.7094,1.7049,1.7264,1.6874,1.6684,1.6797,1.6035,1.5651,1.571,1.4734,1.367,1.2606,1.3418,1.3107,1.1957,1.3321,1.3141,1.2047,1.3082,1.2903,1.2081,1.3119,1.3513,1.3507,1.3423,1.3393,1.3417,1.3598,1.3598,1.3538,1.3628,1.3141,1.2177,1.0404,0.8939,0.7577,0.6305,0.5983,0.5937,0.5731,0.5882,0.606,0.5752,0.5994,0.6177,0.5705,0.5862,0.599,0.5566,0.516,0.4848,0.4606,0.3217,0.1835,0.0932,0.0041,-0.0869,-0.1765,-0.1466,-0.1347,-0.1685,-0.1476,-0.1605,-0.2313,-0.298,-0.3734,-0.4652,-0.5548,-0.6249,-0.6693,-0.689,-0.7101,-0.7248,-0.7894,-0.8646,-0.9486,-1.0007,-1.0227,-1.0186,-0.976,-0.9701,0.0,1.2493,1.2653,1.2189,1.1285,0.0,0.0,0.0,0.8356,0.8234,0.8162,0.8029,0.7632,0.7051,0.6699,0.687,0.7216,0.0,0.0,0.0,0.0,0.0,0.0,0.0,0.0,0.0,0.0,1.7454,1.7014,1.6931,1.7186,1.7074,1.6991,1.6971,1.6881,1.6857,1.688,1.6443,1.6231,1.6202,1.553,1.4481,1.3153,1.4167,1.3746,1.2272,1.3748,1.3726,0.0,1.3484,1.343,1.2883,1.3558,1.3809,1.3797,1.3701,1.3664,1.3682,1.3851,1.3839,1.3773,1.3876,1.3316,1.2276,1.0614,0.9125,0.7711,0.6514,0.6305,0.6335,0.595,0.5979,0.607,0.5814,0.5939,0.6015,0.5679,0.5764,0.5885,0.5635,0.5354,0.5141,0.499,0.3761,0.2517,0.16,0.0547,-0.0495,-0.1374,-0.1333,-0.1377,-0.1792,-0.1615,-0.1678,-0.2166,-0.2518,-0.3153,-0.4169,-0.4922,-0.5675,-0.6457,-0.6845,-0.7021,-0.7021,-0.7858,-0.8504,-0.8899,-0.9567,-1.0032,-1.0332,-0.982,-0.9659,0.0,1.0848,1.0939,1.1335,1.0434,0.9442,0.9303,0.0,0.0,0.857,0.8292,0.8026,0.8262,0.7497,0.6753,0.6564,0.7623,0.0,0.0,0.0,0.0,0.0,0.0,0.0,0.0,0.0,0.0,1.7253,1.746,1.7474,1.7186,1.7427,1.7261,1.6693,1.6413,1.6412,1.6648,1.6308,1.6088,1.6122,1.6081,1.5249,1.3738,1.5152,1.4699,0.0,1.4399,1.4652,0.0,1.4208,1.4298,1.4298,1.4298,1.4298,1.4268,1.402,1.3924,1.3912,1.393,1.3761,1.354,1.3752,1.3043,1.1914,1.071,0.889,0.7165,0.6566,0.6668,0.6821,0.6289,0.6059,0.5923,0.5907,0.5822,0.5699,0.5691,0.5688,0.5688,0.5688,0.5688,0.5562,0.5053,0.4554,0.3774,0.2431,0.1363,0.0423,-0.0563,-0.1024,-0.146,-0.1873,-0.1713,-0.1792,-0.217,-0.2301,-0.2895,-0.4116,-0.4386,-0.5029,-0.6193,-0.667,-0.6881,-0.6912,-0.8133,-0.8641,-0.8413,-0.9151,-0.9865,-1.0555,-1.01,-0.9831,0.9081,0.0,0.851,0.8608,0.839,0.8131,0.0,0.0,0.0,0.0,0.0,0.8474,0.8327,0.8082,0.7902,0.7851,0.0,0.0,0.0,0.0,0.0,0.0,0.0,0.0,0.0,0.0,0.0,1.7482,1.7387,1.7172,1.682,1.6874,1.6747,1.6386,1.6306,1.6311,1.6334,1.6231,1.5817,1.515,1.5857,1.4963,1.2805,1.4877,1.4839,1.3326,1.454,1.4885,1.4502,1.4346,1.4298,1.4298,1.4298,1.4298,1.4292,1.4226,1.4081,1.3936,1.4135,1.4032,1.3712,1.3155,1.2733,1.2202,1.1153,0.9913,0.8666,0.766,0.7248,0.707,0.6918,0.6537,0.6135,0.5947,0.5882,0.5839,0.5707,0.5688,0.5688,0.5688,0.5688,0.5677,0.5515,0.5082,0.4398,0.3405,0.2105,0.0845,-0.0259,-0.0938,-0.146,-0.1873,-0.1792,-0.1882,-0.218,-0.2182,-0.2481,-0.3197,-0.3992,-0.477,-0.5583,-0.6337,-0.6867,-0.7131,-0.7943,-0.8448,-0.8696,-0.924,-0.9758,-1.0276,-1.0025,-1.0034,0.8414,0.8209,0.7975,0.8121,0.8158,0.8202,0.8348,0.0,0.0,0.0,0.0,0.8486,0.8484,0.8178,0.0,0.0,0.9021,0.0,0.0,0.0,0.0,0.0,0.0,0.0,0.0,0.0,0.0,0.0,1.7213,1.7012,1.6526,1.6633,1.6573,1.6335,1.6321,1.6345,1.6436,1.6293,1.5731,1.4815,1.6009,1.5567,1.3773,1.5628,1.5926,1.487,1.4598,1.4634,1.4819,1.3797,1.3744,1.4298,1.4298,1.4298,1.4298,1.4298,1.4208,1.4105,1.425,1.4201,1.401,1.3567,1.3036,1.248,1.1894,1.1163,1.0285,0.8866,0.8293,0.7952,0.731,0.6979,0.6717,0.6222,0.607,0.6024,0.585,0.5812,0.5795,0.5699,0.5688,0.5688,0.5688,0.5276,0.4766,0.4326,0.274,0.1316,0.0571,-0.0528,-0.1342,-0.1783,-0.1756,-0.185,-0.2045,-0.2108,-0.2414,-0.309,-0.3491,-0.4181,-0.5236,-0.5806,-0.6456,-0.7171,-0.7382,-0.7871,-0.868,-0.9034,-0.9564,-1.0248,-1.0435,-1.0562,0.8187,0.8238,0.8334,0.856,0.8655,0.8782,0.906,0.0,0.0,0.0,0.0,0.0,0.0,0.8382,0.0,0.0,0.0,0.0,0.0,0.0,0.0,0.0,0.0,0.0,0.0,0.0,0.0,0.0,0.0,1.6898,1.6348,1.6506,1.6506,1.6213,1.6206,1.6303,1.6559,1.6307,1.5631,1.4726,1.6162,1.626,1.5122,1.6565,1.7052,1.656,0.0,0.0,1.5181,1.3438,1.3415,1.4436,1.434,1.4346,1.4346,1.4298,1.4298,1.4298,1.4298,1.4298,1.425,1.41,1.3463,1.2646,1.2363,1.2001,1.1424,1.0092,0.9505,0.9008,0.7691,0.7389,0.725,0.6467,0.6317,0.6254,0.598,0.5931,0.5901,0.5806,0.5742,0.5742,0.5742,0.5407,0.5124,0.5124,0.3366,0.1871,0.1524,0.0045,-0.117,-0.1651,-0.1723,-0.1776,-0.1855,-0.208,-0.2469,-0.3134,-0.3044,-0.3577,-0.5018,-0.5364,-0.5988,-0.7019,-0.6759,-0.7183,-0.8302,-0.8641,-0.9289,-1.021,-1.0829,-1.0989,0.8121,0.8407,0.856,0.8334,0.8487,0.8723,0.8774,0.0,0.0,0.0,0.0,0.0,0.0,0.9901,0.0,0.0,0.0,0.0,0.0,0.0,0.0,0.0,0.0,0.0,0.0,0.0,0.0,0.0,0.0,1.6627,1.6342,1.6319,1.6206,1.5905,1.5899,1.5899,1.5946,1.5906,1.5305,1.4244,1.5651,1.5704,1.4591,1.6255,1.7026,1.6925,0.0,1.6256,1.6292,1.5123,1.4893,1.5146,1.4532,1.4448,1.4592,1.4394,1.4298,1.4298,1.4298,1.4298,1.4148,1.3216,1.2829,1.2528,1.1667,1.0902,1.0431,1.1083,1.073,0.9871,0.8494,0.7693,0.7083,0.6448,0.6317,0.6279,0.6089,0.6056,0.6051,0.6034,0.6032,0.6032,0.6032,0.5899,0.5783,0.5783,0.417,0.2691,0.1832,0.0404,-0.0797,-0.1605,-0.1849,-0.1858,-0.1657,-0.2002,-0.2196,-0.2121,-0.2787,-0.3684,-0.4893,-0.5601,-0.6092,-0.6272,-0.6479,-0.688,-0.7469,-0.8031,-0.8795,-0.9702,-1.0039,-1.0408,0.7895,0.8304,0.8699,0.8745,0.8955,0.9329,0.9882,0.0,0.0,0.0,0.0,0.0,0.0,0.0,0.0,0.0,0.0,0.0,0.0,0.0,0.0,0.0,0.0,0.0,0.0,0.0,0.0,0.0,0.0,0.0,1.5805,1.5798,1.5805,1.5784,1.5784,1.5784,1.5784,1.5784,1.5205,1.4114,1.5511,1.5571,1.445,1.607,1.6777,1.6716,0.0,1.5697,1.6264,1.4773,1.4643,1.5343,1.4927,1.4742,1.4688,1.4394,1.4298,1.4298,1.4298,1.4298,1.4202,1.3709,1.3167,1.2732,1.2829,1.195,1.1072,1.2096,1.129,0.9951,0.9478,0.8683,0.7823,0.7107,0.6709,0.6407,0.6225,0.6184,0.6165,0.61,0.6086,0.6086,0.6086,0.604,0.5977,0.5912,0.4754,0.3391,0.1971,0.0858,-0.0314,-0.1633,-0.1712,-0.164,-0.1608,-0.188,-0.2028,-0.2043,-0.31,-0.3958,-0.4488,-0.5418,-0.6022,-0.6194,-0.6174,-0.658,-0.742,-0.7839,-0.8425,-0.9195,-0.9913,-1.0313,0.7808,0.8165,0.8625,0.8977,0.9292,0.9782,1.0865,0.0,0.0,0.0,0.0,0.0,0.0,0.0,0.0,0.0,0.0,0.0,0.0,0.0,0.0,0.0,0.0,0.0,0.0,0.0,0.0,0.0,0.0,0.0,1.5611,1.552,1.5563,1.5853,1.5772,1.5758,1.5784,1.5784,1.5371,1.4526,1.5571,1.5638,1.4787,1.5945,1.6494,1.6419,1.5278,1.5338,1.6156,1.4627,1.461,1.554,1.522,1.4933,1.4694,1.4496,1.4346,1.4298,1.4298,1.4298,1.4298,1.4298,1.3559,1.2829,1.3661,1.2635,1.1317,1.2387,1.1344,0.9963,1.0226,0.9641,0.8762,0.7743,0.7112,0.6678,0.6396,0.6309,0.6279,0.6187,0.6168,0.6168,0.6168,0.6146,0.6097,0.6002,0.5218,0.4105,0.2484,0.1455,0.0271,-0.122,-0.1433,-0.1537,-0.1675,-0.174,-0.188,-0.2121,-0.3251,-0.4035,-0.4225,-0.5157,-0.5818,-0.6216,-0.6115,-0.6504,-0.7344,-0.7702,-0.8167,-0.8789,-0.958,-0.9901,0.8165,0.8099,0.8162,0.8617,0.8994,0.0,1.0814,1.0564,0.0,1.2087,0.0,0.0,0.0,0.0,0.0,0.0,0.0,0.0,0.0,0.0,0.0,0.0,0.0,0.0,0.0,0.0,0.0,0.0,0.0,0.0,1.6248,1.5826,1.5743,1.6049,1.5655,1.5558,1.5778,1.5784,1.5758,1.567,1.5764,1.5758,1.5718,1.6055,1.6224,1.6218,1.6351,1.6492,1.6534,1.5873,1.5839,1.6076,1.5369,1.4933,1.4688,1.4694,1.4496,1.4298,1.4298,1.4298,1.4298,1.4298,1.3559,1.2732,1.278,1.1365,0.9948,1.1023,1.0843,1.0256,1.0289,1.0125,0.9502,0.7875,0.7348,0.6995,0.6478,0.6373,0.6373,0.6363,0.636,0.636,0.636,0.6325,0.63,0.6292,0.5633,0.4802,0.377,0.231,0.0978,-0.0043,-0.1041,-0.175,-0.1876,-0.1555,-0.1496,-0.1887,-0.2901,-0.3717,-0.4373,-0.4876,-0.5411,-0.6013,-0.6541,-0.6853,-0.6948,-0.7518,-0.8069,-0.8625,-0.8444,-0.8624,0.7702,0.8003,0.8441,0.9047,0.9048,0.0,0.0,1.1056,1.1165,1.2789,1.2445,0.0,0.0,0.0,0.0,0.0,0.0,0.0,0.0,0.0,0.0,0.0,0.0,0.0,0.0,0.0,0.0,0.0,0.0,0.0,1.6367,1.6064,1.6039,1.6399,1.5899,1.5631,1.5565,1.5738,1.5651,1.5297,1.5658,1.5784,1.5784,1.5927,1.5927,1.5981,1.6211,1.6359,1.6359,1.6123,1.6123,1.613,1.5547,1.5309,1.5166,1.4831,1.464,1.4538,1.4346,1.4298,1.4298,1.4298,1.4052,1.3709,1.3902,1.2926,1.1901,1.249,1.2358,1.1915,1.1358,1.0733,1.0046,0.9408,0.819,0.7138,0.6936,0.6637,0.6387,0.6387,0.6387,0.6387,0.6387,0.6401,0.635,0.6328,0.5982,0.5285,0.3966,0.2942,0.1738,0.0177,-0.1006,-0.1726,-0.1782,-0.1721,-0.1725,-0.1886,-0.2608,-0.3366,-0.4185,-0.4776,-0.5428,-0.6173,-0.6281,-0.6655,-0.7281,-0.7361,-0.7708,-0.8275,-0.8348,-0.8367,0.756,0.7821,0.8242,0.0,0.0,0.0,1.1275,1.1408,1.1657,1.3558,0.0,0.0,0.0,0.0,0.0,0.0,0.0,0.0,0.0,0.0,0.0,0.0,0.0,0.0,0.0,0.0,0.0,0.0,0.0,0.0,0.0,1.6572,1.6435,1.6519,1.6063,1.5597,1.5264,1.5458,1.5357,1.5015,1.5364,1.5558,1.5558,1.5651,1.5691,1.5698,1.594,1.6076,1.6076,1.6076,1.6076,1.6028,1.5737,1.554,1.5445,1.5064,1.4879,1.479,1.464,1.4496,1.4442,1.4442,1.4394,1.4346,1.4544,1.3806,1.3022,1.3221,1.2877,1.2381,1.1746,1.1143,1.0661,1.0373,0.889,0.7534,0.7385,0.6986,0.6637,0.6539,0.6437,0.6387,0.6387,0.6387,0.636,0.6333,0.6219,0.5763,0.4665,0.3814,0.2546,0.0407,-0.0839,-0.1521,-0.1695,-0.1722,-0.1761,-0.191,-0.2239,-0.2843,-0.3756,-0.4502,-0.5228,-0.5983,-0.6108,-0.6528,-0.7209,-0.7167,-0.7347,-0.7771,-0.7933,-0.7859,0.7921,0.7557,0.0,0.0,0.0,0.0,1.1503,1.1545,1.1823,0.0,0.0,0.0,0.0,0.0,0.0,0.0,0.0,0.0,0.0,0.0,0.0,0.0,0.0,0.0,0.0,0.0,0.0,0.0,0.0,0.0,0.0,1.7334,1.6896,1.6411,1.5931,1.5493,1.5001,1.5008,1.5008,1.5001,1.5001,1.5008,1.5022,1.5264,1.5398,1.5411,1.5705,1.5784,1.5784,1.5784,1.5784,1.5784,1.5784,1.5683,1.5493,1.5493,1.5309,1.5083,1.5083,1.4933,1.4688,1.4688,1.4538,1.4298,1.4298,1.3559,1.2732,1.2732,1.1999,1.1219,1.1219,1.1419,1.1374,1.049,0.9345,0.828,0.773,0.7385,0.7138,0.6845,0.6589,0.6387,0.6387,0.6387,0.6387,0.6387,0.6342,0.6273,0.61,0.5034,0.3299,0.0786,-0.0401,-0.1175,-0.1652,-0.145,-0.146,-0.1872,-0.1709,-0.2053,-0.3057,-0.3951,-0.4693,-0.5282,-0.6139,-0.6589,-0.6589,-0.6863,-0.7001,-0.6992,-0.6939,-0.6885,0.8034,0.7946,0.0,0.0,0.0,0.0,0.0,1.2301,0.0,0.0,0.0,0.0,0.0,0.0,0.0,0.0,0.0,0.0,0.0,0.0,0.0,0.0,0.0,0.0,0.0,0.0,0.0,0.0,0.0,0.0,0.0,1.7175,1.6955,1.6823,1.6382,1.5957,1.559,1.5464,1.5221,1.4807,1.468,1.4763,1.5022,1.5264,1.5398,1.5411,1.5705,1.5784,1.5784,1.5784,1.5784,1.5784,1.5784,1.5778,1.5689,1.554,1.5452,1.5356,1.5178,1.5035,1.4939,1.4736,1.464,1.4592,1.4592,1.4346,1.4052,1.3661,1.3613,1.3366,1.2096,1.2047,1.2019,1.0677,0.9949,0.9312,0.8623,0.7928,0.7385,0.7138,0.6842,0.6639,0.6437,0.6387,0.6387,0.6387,0.6342,0.6048,0.5283,0.3999,0.2631,0.1267,-0.0179,-0.1111,-0.1244,-0.1351,-0.1416,-0.1534,-0.1696,-0.2211,-0.3057,-0.3655,-0.438,-0.5279,-0.5777,-0.6215,-0.6589,-0.659,-0.674,-0.6997,-0.6831,-0.6768,0.8479,0.0,0.0,0.0,0.0,0.0,0.0,0.0,0.0,0.0,0.0,0.0,0.0,0.0,0.0,0.0,0.0,0.0,0.0,0.0,0.0,0.0,0.0,0.0,0.0,0.0,0.0,0.0,0.0,0.0,0.0,1.7364,1.7149,1.6837,1.6577,1.6153,1.5637,1.5576,1.5226,1.4699,1.4632,1.4609,1.4666,1.4917,1.505,1.507,1.5484,1.5718,1.5784,1.5784,1.5784,1.5784,1.5784,1.5784,1.5778,1.5642,1.5635,1.5588,1.5404,1.5315,1.522,1.507,1.4879,1.4688,1.4688,1.464,1.4496,1.4298,1.4148,1.3854,1.2829,1.2829,1.2635,1.1233,1.0498,1.0006,0.941,0.8574,0.7783,0.7441,0.7141,0.6892,0.6589,0.6539,0.6539,0.6437,0.6298,0.6016,0.5445,0.3885,0.2548,0.1993,0.027,-0.0897,-0.1076,-0.1197,-0.1354,-0.1502,-0.159,-0.1982,-0.2672,-0.3575,-0.4291,-0.4857,-0.5465,-0.594,-0.6216,-0.612,-0.6199,-0.6439,-0.6406,-0.6413,0.9096,0.0,0.0,0.0,0.0,0.0,0.0,0.0,0.0,0.0,0.0,0.0,0.0,0.0,0.0,0.0,0.0,0.0,0.0,0.0,0.0,0.0,0.0,0.0,0.0,0.0,0.0,0.0,0.0,0.0,1.7564,1.758,1.7274,1.6611,1.6523,1.6167,1.5474,1.5433,1.5191,1.4733,1.4727,1.4531,1.4137,1.4389,1.4536,1.4589,1.5124,1.5524,1.5744,1.5744,1.5758,1.5784,1.5784,1.5784,1.5784,1.5784,1.5784,1.5784,1.5784,1.5683,1.554,1.5493,1.5159,1.4783,1.4742,1.4586,1.4442,1.4688,1.4052,1.3318,1.3414,1.3559,1.327,1.2052,1.113,1.0453,1.0149,0.9217,0.8237,0.7746,0.7431,0.712,0.6877,0.6778,0.6678,0.6437,0.6255,0.6151,0.6289,0.438,0.2988,0.2755,0.0951,-0.0493,-0.0987,-0.1074,-0.1232,-0.1607,-0.143,-0.1509,-0.2021,-0.3471,-0.4211,-0.4208,-0.5174,-0.5672,-0.5589,-0.5598,-0.5583,-0.5583,-0.5756,-0.5954,0.0,0.9994,0.0,0.0,0.0,0.0,0.0,0.0,0.0,0.0,0.0,0.0,0.0,0.0,0.0,0.0,0.0,0.0,0.0,0.0,0.0,0.0,0.0,0.0,0.0,0.0,0.0,0.0,0.0,0.0,1.592,1.5913,1.6031,1.6259,1.6039,1.5953,1.6029,1.5715,1.5393,0.0,1.5043,1.479,1.4328,1.4468,1.4643,1.4921,1.5048,1.5217,1.5491,1.5491,1.5625,1.5784,1.5784,1.5784,1.5784,1.5784,1.5784,1.5784,1.5784,1.5784,1.573,1.554,1.5397,1.5302,1.5077,1.507,1.5153,1.5029,1.4838,1.4442,1.3463,1.3806,1.4154,1.3022,1.2198,1.1468,1.0783,0.946,0.8283,0.7992,0.7599,0.728,0.6991,0.6792,0.6576,0.6423,0.6344,0.6304,0.6146,0.5063,0.3949,0.2984,0.1616,0.0403,-0.0493,-0.0707,-0.0873,-0.1124,-0.1255,-0.1414,-0.1679,-0.2474,-0.3298,-0.4099,-0.4622,-0.5092,-0.5589,-0.55,-0.5458,-0.5458,-0.5495,-0.5657,0.0,0.0,0.0,0.0,0.0,0.0,0.0,0.0,0.0,0.0,0.0,0.0,0.0,0.0,0.0,0.0,0.0,0.0,0.0,0.0,0.0,0.0,0.0,0.0,0.0,0.0,0.0,0.0,0.0,1.5049,1.5235,1.5351,1.5514,1.5803,1.5738,1.5761,1.5952,1.5764,1.5442,1.508,1.5068,1.4777,1.431,1.4296,1.4469,1.475,1.475,1.4917,1.519,1.519,1.5357,1.5611,1.5471,1.5504,1.5625,1.5625,1.5625,1.5625,1.5625,1.5625,1.5571,1.5484,1.5384,1.5263,1.527,1.535,1.5391,1.5404,1.5356,1.5112,1.4526,1.4627,1.4783,1.4334,1.3559,1.2587,1.1414,1.017,0.8995,0.8073,0.7669,0.7426,0.7136,0.675,0.6483,0.64,0.6265,0.6138,0.6013,0.5113,0.408,0.3008,0.1926,0.0806,-0.0314,-0.0484,-0.065,-0.0858,-0.1037,-0.1242,-0.1392,-0.1806,-0.2601,-0.3852,-0.4413,-0.4958,-0.5515,-0.5433,-0.5395,-0.5395,-0.5561,-0.5723,0.0,0.0,0.0,0.0,0.0,0.0,0.0,0.0,0.0,0.0,0.0,0.0,0.0,0.0,0.0,0.0,0.0,0.0,0.0,0.0,0.0,0.0,0.0,0.0,0.0,0.0,0.0,0.0,0.0,1.4454,1.4797,1.4972,1.5141,1.5296,1.5424,1.5531,1.5594,1.5586,1.5357,1.4934,1.4879,1.4643,1.4279,1.4186,1.4253,1.4442,1.4486,1.4697,1.4928,1.4928,1.5057,1.5297,1.5102,1.5137,1.5398,1.5398,1.5431,1.5464,1.5418,1.5398,1.5398,1.5444,1.5299,1.5213,1.5597,1.5629,1.5629,1.5825,1.5724,1.5581,1.5635,1.5458,1.5267,1.5404,1.4819,1.3752,1.1999,1.0812,0.9619,0.8097,0.7675,0.7466,0.7226,0.6754,0.6432,0.6405,0.6136,0.5926,0.5907,0.5137,0.4135,0.3002,0.2152,0.1121,-0.0224,-0.0352,-0.0431,-0.0633,-0.0783,-0.0956,-0.1138,-0.1358,-0.2064,-0.3346,-0.4172,-0.4776,-0.5193,-0.5329,-0.5395,-0.5359,-0.5624,-0.5822,0.0,0.0,0.0,0.0,0.0,0.0,0.0,0.0,0.0,0.0,0.0,0.0,0.0,0.0,0.0,0.0,0.0,0.0,0.0,0.0,0.0,0.0,0.0,0.0,0.0,0.0,0.0,0.0,1.3218,1.3347,1.3717,1.3739,1.4114,1.4922,1.4723,1.4788,1.5245,1.5095,1.49,1.4637,1.435,1.4342,1.4529,1.4368,1.4227,1.4184,1.4509,1.4638,1.4583,1.4583,1.475,1.5062,1.5022,1.5137,1.5398,1.5398,1.5558,1.5684,1.5484,1.5398,1.5444,1.5681,1.5734,1.5788,1.6303,1.644,1.6393,1.6197,1.6143,1.5954,1.5363,1.5458,1.5594,1.5226,1.5356,1.486,1.2382,1.0614,0.9144,0.8,0.759,0.7358,0.7083,0.6759,0.6516,0.6441,0.6211,0.6024,0.5918,0.5796,0.4974,0.3096,0.2778,0.1973,0.009,-0.0044,-0.0129,-0.0337,-0.0371,-0.0558,-0.0911,-0.126,-0.1716,-0.2388,-0.324,-0.3912,-0.4456,-0.5093,-0.5326,-0.5156,-0.5186,-0.5455,1.0481,0.0,0.0,0.0,0.0,0.0,0.0,0.0,0.0,0.0,0.0,0.0,0.0,0.0,0.0,0.0,0.0,0.0,0.0,0.0,0.0,0.0,0.0,0.0,0.0,0.0,0.0,0.0,1.3377,1.3354,1.3245,1.326,1.3466,1.387,1.3916,1.4052,1.4314,1.4413,1.4396,1.4323,1.4101,1.406,1.4212,1.4492,1.4495,1.4279,1.444,1.4438,1.4282,1.4282,1.4449,1.4696,1.4536,1.4649,1.491,1.491,1.4983,1.5032,1.495,1.491,1.4975,1.5361,1.5506,1.5641,1.6395,1.6683,1.6784,1.6683,1.6534,1.6346,1.6021,1.5778,1.554,1.5499,1.4867,1.3993,1.2978,1.1623,0.9957,0.783,0.7333,0.7196,0.7065,0.6886,0.6635,0.6418,0.6247,0.6002,0.5814,0.5809,0.5245,0.3855,0.3235,0.2345,0.0896,0.0301,-0.0042,-0.0126,-0.0244,-0.0395,-0.0542,-0.0918,-0.1246,-0.1451,-0.2499,-0.3455,-0.4285,-0.4624,-0.4957,-0.5259,-0.5455,-0.567,0.0,0.0,0.0,0.0,0.0,0.0,0.0,0.0,0.0,0.0,0.0,0.0,0.0,0.0,0.0,0.0,0.0,0.0,0.0,0.0,0.0,0.0,0.0,0.0,0.0,0.0,0.0,0.0,1.3623,1.3379,1.3086,1.2969,1.2955,1.3005,1.3325,1.3496,1.3566,1.381,1.3945,1.3956,1.3844,1.3849,1.3951,1.4433,1.4545,1.4345,1.4497,1.4496,1.4334,1.4173,1.4251,1.4468,1.4211,1.4262,1.4522,1.4522,1.4569,1.4623,1.4543,1.4522,1.4599,1.5065,1.5233,1.5442,1.6302,1.672,1.6911,1.6973,1.6804,1.6563,1.6469,1.5994,1.5523,1.5671,1.4611,1.3339,1.251,1.1574,1.0121,0.7583,0.7095,0.7095,0.7095,0.6925,0.6748,0.6609,0.6302,0.6038,0.5908,0.5777,0.5319,0.4355,0.346,0.2484,0.1455,0.0549,0.0,0.0,-0.0121,-0.0237,-0.0314,-0.0703,-0.089,-0.0918,-0.1852,-0.2839,-0.3773,-0.4117,-0.4568,-0.5145,-0.5575,-0.581,0.0,0.0,0.0,0.0,0.0,0.0,0.0,0.0,0.0,0.0,0.0,0.0,0.0,0.0,0.0,0.0,0.0,0.0,0.0,0.0,0.0,0.0,0.0,0.0,0.0,0.0,0.0,0.0,1.341,1.3099,1.3284,1.2706,1.2475,1.2822,1.3021,1.3204,1.3421,1.3508,1.354,1.3535,1.3514,1.3682,1.3982,1.4018,1.4086,1.4137,1.4784,1.5048,1.5006,1.4341,1.4215,1.4377,1.4173,1.4262,1.4522,1.4522,1.4696,1.4948,1.4616,1.4522,1.4566,1.4827,1.5106,1.5445,1.6239,1.6543,1.6666,1.6829,1.6704,1.6437,1.6193,1.5925,1.5655,1.5464,1.5133,1.3874,1.0199,0.9309,0.88,0.7388,0.7095,0.7095,0.7095,0.6925,0.6881,0.7051,0.6523,0.6171,0.6343,0.5994,0.5289,0.4222,0.3386,0.2454,0.1394,0.0505,0.0,0.0,0.0,-0.0121,-0.0275,-0.0691,-0.0881,-0.0902,-0.1268,-0.1743,-0.2323,-0.3635,-0.4319,-0.4386,-0.5087,-0.5679,0.0,0.0,0.0,0.0,0.0,0.0,0.0,0.0,0.0,0.0,0.0,0.0,0.0,0.0,0.0,0.0,0.0,0.0,0.0,0.0,0.0,0.0,0.0,0.0,0.0,0.0,0.0,0.0,0.0,1.28,1.3695,1.2207,1.1806,1.2759,1.2525,1.2546,1.283,1.3201,1.3314,1.3184,1.3541,1.3704,1.3667,1.3822,1.3874,1.3918,1.4057,1.4323,1.4577,1.433,1.42,1.4131,1.4246,1.4147,1.3939,1.4168,1.4309,1.4432,1.4282,1.4242,1.4311,1.4752,1.5055,1.5332,1.601,1.6316,1.6509,1.6572,1.6498,1.6416,1.6319,1.6102,1.5555,1.4176,1.4044,1.344,1.0639,1.0049,0.9701,0.8508,0.7621,0.7095,0.7095,0.7054,0.6966,0.6925,0.6833,0.6612,0.6257,0.6169,0.5855,0.5084,0.4195,0.3259,0.2269,0.135,0.0605,0.0041,0.0,-0.004,-0.0118,-0.0351,-0.0623,-0.0903,-0.1197,-0.1632,-0.2274,-0.3212,-0.3839,-0.4186,-0.5114,-0.5535,0.0,0.0,0.0,0.0,0.0,0.0,0.0,0.0,0.0,0.0,0.0,0.0,0.0,0.0,0.0,0.0,0.0,0.0,0.0,0.0,0.0,0.0,0.0,0.0,0.0,0.0,0.0,0.0,0.0,0.0,1.3691,1.2315,1.199,1.3083,1.275,1.2667,1.2841,1.3145,1.3313,1.3359,1.3737,1.3935,1.396,1.3907,1.3864,1.3757,1.3492,1.3739,1.4302,1.4316,1.4223,1.4167,1.4407,1.422,1.3831,1.4094,1.4166,1.413,1.4166,1.4201,1.4277,1.4638,1.4904,1.5158,1.5535,1.589,1.6168,1.6155,1.617,1.6213,1.6213,1.6045,1.5466,1.3976,1.3856,1.3566,1.1669,1.1158,1.0659,0.9192,0.8233,0.7577,0.7183,0.7095,0.7098,0.7061,0.7054,0.6962,0.6612,0.6439,0.6203,0.5818,0.4727,0.366,0.2768,0.1852,0.0911,0.0041,0.0,0.0,0.0,-0.0196,-0.0432,-0.0707,-0.11,-0.1519,-0.1953,-0.2714,-0.3228,-0.3511,-0.4618,-0.5167,0.0,0.0,0.0,0.0,0.0,0.0,0.9406,0.0,0.0,0.0,0.0,0.0,0.0,0.0,0.0,0.0,0.0,0.0,0.0,0.0,0.0,0.0,0.0,0.0,0.0,0.0,0.0,0.0,1.3511,1.3177,1.3214,1.3024,1.3138,1.364,1.3666,1.3634,1.3489,1.3387,1.3574,1.3991,1.4106,1.4386,1.4876,1.4369,1.3964,1.3668,1.3206,1.3475,1.4306,1.427,1.4323,1.443,1.4598,1.4482,1.4211,1.4345,1.4265,1.4166,1.4349,1.4391,1.4433,1.4433,1.4653,1.4907,1.4929,1.5267,1.5669,1.559,1.5727,1.5899,1.5899,1.5727,1.5418,1.49,1.4752,1.4349,1.3014,1.2345,1.1402,0.9327,0.889,0.8496,0.7316,0.7095,0.7187,0.7459,0.7279,0.7183,0.7445,0.6797,0.6328,0.6279,0.4911,0.3637,0.28,0.189,0.095,0.0081,0.0,0.0,0.0,-0.0196,-0.0314,-0.0314,-0.0943,-0.1296,-0.1296,-0.2183,-0.2495,-0.2339,-0.3597,-0.4565,1.0039,0.0,0.0,0.0,0.0,0.0,0.9537,1.0235,1.0747,0.0,0.0,0.0,0.0,0.0,0.0,0.0,0.0,0.0,0.0,0.0,0.0,0.0,0.0,0.0,0.0,0.0,0.0,0.0,1.2818,1.2569,1.3788,1.3378,1.2951,1.2643,1.305,1.3239,1.3199,1.3838,1.4196,1.4299,1.4687,1.4915,1.4891,1.4661,1.4106,1.3316,1.3185,1.3484,1.4008,1.4059,1.4079,1.4157,1.4402,1.4424,1.4313,1.4041,1.443,1.4956,1.4482,1.46,1.4915,1.4915,1.4979,1.505,1.5043,1.5233,1.546,1.5458,1.5478,1.552,1.552,1.526,1.4909,1.474,1.4502,1.4181,1.3964,1.3021,1.1558,0.9323,0.8193,0.7489,0.7139,0.7095,0.7139,0.7187,0.7323,0.7367,0.7228,0.7057,0.6754,0.6231,0.5644,0.4796,0.3591,0.2681,0.1806,0.099,0.0355,0.0,0.0,-0.0039,-0.0236,-0.051,-0.0707,-0.1021,-0.1533,-0.226,-0.251,-0.2314,-0.3401,-0.4264,0.0,0.0,0.0,0.0,0.0,0.0,0.9149,0.9953,1.0546,0.0,0.0,0.0,0.0,0.0,0.0,0.0,0.0,0.0,0.0,0.0,0.0,0.0,0.0,0.0,0.0,1.3435,1.335,1.3594,1.27,1.2646,1.3792,1.3535,1.3228,1.2986,1.3513,1.3722,1.3513,1.4219,1.4617,1.4739,1.5172,1.5407,1.5529,1.5207,1.4678,1.4035,1.3817,1.3936,1.4346,1.4492,1.4546,1.4519,1.4505,1.4455,1.4313,1.4204,1.4526,1.4951,1.4738,1.4887,1.5151,1.5199,1.5249,1.52,1.4999,1.5082,1.5257,1.5257,1.5347,1.5389,1.5389,1.5215,1.4999,1.4999,1.4824,1.4524,1.4048,1.3317,1.2109,1.0139,0.8711,0.7709,0.7183,0.7095,0.7095,0.7095,0.7323,0.7503,0.7452,0.7317,0.7126,0.6846,0.6277,0.5472,0.4385,0.3229,0.2234,0.1412,0.0516,0.0,0.0,0.0,-0.0118,-0.0353,-0.051,-0.0904,-0.1493,-0.1839,-0.2053,-0.2108,-0.2648,-0.3376,0.0,0.0,0.0,0.0,0.0,0.0,0.8622,0.9503,1.0254,1.0079,0.0,0.0,0.0,0.0,0.0,0.0,0.0,0.0,0.0,0.0,0.0,0.0,0.0,0.0,1.325,1.3046,1.2905,1.2905,1.2905,1.3071,1.3418,1.3437,1.3613,1.3958,1.4414,1.4454,1.4063,1.4467,1.4857,1.5255,1.5475,1.5881,1.6394,1.592,1.5513,1.5157,1.4696,1.4693,1.5027,1.5131,1.5189,1.5155,1.4842,1.4538,1.4268,1.4491,1.4554,1.4572,1.5004,1.518,1.52,1.5408,1.5391,1.5216,1.4837,1.49,1.5081,1.5081,1.5206,1.533,1.5294,1.5309,1.5323,1.5328,1.5279,1.4989,1.373,1.3351,1.2802,1.1332,0.9879,0.854,0.7316,0.7095,0.7095,0.7095,0.7323,0.7547,0.7812,0.7537,0.7447,0.772,0.6812,0.59,0.5168,0.3769,0.2488,0.1588,0.0644,0.0118,0.0,0.0,0.0,0.0,-0.0393,-0.0824,-0.1252,-0.1225,-0.1421,-0.1825,-0.1739,-0.2279,0.0,0.0,0.0,0.0,0.0,0.0,0.9132,0.9631,1.0186,0.0,0.0,0.0,0.0,0.0,0.0,0.0,0.0,0.0,0.0,0.0,0.0,0.0,0.0,0.0,1.2973,1.293,1.2905,1.2905,1.2905,1.2935,1.2998,1.3023,1.3037,1.3125,1.3535,1.376,1.3786,1.4216,1.48,1.5444,1.5497,1.5841,1.6413,1.6284,1.5848,1.5206,1.5077,1.5253,1.5569,1.4863,1.4713,1.4955,1.4884,1.4709,1.4471,1.3941,1.4351,1.5165,1.4946,1.4969,1.5192,1.5759,1.5397,1.4699,1.4834,1.4914,1.4954,1.4954,1.4954,1.4936,1.4721,1.4845,1.4929,1.4714,1.4695,1.4641,1.4605,1.3735,1.2754,1.1946,1.0341,0.8698,0.7356,0.7095,0.7095,0.7095,0.7143,0.7279,0.7547,0.7577,0.7485,0.7393,0.7112,0.6631,0.5927,0.4781,0.3618,0.2528,0.1552,0.0745,0.0039,0.0,0.0,0.0,-0.0393,-0.0739,-0.0991,-0.1291,-0.1623,-0.1949,-0.1791,-0.2055,0.0,0.0,0.0,1.1132,0.0,0.0,0.0,0.9684,0.9953,0.0,0.0,0.0,0.0,0.0,0.0,0.0,0.0,0.0,0.0,0.0,0.0,0.0,0.0,0.0,1.27,1.2832,1.2944,1.3045,1.2968,1.2944,1.3045,1.2944,1.2905,1.2905,1.3291,1.3531,1.3592,1.4129,1.47,1.524,1.5433,1.5751,1.6249,1.6345,1.6163,1.5807,1.5807,1.5988,1.6257,1.5783,1.5556,1.5469,1.4911,1.4514,1.4162,1.3915,1.4135,1.4597,1.4507,1.4454,1.4548,1.4866,1.4688,1.4399,1.4452,1.4575,1.4706,1.4706,1.4706,1.467,1.4548,1.4589,1.467,1.4548,1.4511,1.4555,1.467,1.4294,1.3613,1.266,1.1464,0.9908,0.7797,0.7275,0.7071,0.7001,0.7051,0.716,0.7353,0.7472,0.757,0.7575,0.7335,0.702,0.6677,0.5484,0.443,0.3663,0.2299,0.1269,0.0667,0.0235,0.0,0.0,-0.0314,-0.0585,-0.0887,-0.1234,-0.1484,-0.1594,-0.1463,-0.1599,0.0,0.0,0.0,0.0,0.0,1.0455,0.0,0.0,0.0,0.0,0.0,0.0,0.0,0.0,0.0,0.0,0.0,0.0,0.0,0.0,0.0,0.0,0.0,0.0,1.232,1.2647,1.2918,1.3098,1.3055,1.3079,1.3194,1.3045,1.2968,1.2968,1.3238,1.3389,1.3389,1.387,1.4357,1.4899,1.5191,1.5603,1.6114,1.6306,1.6413,1.6413,1.6413,1.6523,1.6724,1.6724,1.6426,1.5897,1.4965,1.425,1.3775,1.3795,1.3726,1.3716,1.3915,1.3928,1.3808,1.3884,1.4057,1.4209,1.3962,1.4108,1.4374,1.444,1.4416,1.4401,1.4335,1.4364,1.4401,1.4335,1.432,1.4335,1.4401,1.4626,1.4458,1.3267,1.2619,1.1381,0.854,0.7625,0.719,0.6987,0.7021,0.7142,0.7239,0.7396,0.7585,0.7839,0.7508,0.7271,0.7215,0.6079,0.5131,0.4573,0.2933,0.1796,0.1333,0.0471,0.0,0.0,-0.0157,-0.0432,-0.0825,-0.1134,-0.1303,-0.1331,-0.1225,-0.1299,0.0,0.0,0.0,0.0,1.2086,0.0,0.0,0.0,1.0251,1.0113,0.0,0.0,0.0,0.0,0.0,0.0,0.0,0.0,0.0,0.0,0.0,0.0,0.0,0.0,0.0,1.2278,1.2676,1.2745,1.3224,1.342,1.3208,1.317,1.317,1.317,1.3032,1.2974,1.2974,1.3047,1.3539,1.448,1.462,1.5178,1.6114,1.6306,1.6413,1.6413,1.6413,1.6405,1.6456,1.6456,1.6127,1.559,1.5071,1.4404,1.3621,1.2927,1.2886,1.3213,1.3558,1.3519,1.3471,1.4064,1.416,1.3988,1.366,1.3726,1.3933,1.4231,1.4192,1.4005,1.3682,1.3821,1.3967,1.3675,1.3601,1.3682,1.3975,1.4296,1.436,1.3642,1.3336,1.2273,0.9518,0.8317,0.758,0.7163,0.7085,0.7088,0.7119,0.7404,0.7578,0.7645,0.7675,0.7599,0.7296,0.6744,0.5916,0.4665,0.3382,0.2276,0.1332,0.0471,0.0,0.0,-0.0039,-0.0236,-0.0628,-0.1038,-0.1419,-0.1831,-0.1634,-0.156,0.0,0.0,0.0,0.0,0.0,0.0,1.2103,0.0,1.0641,0.0,0.0,0.0,0.0,0.0,0.0,0.0,0.9556,0.0,0.0,0.0,0.0,0.0,0.0,0.0,0.0,0.0,0.0,0.0,1.2715,1.2884,1.2699,1.3007,1.3266,1.342,1.3358,1.332,1.332,1.3142,1.3541,1.4453,1.4539,1.5083,1.599,1.6259,1.6413,1.6413,1.6413,1.6413,1.6413,1.6413,1.6275,1.5999,1.5317,1.4507,1.3726,1.3826,1.3639,1.3396,1.3901,1.372,1.3292,1.3261,1.329,1.3322,1.3474,1.3561,1.3674,1.3925,1.3889,1.3667,1.3536,1.3594,1.3667,1.3528,1.3492,1.3536,1.3667,1.396,1.4197,1.4115,1.3757,1.2912,1.1134,0.9609,0.8237,0.7158,0.7045,0.7065,0.6984,0.7165,0.7282,0.7266,0.7424,0.7415,0.7222,0.7012,0.6486,0.5583,0.3685,0.227,0.1489,0.051,0.0,0.0,0.0,-0.0196,-0.0589,-0.0778,-0.1089,-0.1571,-0.1802,-0.1805,1.5357,0.0,0.0,0.0,0.0,0.0,0.0,0.0,0.0,0.0,0.0,0.0,0.0,0.0,0.0,0.0,0.0,0.9526,0.0,0.0,0.0,0.0,0.0,0.0,0.0,0.0,0.0,0.0,0.0,1.2484,1.2242,1.2976,1.3467,1.3597,1.3597,1.3563,1.3491,1.329,1.3596,1.438,1.4529,1.5066,1.5914,1.6259,1.6413,1.6413,1.6413,1.6413,1.6413,1.6413,1.6446,1.6492,1.5789,1.5025,1.4315,1.4557,1.4253,1.374,1.4197,1.3909,1.328,1.2798,1.2743,1.2948,1.3191,1.3322,1.3465,1.3669,1.3584,1.3454,1.347,1.3492,1.3492,1.3492,1.3426,1.336,1.336,1.3689,1.4048,1.4328,1.4203,1.3712,1.2553,1.073,0.887,0.739,0.7119,0.7058,0.6957,0.7041,0.7109,0.7009,0.7155,0.7186,0.7058,0.7044,0.6727,0.5934,0.3787,0.227,0.1646,0.0588,0.0,0.0,0.0,-0.0157,-0.0432,-0.055,-0.0786,-0.1139,-0.1736,-0.1931,0.0,0.0,0.0,1.4361,0.0,0.0,0.0,0.0,1.2289,0.0,0.0,0.0,0.0,0.0,0.0,0.0,0.0,0.0,0.0,0.0,0.0,0.0,0.0,0.0,0.0,0.0,0.0,0.0,0.0,0.0,1.2028,1.3249,1.3868,1.3621,1.3597,1.3491,1.3218,1.3194,1.3521,1.4104,1.445,1.5066,1.5914,1.6259,1.6413,1.6413,1.6413,1.6413,1.6413,1.6413,1.6632,1.6955,1.651,1.6107,1.5602,1.4445,1.4091,1.4172,1.4201,1.3893,1.345,1.3086,1.3048,1.3043,1.2729,1.2935,1.3341,1.3458,1.3417,1.3351,1.3484,1.3492,1.3492,1.3492,1.3258,1.3023,1.3023,1.3528,1.3989,1.3996,1.4725,1.4901,1.348,1.1381,0.9401,0.7973,0.7404,0.7095,0.7088,0.7144,0.7165,0.6999,0.7053,0.7055,0.6926,0.6911,0.6363,0.5112,0.3634,0.2427,0.1646,0.0588,0.0,0.0,0.0,0.0,-0.0039,-0.0393,-0.0589,-0.0628,-0.1489,-0.192,0.0,0.0,1.7108,1.6847,0.0,0.0,0.0,0.0,0.0,0.0,0.0,0.0,0.0,0.0,0.0,0.0,0.0,0.0,0.0,0.0,0.0,0.0,0.0,0.0,0.0,0.0,0.0,0.0,0.0,0.0,0.0,1.2151,1.3095,1.3139,1.3611,1.3915,1.3988,1.3634,1.3967,1.4976,1.4908,1.5284,1.6038,1.6153,1.621,1.621,1.6116,1.6202,1.6405,1.6597,1.6813,1.6996,1.6851,1.6724,1.6517,1.584,1.5294,1.4864,1.4962,1.4638,1.4073,1.3502,1.3157,1.2923,1.2931,1.3003,1.3122,1.321,1.3104,1.2956,1.2853,1.2848,1.2848,1.2848,1.2928,1.3009,1.3009,1.3521,1.4086,1.4298,1.4735,1.4791,1.3973,1.2887,1.1375,0.9091,0.8005,0.7331,0.7126,0.7057,0.6953,0.6798,0.6939,0.6962,0.6736,0.6563,0.6251,0.5622,0.4491,0.34,0.2427,0.1528,0.0706,0.0,0.0,0.0,0.0,-0.0118,-0.0196,-0.0236,-0.0785,-0.1333,1.8642,1.8496,0.0,1.8064,1.7691,0.0,1.6271,0.0,0.0,0.0,0.0,0.0,0.0,0.0,0.0,0.0,0.0,0.0,0.0,1.0753,0.0,0.0,0.0,0.0,0.0,0.0,0.0,0.0,0.0,0.0,0.0,0.0,1.2721,1.2785,1.3679,1.4174,1.4267,1.3905,1.4258,1.5247,1.5143,1.549,1.6285,1.6314,1.6296,1.621,1.6116,1.6294,1.6661,1.6764,1.7009,1.7334,1.7108,1.711,1.7182,1.6601,1.6077,1.5652,1.572,1.5323,1.4765,1.4312,1.3665,1.3074,1.3208,1.3044,1.2891,1.3104,1.2955,1.271,1.2772,1.2648,1.2514,1.2631,1.2767,1.2899,1.3133,1.3514,1.3945,1.4423,1.4633,1.4666,1.4434,1.376,1.2415,0.9961,0.8905,0.8107,0.7285,0.7164,0.7013,0.6682,0.674,0.6757,0.6623,0.6412,0.6219,0.606,0.5035,0.4103,0.34,0.2522,0.1593,0.0588,0.0588,0.0392,0.0,0.0,0.0,0.0,-0.0432,-0.0982]}]]